[[{"header":{"parameterUnit":"m.s-1","parameterCategory":1,"la1":30.6,"la2":29.2853,"lo1":-89.7004,"lo2":-87.6739,"dy":0.0162,"dx":0.0183,"nx":112,"ny":82,"refTime":"2023-03-17T18:00:00:Z","depth":0,"parameterNumber":2,"parameterNumberName":"U-component_of_WINDS"},"data":[0.0,0.0,0.0,0.0,0.0,0.0,0.0,0.0,0.0,0.0,0.0,0.0,0.0,0.0,0.0,0.0,0.0,0.0,0.0,0.0,0.0,0.0,0.0,0.0,0.0,0.0,0.0,0.0,0.0,0.0,0.0,0.0,0.0,0.0,0.0,0.0,0.0,0.0,0.0,0.0,0.0,0.0,0.0,0.0,0.0,0.0,0.0,0.0,0.0,0.0,0.0,0.0,0.0,0.0,0.0,0.0,0.0,0.0,0.0,0.0,0.0,0.0,0.0,0.0,0.0,0.0,0.0,0.0,0.0,0.0,0.0,0.0,0.0,0.0,0.0,0.0,0.0,0.0,0.0,0.0,0.0,0.0,0.0,0.0,0.0,0.0,0.0,0.0,0.0,0.0,0.0,8.4603,9.8062,10.571,10.3402,10.0868,9.364,7.9944,0.0,0.0,0.0,0.0,0.0,0.0,0.0,0.0,0.0,0.0,0.0,0.0,0.0,0.0,0.0,0.0,0.0,0.0,0.0,0.0,0.0,0.0,0.0,0.0,0.0,0.0,0.0,0.0,0.0,0.0,0.0,0.0,0.0,0.0,0.0,0.0,0.0,0.0,0.0,0.0,0.0,0.0,0.0,0.0,0.0,0.0,0.0,0.0,0.0,0.0,0.0,0.0,0.0,0.0,0.0,0.0,0.0,0.0,0.0,0.0,0.0,0.0,0.0,0.0,0.0,0.0,0.0,0.0,0.0,0.0,0.0,0.0,0.0,0.0,0.0,0.0,0.0,0.0,0.0,0.0,0.0,0.0,0.0,0.0,0.0,0.0,0.0,0.0,0.0,0.0,0.0,0.0,0.0,0.0,0.0,0.0,0.0,0.0,0.0,0.0,0.0,0.0,0.0,0.0,8.1635,9.5944,10.3506,10.7015,10.5938,10.0322,9.2556,8.2402,0.0,0.0,0.0,0.0,0.0,0.0,0.0,0.0,0.0,0.0,0.0,0.0,0.0,0.0,0.0,0.0,0.0,0.0,0.0,0.0,0.0,0.0,0.0,0.0,0.0,0.0,0.0,0.0,0.0,0.0,0.0,0.0,0.0,0.0,0.0,0.0,0.0,0.0,0.0,0.0,0.0,0.0,0.0,0.0,0.0,0.0,0.0,0.0,0.0,0.0,0.0,0.0,0.0,0.0,0.0,0.0,0.0,0.0,0.0,0.0,0.0,0.0,0.0,0.0,0.0,0.0,0.0,0.0,0.0,0.0,0.0,0.0,0.0,0.0,0.0,0.0,0.0,0.0,0.0,0.0,0.0,0.0,0.0,0.0,0.0,0.0,0.0,0.0,0.0,0.0,0.0,0.0,0.0,0.0,0.0,0.0,0.0,0.0,0.0,0.0,0.0,0.0,0.0,7.8881,8.7212,10.1878,10.679,10.8482,10.7169,10.1709,9.379,8.3018,7.709,0.0,0.0,0.0,0.0,0.0,0.0,0.0,0.0,0.0,0.0,0.0,0.0,0.0,0.0,0.0,0.0,0.0,0.0,0.0,0.0,0.0,0.0,0.0,0.0,0.0,0.0,0.0,0.0,0.0,0.0,0.0,0.0,0.0,0.0,0.0,0.0,0.0,0.0,0.0,0.0,0.0,0.0,0.0,0.0,0.0,0.0,0.0,0.0,0.0,0.0,0.0,0.0,0.0,0.0,0.0,0.0,0.0,0.0,0.0,0.0,0.0,0.0,0.0,0.0,0.0,0.0,0.0,0.0,0.0,0.0,0.0,0.0,0.0,0.0,0.0,0.0,0.0,0.0,0.0,0.0,0.0,0.0,0.0,0.0,0.0,0.0,0.0,0.0,0.0,0.0,0.0,0.0,0.0,0.0,0.0,0.0,0.0,0.0,0.0,0.0,0.0,0.0,8.7123,9.3475,10.571,10.8867,10.9565,10.8095,10.2176,9.4102,8.3557,7.6013,0.0,0.0,0.0,0.0,0.0,0.0,0.0,0.0,0.0,0.0,0.0,0.0,0.0,0.0,0.0,0.0,0.0,0.0,0.0,0.0,0.0,0.0,0.0,0.0,0.0,0.0,0.0,0.0,0.0,0.0,0.0,0.0,0.0,0.0,0.0,0.0,0.0,0.0,0.0,0.0,0.0,0.0,0.0,0.0,0.0,0.0,0.0,0.0,0.0,0.0,0.0,0.0,0.0,0.0,0.0,0.0,0.0,0.0,0.0,0.0,0.0,0.0,0.0,0.0,0.0,0.0,0.0,0.0,0.0,0.0,0.0,0.0,0.0,0.0,0.0,0.0,0.0,0.0,0.0,0.0,0.0,0.0,0.0,0.0,0.0,0.0,0.0,0.0,0.0,0.0,0.0,0.0,0.0,0.0,0.0,0.0,0.0,0.0,0.0,0.0,0.0,0.0,9.145,9.9788,10.7867,10.9562,10.9793,10.8867,9.9791,9.1479,8.5089,7.3937,0.0,0.0,0.0,0.0,0.0,0.0,0.0,0.0,0.0,0.0,0.0,0.0,0.0,0.0,0.0,0.0,0.0,0.0,0.0,0.0,0.0,0.0,0.0,0.0,0.0,0.0,0.0,0.0,0.0,0.0,0.0,0.0,0.0,0.0,0.0,0.0,0.0,0.0,0.0,0.0,0.0,0.0,0.0,0.0,0.0,0.0,0.0,0.0,0.0,0.0,0.0,0.0,0.0,0.0,0.0,0.0,0.0,0.0,0.0,0.0,0.0,0.0,0.0,0.0,0.0,0.0,0.0,0.0,0.0,0.0,0.0,0.0,0.0,0.0,0.0,0.0,0.0,0.0,0.0,0.0,0.0,0.0,0.0,0.0,0.0,0.0,0.0,0.0,0.0,0.0,0.0,0.0,0.0,0.0,0.0,0.0,0.0,0.0,0.0,0.0,0.0,0.0,9.1374,9.9863,0.0,11.0175,11.0172,10.8329,10.1717,9.3792,8.4636,0.0,0.0,0.0,0.0,0.0,0.0,0.0,0.0,0.0,0.0,0.0,0.0,0.0,0.0,0.0,0.0,0.0,0.0,0.0,0.0,0.0,0.0,0.0,0.0,0.0,0.0,0.0,0.0,0.0,0.0,0.0,0.0,0.0,0.0,0.0,0.0,0.0,0.0,0.0,0.0,0.0,0.0,0.0,0.0,0.0,0.0,0.0,0.0,0.0,0.0,0.0,0.0,0.0,0.0,0.0,0.0,0.0,0.0,0.0,0.0,0.0,0.0,0.0,0.0,0.0,0.0,0.0,0.0,0.0,0.0,0.0,0.0,0.0,0.0,0.0,0.0,0.0,0.0,0.0,0.0,0.0,0.0,0.0,0.0,0.0,0.0,0.0,0.0,0.0,0.0,0.0,0.0,0.0,0.0,0.0,0.0,0.0,0.0,0.0,0.0,0.0,0.0,8.3566,9.2629,10.1169,0.0,11.0788,11.0631,10.8329,10.1868,9.4177,8.4944,0.0,0.0,0.0,0.0,0.0,0.0,0.0,0.0,0.0,0.0,0.0,0.0,0.0,0.0,0.0,0.0,0.0,0.0,0.0,0.0,0.0,0.0,0.0,0.0,0.0,0.0,0.0,0.0,0.0,0.0,0.0,0.0,0.0,0.0,0.0,0.0,0.0,0.0,0.0,0.0,0.0,0.0,0.0,0.0,0.0,0.0,0.0,0.0,0.0,0.0,0.0,0.0,0.0,0.0,0.0,0.0,0.0,0.0,0.0,0.0,0.0,0.0,0.0,0.0,0.0,0.0,0.0,0.0,0.0,0.0,0.0,0.0,0.0,0.0,0.0,0.0,0.0,0.0,0.0,0.0,0.0,0.0,0.0,0.0,0.0,0.0,0.0,0.0,0.0,0.0,0.0,0.0,0.0,0.0,0.0,0.0,0.0,0.0,0.0,0.0,0.0,0.0,8.5413,9.5861,10.4864,11.0783,11.1475,11.0788,10.9021,9.956,9.1558,0.0,0.0,0.0,0.0,0.0,0.0,0.0,0.0,0.0,0.0,0.0,0.0,0.0,0.0,0.0,0.0,0.0,0.0,0.0,0.0,0.0,0.0,0.0,0.0,0.0,0.0,0.0,0.0,0.0,0.0,0.0,0.0,0.0,0.0,0.0,0.0,0.0,0.0,0.0,0.0,0.0,0.0,0.0,0.0,0.0,0.0,0.0,0.0,0.0,0.0,0.0,0.0,0.0,0.0,0.0,0.0,0.0,0.0,0.0,0.0,0.0,0.0,0.0,0.0,0.0,0.0,0.0,0.0,0.0,0.0,0.0,0.0,0.0,0.0,0.0,0.0,0.0,0.0,0.0,0.0,0.0,0.0,0.0,0.0,0.0,0.0,0.0,0.0,0.0,0.0,0.0,0.0,0.0,0.0,0.0,0.0,0.0,0.0,0.0,0.0,0.0,0.0,0.0,0.0,9.6295,10.5328,11.0101,11.1093,11.0321,10.7403,10.0479,9.3172,8.5705,0.0,0.0,0.0,0.0,0.0,0.0,0.0,0.0,0.0,0.0,0.0,0.0,0.0,0.0,0.0,0.0,0.0,0.0,0.0,0.0,0.0,0.0,0.0,0.0,0.0,0.0,0.0,0.0,0.0,0.0,0.0,0.0,0.0,0.0,0.0,0.0,0.0,0.0,0.0,0.0,0.0,0.0,0.0,0.0,0.0,0.0,0.0,0.0,0.0,0.0,0.0,0.0,0.0,0.0,0.0,0.0,0.0,0.0,0.0,0.0,0.0,0.0,0.0,0.0,0.0,0.0,0.0,0.0,0.0,0.0,0.0,0.0,0.0,0.0,0.0,0.0,0.0,0.0,0.0,0.0,0.0,0.0,0.0,0.0,0.0,0.0,0.0,0.0,0.0,0.0,0.0,0.0,0.0,0.0,0.0,0.0,0.0,0.0,0.0,0.0,0.0,0.0,8.594,9.6711,10.5718,11.0175,11.0868,10.9865,10.7172,10.1092,9.3862,8.5397,0.0,0.0,0.0,0.0,0.0,0.0,0.0,0.0,0.0,0.0,0.0,0.0,0.0,0.0,0.0,0.0,0.0,0.0,0.0,0.0,0.0,0.0,0.0,0.0,0.0,0.0,0.0,0.0,0.0,0.0,0.0,0.0,0.0,0.0,0.0,0.0,0.0,0.0,0.0,0.0,0.0,0.0,0.0,0.0,0.0,0.0,0.0,0.0,0.0,0.0,0.0,0.0,0.0,0.0,0.0,0.0,0.0,0.0,0.0,0.0,0.0,0.0,0.0,0.0,0.0,0.0,0.0,0.0,0.0,0.0,0.0,0.0,0.0,0.0,0.0,0.0,0.0,0.0,0.0,0.0,0.0,0.0,0.0,0.0,0.0,0.0,0.0,0.0,0.0,0.0,0.0,0.0,0.0,0.0,0.0,0.0,0.0,0.0,0.0,0.0,0.0,0.0,8.6865,9.7252,10.5867,11.1016,11.0714,10.9485,10.7711,10.1402,9.3939,8.5551,0.0,0.0,0.0,0.0,0.0,0.0,0.0,0.0,0.0,0.0,0.0,0.0,0.0,0.0,0.0,0.0,0.0,0.0,0.0,0.0,0.0,0.0,0.0,0.0,0.0,0.0,0.0,0.0,0.0,0.0,0.0,0.0,0.0,0.0,0.0,0.0,0.0,0.0,0.0,0.0,0.0,0.0,0.0,0.0,0.0,0.0,0.0,0.0,0.0,0.0,0.0,0.0,0.0,0.0,0.0,0.0,0.0,0.0,0.0,0.0,6.5553,0.0,0.0,0.0,0.0,0.0,0.0,0.0,0.0,0.0,0.0,0.0,0.0,0.0,0.0,0.0,0.0,0.0,0.0,0.0,0.0,0.0,0.0,0.0,0.0,0.0,0.0,0.0,0.0,0.0,0.0,0.0,0.0,0.0,0.0,0.0,0.0,0.0,0.0,0.0,0.0,0.0,8.8626,9.8404,10.6562,11.1016,11.0714,10.9175,10.6864,10.1017,9.417,8.6322,0.0,0.0,0.0,0.0,0.0,0.0,0.0,0.0,0.0,0.0,0.0,0.0,0.0,0.0,0.0,0.0,0.0,0.0,0.0,0.0,0.0,0.0,0.0,0.0,0.0,0.0,0.0,0.0,0.0,0.0,0.0,0.0,0.0,0.0,0.0,0.0,0.0,0.0,0.0,0.0,0.0,0.0,0.0,0.0,0.0,0.0,0.0,0.0,0.0,0.0,0.0,0.0,0.0,0.0,0.0,0.0,0.0,0.0,0.0,0.0,0.0,6.8854,0.0,0.0,0.0,0.0,0.0,0.0,0.0,0.0,0.0,0.0,0.0,0.0,0.0,0.0,0.0,0.0,0.0,0.0,0.0,0.0,0.0,0.0,0.0,0.0,0.0,0.0,0.0,0.0,0.0,0.0,0.0,0.0,0.0,0.0,0.0,0.0,0.0,0.0,0.0,0.0,8.9628,9.8711,10.6328,11.1016,11.0326,10.8713,10.6631,10.0938,9.4634,8.7788,8.0941,0.0,0.0,0.0,0.0,0.0,0.0,0.0,0.0,0.0,0.0,0.0,0.0,0.0,0.0,0.0,0.0,0.0,0.0,0.0,0.0,0.0,0.0,0.0,0.0,0.0,0.0,0.0,0.0,0.0,0.0,0.0,0.0,0.0,0.0,0.0,0.0,0.0,0.0,0.0,0.0,0.0,0.0,0.0,0.0,0.0,0.0,0.0,0.0,0.0,0.0,0.0,0.0,0.0,0.0,0.0,8.2012,8.1402,8.2558,8.4709,7.9935,7.6857,7.4855,0.0,0.0,0.0,0.0,0.0,0.0,0.0,0.0,0.0,0.0,0.0,0.0,0.0,0.0,0.0,0.0,0.0,0.0,0.0,0.0,0.0,0.0,0.0,0.0,0.0,7.6784,7.6018,0.0,0.0,0.0,0.0,0.0,0.0,0.0,0.0,0.0,0.0,0.0,0.0,9.0477,9.8868,10.602,11.1016,11.0098,10.8403,10.6785,10.1399,9.5634,8.9716,8.3253,7.7249,0.0,0.0,0.0,0.0,0.0,0.0,0.0,0.0,0.0,0.0,0.0,0.0,0.0,0.0,0.0,0.0,0.0,0.0,0.0,0.0,0.0,0.0,0.0,0.0,0.0,0.0,0.0,0.0,0.0,0.0,0.0,0.0,6.0478,6.1327,0.0,0.0,0.0,0.0,0.0,0.0,0.0,0.0,0.0,0.0,0.0,0.0,0.0,0.0,7.7174,8.2635,8.5093,8.463,8.8479,9.0481,9.0866,9.1407,9.3097,9.548,9.548,0.0,8.0862,7.7788,0.0,0.0,0.0,0.0,0.0,0.0,0.0,0.0,0.0,0.0,0.0,0.0,0.0,0.0,0.0,0.0,0.0,0.0,0.0,0.0,0.0,0.0,7.8704,7.9086,7.986,8.0092,0.0,7.4013,6.9783,6.7093,0.0,0.0,0.0,0.0,0.0,0.0,0.0,0.0,9.1558,9.9716,10.6636,11.1016,11.0637,10.9408,10.7711,10.34,9.8247,9.2405,8.7015,8.1398,7.5553,7.2631,0.0,0.0,0.0,0.0,0.0,0.0,0.0,0.0,0.0,0.0,0.0,0.0,0.0,0.0,0.0,0.0,0.0,0.0,0.0,0.0,0.0,0.0,0.0,0.0,0.0,0.0,0.0,0.0,0.0,6.1553,6.4094,6.3554,6.4326,6.4171,0.0,0.0,0.0,0.0,0.0,0.0,0.0,0.0,0.0,7.8482,8.156,8.4174,8.6329,9.133,9.3869,9.4023,9.6865,9.8404,9.8945,9.9716,10.1022,10.2476,10.2864,10.0017,9.4559,8.7863,8.2941,7.9325,0.0,0.0,0.0,0.0,0.0,0.0,7.7632,0.0,0.0,0.0,0.0,0.0,0.0,0.0,0.0,0.0,0.0,0.0,0.0,0.0,0.0,8.5782,8.6861,8.7092,8.578,8.232,7.8013,0.0,7.1477,7.0397,6.8473,0.0,0.0,0.0,0.0,0.0,9.4326,10.1022,10.6713,11.1016,11.0329,10.879,10.7092,10.3097,9.8714,9.4177,8.863,8.3783,7.9708,7.5707,7.2246,0.0,0.0,0.0,0.0,0.0,0.0,0.0,0.0,0.0,0.0,0.0,0.0,0.0,0.0,0.0,0.0,0.0,0.0,0.0,0.0,0.0,0.0,0.0,0.0,0.0,0.0,0.0,0.0,6.5243,6.8092,6.6396,6.863,6.9015,0.0,0.0,0.0,0.0,0.0,0.0,7.7086,7.9321,8.2425,8.646,9.0268,9.3271,9.5454,9.9678,10.2135,10.2834,10.4439,10.567,10.6597,10.7214,10.7903,10.8736,10.8294,10.7624,10.6068,9.6657,9.0171,8.5792,8.2176,8.025,0.0,8.0483,8.1477,8.2702,8.4788,8.5711,8.5399,8.2633,0.0,7.7865,7.386,0.0,0.0,0.0,0.0,7.7859,8.3174,0.0,8.8169,9.1092,9.2482,9.2712,9.1169,8.9013,8.5476,0.0,7.7246,7.6092,7.3324,0.0,0.0,0.0,0.0,8.9244,9.6865,10.233,10.7021,11.1093,11.0096,10.8639,10.6864,10.302,9.9409,9.6179,9.0789,8.6555,8.402,7.9244,7.532,0.0,0.0,0.0,0.0,0.0,0.0,0.0,0.0,0.0,0.0,0.0,0.0,0.0,0.0,0.0,0.0,0.0,0.0,0.0,0.0,0.0,0.0,0.0,0.0,0.0,0.0,0.0,0.0,0.0,0.0,7.0783,7.5626,0.0,0.0,0.0,0.0,7.4088,7.6555,7.9865,8.4164,8.747,9.096,9.4623,9.9399,10.2495,10.3613,10.7724,10.9783,10.9863,11.1623,11.2776,11.3706,11.3703,11.4168,11.4988,11.3484,11.2322,11.0583,10.1121,9.5636,9.2792,8.856,8.6401,8.5782,8.6632,8.8015,8.9549,9.0475,8.9787,8.8714,9.0094,8.6709,8.1864,8.0862,7.8863,0.0,0.0,8.0629,8.271,8.6326,8.9094,9.14,9.3174,9.4256,9.464,9.3715,9.2172,8.9169,0.0,8.0706,7.9321,7.8252,0.0,0.0,8.171,8.7092,9.2785,9.8021,10.3171,10.7708,11.109,11.0716,10.9488,10.779,10.4482,10.1407,9.8793,9.4559,9.1022,8.8485,8.4251,8.0327,7.7019,7.2864,0.0,0.0,0.0,0.0,0.0,0.0,0.0,0.0,0.0,0.0,0.0,0.0,0.0,0.0,0.0,0.0,0.0,0.0,0.0,0.0,0.0,0.0,0.0,0.0,0.0,0.0,0.0,0.0,7.9858,8.3702,0.0,0.0,7.9712,8.0714,8.348,8.6096,8.965,9.4534,9.6984,9.9878,10.3491,10.6296,10.8828,11.073,11.2799,11.4094,11.4614,11.5226,11.5924,11.6628,11.6666,11.687,11.709,11.5981,11.483,11.3173,10.8703,10.417,9.987,9.6175,9.4172,9.3557,9.4405,9.5098,9.5711,9.6636,9.6562,9.5487,9.2249,8.7555,8.2945,8.2095,8.1635,8.1789,8.4093,8.6324,8.8784,9.2249,9.4634,9.6406,9.7564,9.8028,9.8026,9.7177,9.6095,9.4326,9.1101,8.7327,8.4247,8.2862,8.3322,8.4476,8.6175,9.1018,9.6326,10.1407,10.5638,10.8865,11.1167,11.0172,10.8528,10.6473,10.3477,10.0283,9.6839,9.3479,9.0787,8.8793,8.4559,8.1246,7.8936,7.5243,7.1551,0.0,0.0,0.0,0.0,0.0,0.0,0.0,0.0,0.0,0.0,0.0,0.0,0.0,0.0,0.0,0.0,0.0,0.0,0.0,0.0,0.0,0.0,0.0,0.0,0.0,0.0,8.5709,8.6859,9.1011,9.2165,8.8244,8.8404,8.987,9.2712,9.5557,9.9102,10.3461,10.5587,10.7825,11.0291,11.2177,11.3936,11.5286,11.6511,11.7266,11.7782,11.8088,11.8505,11.8963,11.9094,11.8921,11.8503,11.7484,11.6394,11.5281,11.3293,11.0715,10.7379,10.3385,10.149,10.1017,10.1635,10.1791,10.1789,10.2099,10.1873,10.0565,9.579,9.1328,8.7711,8.6867,8.7023,8.7869,8.9866,9.2018,9.4401,9.7245,9.925,10.0563,10.087,10.1181,10.1104,9.9865,9.8942,9.8098,9.7254,9.3482,8.9787,8.7784,8.863,8.9863,9.0716,9.5174,9.9865,10.3794,10.7334,10.9806,11.1026,10.9633,10.7682,10.5416,10.2288,9.9046,9.5653,9.2236,8.9558,8.7865,8.3708,8.0706,7.9013,7.532,7.1933,6.8854,0.0,0.0,0.0,0.0,0.0,0.0,0.0,0.0,0.0,0.0,0.0,0.0,0.0,0.0,0.0,0.0,0.0,0.0,0.0,0.0,0.0,0.0,0.0,7.7403,8.5632,9.1552,9.1631,9.7553,9.9707,9.4713,9.7254,9.9942,10.163,10.4767,10.7831,11.0473,11.3035,11.4535,11.4801,11.6976,11.7924,11.7296,11.8867,11.9688,11.9688,12.0607,12.0997,12.1025,12.0997,12.0476,11.9721,11.8212,11.7397,11.6991,11.4594,11.4397,11.5001,10.998,10.8034,10.7867,10.7867,10.7787,10.7713,10.6785,10.5405,10.3484,10.1104,9.8485,9.6247,9.541,9.5181,9.5333,9.6172,9.7634,9.9329,10.1017,10.271,10.3792,10.302,10.3407,10.3484,10.1784,10.0789,10.0409,10.1169,9.8707,9.5708,9.3172,9.4788,9.6172,9.5256,9.9483,0.0,10.5025,10.81,11.0306,11.0401,10.8978,10.7078,10.4707,10.1208,9.7987,9.5435,9.1074,8.7782,8.5985,8.2002,7.9013,7.7326,7.317,7.0629,6.9781,0.0,0.0,0.0,0.0,0.0,0.0,0.0,0.0,0.0,0.0,0.0,0.0,0.0,0.0,0.0,0.0,0.0,0.0,0.0,0.0,0.0,0.0,8.5705,8.5559,9.2563,9.8791,10.1861,10.6092,10.809,10.6708,10.8018,10.9637,11.1329,11.2424,11.3769,11.5909,11.6308,11.6714,11.7511,11.8233,11.8995,11.9975,12.1013,12.1918,12.2429,12.2737,12.3075,12.3488,12.2431,12.1825,12.1471,12.0463,11.9008,11.7282,11.6607,11.6093,11.5567,11.2725,11.1496,11.1324,11.1324,11.0637,10.9408,10.848,10.6713,10.472,10.4028,10.1563,9.9026,9.8795,9.8721,9.8872,9.9707,10.1173,10.2715,10.3792,10.5328,10.6636,10.6405,10.6018,10.5633,10.509,10.3866,10.2715,10.2325,10.202,10.0791,9.7637,9.8632,9.9632,9.8795,0.0,0.0,10.6787,10.9403,11.077,10.9735,10.8682,10.6704,10.3376,10.007,9.6328,0.0,8.8596,8.5499,8.251,8.0763,7.9013,7.7326,7.4322,7.2703,0.0,0.0,0.0,0.0,0.0,0.0,0.0,0.0,0.0,0.0,0.0,0.0,0.0,0.0,0.0,0.0,0.0,0.0,0.0,0.0,0.0,0.0,8.8556,9.4863,9.6943,10.1267,10.5872,11.0098,11.2709,11.4324,11.4632,11.5122,11.6008,11.7316,11.7505,11.8432,12.0201,11.9999,12.017,12.1212,12.118,12.1711,12.2608,12.3128,12.3579,12.4014,12.4014,12.4297,12.4621,12.3371,12.2599,0.0,12.1424,11.9922,11.79,11.7524,11.7204,0.0,0.0,0.0,0.0,0.0,11.2637,11.1719,11.0791,10.9329,10.7636,10.6485,10.4871,10.3102,10.2025,10.2178,10.2789,10.3323,10.4402,10.5792,10.6869,10.8026,10.8713,10.8713,10.8406,10.7787,10.7092,10.6174,10.5328,10.4787,0.0,0.0,10.2868,10.271,10.2635,10.1794,10.502,10.7631,0.0,11.0093,11.0767,10.9117,10.8112,10.6122,10.2374,9.9072,0.0,0.0,0.0,8.3039,7.8779,0.0,0.0,0.0,0.0,7.3699,0.0,0.0,0.0,0.0,6.9318,6.9013,0.0,0.0,0.0,0.0,0.0,0.0,0.0,0.0,0.0,0.0,0.0,0.0,0.0,0.0,0.0,0.0,9.641,10.353,10.9395,11.1008,11.2783,11.6402,11.7703,11.8569,11.9633,11.967,12.0077,12.0973,12.1122,12.1927,12.3601,0.0,0.0,0.0,0.0,12.5065,12.5065,12.5065,12.5134,12.5214,12.5065,12.5065,12.4986,12.4168,12.3276,12.2385,12.1721,12.0368,11.8792,11.8123,11.8029,11.818,11.5676,11.5086,11.5523,11.4394,11.3989,0.0,0.0,0.0,0.0,10.8782,10.7897,10.7405,10.5097,10.5636,10.6782,10.6782,10.748,10.8482,11.0027,11.0332,11.0332,11.0332,11.0334,10.9796,10.8329,10.7867,10.7787,10.7787,10.7787,10.7787,10.7787,10.6562,10.5336,10.4407,10.7021,0.0,10.9021,11.0435,11.0592,10.8473,0.0,0.0,10.1914,9.8365,9.5099,9.2296,8.6636,8.1236,7.6503,7.5079,7.4808,7.5701,7.4967,7.4967,7.5703,7.5626,7.5934,7.663,7.2476,7.14,0.0,0.0,0.0,0.0,0.0,0.0,0.0,0.0,0.0,0.0,0.0,0.0,0.0,0.0,0.0,9.6795,10.433,11.1216,11.6474,11.8575,11.9268,11.8722,12.0113,12.1612,12.2979,12.3201,12.3884,12.5385,12.4507,12.4607,12.6276,12.5786,0.0,12.6695,12.6689,12.6689,12.6689,12.6689,12.7066,12.7729,0.0,0.0,12.6689,12.5877,12.4688,12.3276,12.3122,12.2082,12.0596,12.0373,11.9606,11.8301,11.6775,11.6307,11.6125,11.4604,11.3693,11.317,11.3014,11.201,11.062,11.0081,10.9382,10.8639,10.81,10.8716,0.0,10.9488,11.0098,11.0783,11.1173,11.117,11.117,11.117,11.0714,11.0103,10.9796,10.9178,10.8713,10.8713,10.8713,10.8713,10.8713,10.8406,10.7867,10.7098,10.8716,10.987,10.987,11.0377,11.0107,10.8506,10.7729,10.6001,10.2678,9.9241,9.5937,9.2965,8.6769,8.2924,8.2328,8.0704,8.0529,8.185,8.1315,8.1309,8.1866,8.1171,8.0941,8.1018,7.748,7.6328,0.0,0.0,0.0,0.0,0.0,0.0,0.0,0.0,0.0,0.0,0.0,8.0479,0.0,0.0,9.8324,10.4792,11.1096,11.65,12.0105,12.1966,12.2819,12.1887,12.2587,12.3864,12.6012,12.5894,12.6384,12.8029,12.6729,12.6633,12.8188,12.7627,12.7586,12.8404,12.8484,12.8484,12.8484,12.8484,12.8701,12.8992,12.8621,12.8484,12.8404,12.7586,12.6466,12.5277,12.4906,12.3574,12.1721,12.1276,12.0507,11.9599,11.8505,11.7619,11.6593,11.5822,11.502,11.4303,11.3923,11.2902,11.1614,11.0767,11.0601,11.0711,11.0326,11.1098,11.2101,11.2101,11.2099,11.2093,11.2093,11.1785,11.1475,11.1475,11.1173,11.0714,11.0334,11.0175,11.0098,10.9637,10.9867,11.0172,11.0172,11.0172,10.9865,10.9098,11.0406,11.1168,11.0385,11.082,11.0491,10.8637,10.7773,10.6519,10.4081,10.0607,9.6731,9.2649,8.9222,8.6565,8.4551,8.3854,8.3606,8.3766,8.3565,8.3447,8.3561,8.3634,8.363,8.3555,8.2324,8.1248,0.0,0.0,0.0,0.0,0.0,0.0,0.0,0.0,7.6251,7.9942,8.4097,8.8637,9.3943,10.0173,10.648,11.2327,11.6929,12.0576,12.2599,12.4135,12.4983,12.5213,12.5174,12.6077,12.8409,12.8328,12.8571,12.9808,12.8726,12.8495,12.9938,12.9317,12.9295,13.0107,13.033,13.041,13.041,13.041,13.0484,13.0627,13.033,13.0187,13.0107,12.9295,12.8329,12.7135,12.6174,12.4465,12.2533,12.1721,12.1165,12.087,12.0031,11.8691,11.7309,11.7136,11.6395,11.5525,11.4765,11.3912,11.2835,11.1525,11.1904,11.2786,11.217,11.3016,11.4176,11.4019,11.3483,11.3019,11.3019,11.217,11.1475,11.1708,11.1629,11.1324,11.0562,11.1019,11.1324,11.0793,11.1329,11.1785,11.2019,11.2016,11.1711,11.0791,11.1788,11.2309,11.1099,11.1478,11.108,10.9266,10.8173,10.7031,10.5113,10.2033,9.8095,9.3467,9.2758,9.095,8.7342,8.7096,8.6661,8.5813,8.5526,8.5309,8.5136,8.5516,8.5785,8.5857,8.6397,8.5324,7.6245,7.3322,7.1783,7.4399,7.4628,7.6398,0.0,0.0,8.7096,9.2011,9.6396,10.0168,10.3179,10.8021,11.3327,11.8484,12.1137,12.3371,12.5979,12.6566,12.7111,12.7907,12.7896,12.8487,13.0169,13.1012,13.1536,13.1735,13.0912,13.0902,13.1818,13.1137,13.1004,13.1816,13.2485,13.2931,13.2931,13.2931,13.3302,13.3885,13.2485,13.1816,13.1816,13.1004,12.937,12.7061,12.5586,12.4311,12.3276,12.2533,12.1695,12.0973,12.0229,11.9309,11.8287,11.7433,11.6079,11.4928,11.4778,11.4129,11.3192,11.3036,11.3364,11.3791,11.3712,11.4409,11.5028,11.4176,11.3868,11.3868,11.3868,11.2711,11.1708,11.2401,11.2014,11.1478,11.1401,11.1401,11.1708,11.2324,11.2481,11.2786,11.3637,11.3712,11.3404,11.2634,11.2632,11.2687,11.2695,11.2336,11.1718,11.0768,10.9476,10.7465,10.4398,10.2964,10.1214,9.8458,9.6869,9.5681,9.4974,9.2918,9.1963,9.2263,9.0875,9.03,9.0678,8.931,8.8898,8.9316,8.8712,8.7404,8.0345,7.8631,7.8017,0.0,8.2014,8.4856,8.9789,9.2174,9.4557,9.925,10.3938,10.8172,11.1181,11.5105,11.9177,0.0,12.4687,12.6106,12.8705,12.8828,12.8836,12.9694,13.0188,13.0713,13.1387,13.2274,13.2977,13.3403,13.3227,13.2925,13.2776,13.2931,13.2702,13.2113,13.3296,13.3822,13.3302,13.3822,13.4194,13.4485,13.3816,13.3308,13.2782,13.2491,13.1004,12.8627,12.6918,12.5729,12.4917,12.3494,12.2831,12.239,12.1127,12.0378,11.9932,11.8535,11.6709,11.5009,11.5532,11.4619,11.3391,11.3835,11.43,11.4794,11.4794,11.5333,11.5874,11.5566,11.5102,11.4794,11.4794,11.3868,11.3016,11.3407,11.3173,11.3022,11.3022,11.3022,11.3099,11.3404,11.3483,11.3404,11.3327,11.3714,11.3868,11.3483,11.3868,11.359,11.1935,11.2276,11.2168,11.0596,10.9936,10.8925,10.6989,10.5907,10.3972,10.07,10.0571,9.9254,9.5887,9.5675,9.5008,9.3579,9.3191,9.2791,9.2373,9.1956,9.1861,9.2092,9.1791,9.1253,8.3332,8.3557,0.0,8.6023,8.9707,9.3627,9.5862,9.9096,10.2789,10.6564,11.0868,11.4712,11.7413,12.0724,12.3825,12.6277,12.7567,12.879,13.0505,12.9981,12.982,13.0369,13.042,13.0627,13.1272,13.2666,13.3886,13.4488,13.4485,13.4417,13.3965,13.4262,13.3971,13.2782,13.4114,13.4565,13.3971,13.4782,13.5228,13.5228,13.5011,13.4411,13.3593,13.2925,13.1599,12.9593,12.8181,12.6912,12.5877,12.4471,12.3717,12.3425,12.2019,12.127,12.0978,11.9688,11.7836,11.5671,11.6122,11.5403,11.4377,11.4971,11.5602,11.6025,11.6025,11.641,11.6797,11.6567,11.6108,11.5564,11.5564,11.4696,11.3777,11.4302,11.3996,11.3783,11.3994,11.4022,11.4102,11.433,11.4409,11.4176,11.3788,11.433,11.4561,11.4409,11.5138,11.4726,11.2171,11.2618,11.2435,11.0607,11.0179,10.9812,10.9,10.7797,10.58,10.2711,10.3129,10.14,9.691,9.7593,9.7006,9.4524,9.4627,9.4383,9.3702,9.3898,9.4107,9.4405,9.4177,9.4177,0.0,0.0,8.9254,9.2561,9.717,10.1782,10.5167,10.917,11.3019,11.5566,11.8179,12.0334,12.1337,12.4184,12.6616,12.6766,12.9606,13.1527,13.0828,13.0123,12.9726,12.9635,12.7512,12.7001,0.0,13.252,13.4527,13.4482,13.4485,13.4862,13.5686,13.4931,13.4491,13.4405,13.5308,13.568,13.568,13.6497,13.6863,13.6869,13.6126,13.5308,13.4411,13.2033,13.0484,12.9673,12.8775,12.7512,12.5872,12.5065,12.4322,12.342,12.2608,12.179,12.1127,12.0973,11.9481,11.7232,11.6494,11.6467,11.6886,11.6882,11.7288,11.7709,11.7709,11.7709,11.7635,11.672,11.6492,11.6492,11.6492,11.4819,11.34,11.4916,11.4114,11.318,11.3922,11.4022,11.4176,11.5105,11.5335,11.5489,11.6339,11.6413,11.6185,11.5412,11.6132,11.6101,11.4618,11.3304,11.2165,11.1377,11.0629,10.9812,10.9,10.7379,10.5967,10.5127,10.359,10.2038,10.0228,9.9232,9.8017,9.6556,9.5501,9.5237,9.5741,9.4939,9.5171,9.617,9.5331,9.5408,0.0,0.0,9.7253,10.1274,10.5701,10.9693,11.2566,11.5173,11.7579,11.9495,12.0106,12.0565,12.1414,12.3411,12.5496,12.7297,13.0031,13.2209,13.3026,13.2506,13.1188,12.9027,12.9009,0.0,0.0,0.0,0.0,13.4265,13.4485,13.4937,13.5834,13.5971,13.5594,13.4485,13.6417,13.6869,13.5828,13.7086,13.7531,13.7017,13.62,13.5302,13.4491,13.3073,13.1822,13.049,12.9593,12.8621,12.7432,12.5586,12.4614,12.4168,12.2831,12.2088,12.179,12.127,12.0601,11.9704,11.8277,11.7428,11.7189,11.8326,11.8663,11.8792,11.9331,11.91,11.8638,11.8333,11.8179,11.8103,11.7484,11.6823,11.62,11.6066,11.5673,11.5367,11.5607,11.572,11.5717,11.6028,11.6108,11.6028,11.572,11.6105,11.6262,11.5734,11.4992,11.4466,11.4678,11.3389,11.2403,11.2105,11.0922,11.0035,10.9733,10.8178,10.6608,10.528,10.5206,10.3933,10.1194,10.0671,9.9576,9.7487,9.7253,9.7052,9.6644,9.7129,9.7595,9.7944,9.7637,9.7716,0.0,9.9416,10.4624,10.8427,11.2299,11.5564,11.7284,11.9171,12.0663,12.1125,12.0663,12.0334,12.0177,12.0872,12.228,12.5322,12.7866,13.0411,13.2402,13.1971,13.0723,12.8612,12.8023,12.7132,0.0,0.0,0.0,13.2909,13.3525,13.4268,13.568,13.6578,13.6497,13.5377,13.7234,13.7686,13.672,13.7686,13.7829,13.7017,13.62,13.5302,13.4491,13.3674,13.2405,13.093,13.0416,12.9518,12.8169,12.61,12.5065,12.4614,12.2985,12.231,12.2231,12.1716,12.127,12.0899,11.9471,11.8862,11.9013,11.9994,11.9963,11.9705,12.0509,12.0071,11.9213,11.9072,11.9214,11.9024,11.8075,11.753,11.7095,11.712,11.6917,11.6883,11.772,11.7567,11.749,11.7798,11.7567,11.7336,11.6718,11.6876,11.6902,11.6724,11.529,11.4267,11.4413,11.3333,11.2477,11.2477,11.1288,11.0476,11.0476,10.899,10.7509,10.6093,10.632,10.5131,10.209,10.1932,10.0892,9.882,9.9124,9.9005,9.839,9.9341,9.9792,9.9712,9.9409,9.9406,10.1199,10.6808,11.1338,11.4129,11.7125,11.9436,11.9568,12.1266,12.2517,12.0774,12.0105,11.9331,0.0,0.0,11.7599,12.127,12.423,12.7,12.9673,12.9309,12.8633,0.0,0.0,0.0,0.0,0.0,0.0,13.0484,0.0,13.3234,13.568,13.6571,13.7011,13.7092,13.7829,13.8281,13.8281,13.82,13.7829,13.7017,13.62,13.5383,13.4485,13.3668,13.2485,13.0999,13.0924,12.9964,12.8318,12.6689,12.5586,12.4614,12.2979,12.231,12.231,12.231,12.179,12.1132,12.0309,12.0892,12.1995,12.1995,12.1395,12.0723,12.1493,12.0729,11.9619,11.9268,11.9392,11.9416,11.8372,11.7165,11.6485,11.7716,11.7583,11.7664,11.9776,11.9618,11.9411,12.018,11.9715,11.9091,11.9068,11.8463,11.8017,11.8119,11.6874,11.5517,11.3994,11.3076,11.2472,11.2477,11.1813,11.1293,11.1293,10.9886,10.8623,10.7722,10.6989,10.5419,10.2977,10.2824,10.2006,10.0529,10.1009,10.1076,10.0882,10.1482,10.1682,10.1397,10.0719,10.0714,10.6582,11.2583,11.733,11.8921,12.0818,12.2284,12.242,12.2274,12.1701,11.9904,11.5872,11.2409,0.0,0.0,0.0,12.1032,12.7024,0.0,13.5581,13.4771,0.0,13.1267,0.0,12.9363,12.68,12.7269,0.0,0.0,13.1079,13.2782,13.6497,13.6869,13.7315,13.7909,13.872,13.9092,13.9092,13.8497,13.7829,13.7017,13.6794,13.6274,13.5377,13.4565,13.3593,13.2633,13.137,13.033,12.9215,12.7586,12.6106,12.4694,12.3574,12.2825,12.231,12.231,12.2162,12.2019,12.1796,12.1461,12.1268,12.1889,12.1937,12.1782,12.2571,12.2066,12.1311,12.1284,12.1286,12.1207,12.0227,11.9789,11.9312,11.8382,11.8409,11.8803,11.9434,11.9288,11.9485,12.1029,12.0565,11.9596,11.8498,11.8227,11.8019,11.7517,11.6667,11.5771,11.4816,11.3973,11.3225,11.2631,11.1813,11.1293,11.1293,11.0407,10.9436,10.8623,10.8401,10.7435,10.5494,10.4314,10.32,10.2081,10.1896,10.1795,10.1798,10.2834,10.3298,10.3174,10.3022,10.3022,11.2686,11.7861,12.1673,12.2892,12.3518,12.3561,12.2175,12.067,11.8482,11.4169,10.9874,0.0,10.5333,10.818,0.0,0.0,0.0,0.0,13.5513,13.5509,13.4785,0.0,13.3833,0.0,12.9604,13.0187,13.1222,0.0,13.2193,13.3376,13.6788,13.7686,13.8281,13.872,13.9531,13.9835,13.9389,13.8572,13.7829,13.7017,13.7017,13.6571,13.5834,13.5308,13.4411,13.3222,0.0,13.1073,12.9593,12.8329,12.662,12.4694,12.3791,12.2974,12.231,12.231,12.231,12.231,12.231,12.1966,12.1601,12.252,12.2402,12.2205,12.2992,12.2485,12.1701,12.1902,12.177,12.1476,12.0891,12.0583,12.0193,11.9467,11.9703,12.0235,12.1296,12.1136,12.1127,12.1982,12.1793,12.0937,11.938,11.8908,11.8522,11.7921,11.7188,11.6414,11.5597,11.4488,11.3666,11.3596,11.2477,11.1962,11.2413,11.1293,11.0402,11.0035,10.9292,10.8326,10.6989,10.5721,10.469,10.3789,10.4093,10.3917,10.3228,10.4412,10.4636,10.3869,10.3869,10.3869,11.8764,12.2498,12.5104,12.6065,12.542,12.3617,12.0404,11.7685,11.3789,10.6427,0.0,10.1022,9.9488,10.2335,10.7209,11.4614,0.0,12.7721,13.3503,13.4603,13.527,13.6308,13.5508,13.4436,13.3019,13.2782,13.3376,13.4937,13.4405,13.5005,13.7234,13.8565,13.9463,13.9612,14.0429,14.0429,13.9612,13.8875,13.8132,13.7166,13.7315,13.6788,13.5983,13.5983,13.5005,13.3525,0.0,0.0,12.9593,12.8924,12.7135,12.4917,12.4088,12.3276,12.2533,12.2608,12.2533,12.231,12.2385,12.2385,12.2365,12.2978,12.2776,12.2307,12.2907,12.223,12.137,12.1879,12.1736,12.1223,12.1132,12.0717,12.0382,12.0913,12.1106,12.1823,12.3917,12.393,12.3373,12.3085,12.3098,12.2526,12.0816,12.0015,11.919,11.8477,11.787,11.7306,11.6494,11.5003,11.4265,11.4929,11.3671,11.3076,11.3671,11.2487,11.1511,11.1293,11.0035,10.8772,10.7797,10.6984,10.6172,10.5429,10.6423,10.6262,10.4805,10.6019,10.5882,10.4564,10.4564,10.4564,12.2474,12.5579,12.7737,12.7918,12.5765,12.2791,11.9582,11.4615,0.0,0.0,9.7695,9.5174,9.4869,9.9329,10.6178,11.5779,12.258,12.9574,13.8206,13.8265,13.8079,0.0,13.8532,13.7389,0.0,0.0,0.0,0.0,0.0,0.0,13.9024,13.9234,13.9686,14.051,14.1327,14.1327,14.051,14.0281,13.9463,13.7977,13.872,13.82,13.6794,13.6794,13.5903,13.4268,0.0,0.0,12.9667,12.9513,12.8032,12.5803,12.558,12.4608,12.3425,12.4094,12.3505,12.2385,12.3133,12.2905,12.2332,12.2413,12.2398,12.228,12.2428,12.2334,12.2078,12.2231,12.218,12.2125,12.2126,12.1983,12.1871,12.1992,12.2377,12.3064,12.4109,12.5191,12.5609,12.4237,12.3867,12.3183,12.1091,12.0091,11.9096,11.7775,11.7994,11.8123,11.7306,11.642,11.5602,11.5087,11.4706,11.4419,11.3819,11.3522,11.2784,11.1368,11.0991,11.0179,10.8693,10.7797,10.6984,10.6167,10.6223,10.6412,10.6732,10.7418,10.7788,10.8021,10.8021,10.8021,12.5665,12.8129,12.9834,13.0216,12.6918,12.2322,11.7522,0.0,0.0,0.0,9.2056,9.0017,9.0945,9.6716,10.3673,11.093,11.7764,12.53,13.3819,13.4607,13.5992,14.0194,14.0411,13.9991,0.0,0.0,0.0,0.0,0.0,0.0,14.0138,14.051,14.0875,14.1327,14.1327,14.1104,14.0733,14.0287,13.9612,13.8788,13.916,13.8794,13.76,13.7471,13.629,13.4275,0.0,0.0,13.0132,13.0132,12.8723,12.6615,12.6615,12.558,12.4168,12.4614,12.4322,12.3728,12.402,12.3871,12.3574,12.3574,12.2979,12.2385,12.2831,12.2899,12.2899,12.2899,12.2899,12.2899,12.2899,12.2899,12.3013,12.3528,12.3987,12.4579,12.4891,12.5881,12.6338,12.5024,12.4793,12.4075,12.177,12.1068,12.0336,11.8929,11.903,11.9099,11.8813,11.8367,11.7613,11.642,11.5528,11.478,11.4493,11.3968,11.3304,11.2036,11.1511,11.1001,11.0184,10.9282,10.8688,10.8317,10.8123,10.8097,10.8298,10.8527,10.8696,10.8867,10.8867,10.8867,12.8478,13.0404,13.1667,13.2033,12.7506,12.1372,11.5091,10.6886,0.0,9.102,8.7398,8.6094,8.779,9.3574,9.9835,10.5319,11.197,11.9595,12.8089,13.0501,13.3719,14.0014,14.1327,0.0,14.103,0.0,0.0,0.0,0.0,0.0,14.103,14.1624,14.1915,14.1915,14.1327,14.0924,14.0874,14.02,13.9828,13.9605,13.9605,13.911,13.8194,13.799,13.6705,13.4468,0.0,0.0,0.0,13.062,12.9174,12.7209,12.7438,12.6472,12.5065,12.5288,12.5065,12.4837,12.5214,12.5065,12.4763,12.4986,12.3871,12.2682,12.3271,12.3425,12.3197,12.3197,12.3425,12.3494,12.3494,12.3568,12.3969,12.4808,12.5295,12.5715,12.5769,12.6266,12.6492,12.5797,12.5397,12.4464,12.2573,12.1995,12.1281,12.0105,12.0007,12.0087,11.9938,12.0092,11.9635,11.8128,11.6563,11.5825,11.5825,11.4934,11.3968,11.3294,11.2408,11.1818,11.159,11.0773,11.0336,11.0295,11.0167,11.0133,11.0165,11.0118,11.0002,11.0021,11.0021,10.9867,13.093,13.2925,13.3816,13.2405,12.6695,11.9511,11.2799,0.0,9.4378,8.8226,8.527,8.4328,8.6015,8.9032,9.413,10.2789,10.8202,11.5336,12.6619,13.0886,13.4771,14.0076,14.0807,0.0,14.1692,14.1098,0.0,0.0,0.0,0.0,0.0,14.1921,14.1915,14.1915,14.1767,14.1734,14.1411,14.133,14.0885,14.0064,14.0064,13.9375,13.82,13.8176,13.7198,13.5569,0.0,0.0,0.0,13.0895,12.9421,12.7289,12.8026,12.7283,12.6031,12.6689,12.6106,12.4986,12.6472,12.6026,12.4911,12.5734,12.4768,12.342,12.3499,12.2979,12.2385,12.2385,12.2899,12.3494,12.3494,12.4094,12.4808,12.5513,12.5618,12.579,12.6533,12.6692,12.6723,12.6569,12.5391,12.4117,12.3263,12.2019,12.0773,12.0006,12.0527,12.0676,12.0012,12.0527,12.0686,11.9789,11.8797,11.8272,11.8272,11.6865,11.5889,11.5899,11.4414,11.3225,11.2403,11.1585,11.1131,11.0966,11.0974,11.1532,11.2737,11.2713,11.3011,11.3483,11.3483,11.3099,13.137,13.3965,13.5011,13.3816,12.7289,11.9322,11.2209,0.0,9.2582,8.737,8.4059,8.2785,8.4937,8.7584,9.1194,9.6628,10.0702,10.6478,11.5884,11.9172,12.4366,13.4304,13.5977,0.0,0.0,0.0,0.0,0.0,0.0,0.0,0.0,14.1689,14.1604,14.1423,14.1591,14.163,14.152,14.1687,14.1615,14.1238,14.1079,14.0163,13.8701,13.7774,13.6296,13.4301,0.0,0.0,0.0,13.0168,12.9535,12.8483,12.8774,12.8569,12.8181,12.8032,12.7506,12.6992,12.7135,12.6769,12.6323,12.6615,12.5872,12.4986,12.4986,12.4763,12.4465,12.4465,12.4768,12.4986,12.4986,12.5288,12.5377,12.5087,12.542,12.5673,12.6015,12.6418,12.6631,12.6137,12.5865,12.529,12.3631,12.3216,12.2709,12.1478,12.1567,12.1716,12.1419,12.1567,12.1716,12.1424,12.023,11.903,11.798,11.7672,11.7232,11.6271,11.5602,11.4934,11.3963,11.3225,11.2725,11.2475,11.2126,11.2467,11.3796,11.3271,11.3317,11.4022,11.4022,11.3791,13.0398,13.4079,13.5822,13.4491,12.7215,11.8569,11.1901,10.113,9.1218,8.698,8.3399,8.1783,8.4091,8.6234,8.8759,9.2113,9.5798,10.0869,10.8796,11.2085,11.7975,12.9267,0.0,13.4785,0.0,0.0,0.0,0.0,0.0,0.0,0.0,14.1465,14.1291,14.1332,14.1375,14.1488,14.1397,14.1501,14.1478,14.1478,14.1069,14.0203,13.8781,13.7735,13.6077,0.0,0.0,0.0,0.0,13.0026,12.959,12.9188,12.9188,12.933,12.9472,12.85,12.8272,12.8307,12.8027,12.7518,12.7289,12.7809,12.7215,12.6403,12.6403,12.6026,12.558,12.558,12.5803,12.6026,12.6026,12.5803,12.5514,12.4821,12.4966,12.5422,12.5571,12.6181,12.6488,12.5673,12.593,12.5498,12.3696,12.3702,12.3629,12.2487,12.231,12.231,12.231,12.2171,12.2202,12.2202,12.1103,12.0,11.8935,11.8871,11.8579,11.7688,11.7162,11.6483,11.5671,11.4711,11.4067,11.3893,11.3315,11.3736,11.5008,11.4709,11.4687,11.5096,11.5096,11.4793,12.771,13.3076,13.6423,13.3891,12.5872,11.7228,11.1683,10.0237,8.9879,8.6756,8.3399,8.1633,8.333,8.4546,8.6626,9.0558,9.5054,10.0567,10.8217,11.3602,11.9387,12.6426,13.0107,13.3376,13.6714,0.0,0.0,0.0,0.0,0.0,0.0,14.1173,14.1265,14.1896,14.1581,14.1304,14.1008,14.0728,14.0593,14.0593,13.9776,13.9113,13.859,13.7771,13.6872,0.0,0.0,0.0,0.0,13.0815,12.9633,12.89,12.89,12.9131,12.9173,12.8104,12.7971,12.8512,12.9092,12.8426,12.7512,12.9067,12.8472,12.7215,12.7215,12.61,12.4768,12.4768,12.5431,12.6026,12.6026,12.5431,12.4775,12.4592,12.4603,12.4675,12.5418,12.6181,12.6488,12.5673,12.5038,12.4327,12.3526,12.2838,12.2321,12.231,12.231,12.231,12.231,12.2103,12.2033,12.2033,12.1815,12.1792,12.2193,12.083,12.0235,12.0973,11.9471,11.8192,11.738,11.582,11.4882,11.4789,11.4807,11.5386,11.6773,11.7593,11.7882,11.7789,11.7789,11.6527,12.0593,12.4722,12.6472,12.4614,11.8723,11.1903,10.6565,9.7633,8.9637,8.6664,8.3862,8.2095,8.2633,8.4921,8.7628,9.0228,9.4747,9.9663,10.4671,11.121,11.8271,12.6297,13.4929,14.06,0.0,0.0,0.0,0.0,0.0,0.0,0.0,14.1536,14.0995,14.0988,14.0902,14.0808,14.0714,14.0815,14.0869,14.0869,13.9937,13.9006,13.8295,13.669,0.0,0.0,0.0,0.0,0.0,12.983,12.9495,12.9369,12.9369,12.9898,13.0568,12.967,12.9367,12.9499,12.9205,12.8409,12.7581,12.8184,12.7598,12.6716,12.6716,12.6582,12.6392,12.6392,12.6615,12.662,12.5511,12.4991,12.4468,12.3264,12.3837,12.4622,12.4765,12.541,12.5666,12.5022,12.4671,12.4188,12.2892,12.2871,12.3122,12.3122,12.2687,12.2533,12.2974,12.2914,12.2621,12.2108,12.2327,12.2008,12.1137,12.0994,12.0998,12.0787,12.0274,11.983,11.9099,11.798,11.7412,11.7333,11.7808,11.8362,11.9264,12.0137,12.0098,11.9485,11.8325,11.687,11.22,11.6875,11.8876,11.8097,11.3188,10.7516,10.3366,9.5653,8.8683,8.6155,8.3862,8.2402,8.2712,8.5326,8.8091,9.0361,9.4446,9.89,10.3633,11.0237,11.8295,12.8299,0.0,0.0,0.0,0.0,0.0,0.0,0.0,0.0,0.0,0.0,14.0768,14.0586,14.0579,14.0579,14.0579,14.0727,14.0533,14.0232,13.9621,13.873,13.7634,13.6416,0.0,0.0,0.0,0.0,0.0,12.9862,12.9897,12.9983,12.9983,13.0516,13.1023,13.0112,12.9904,13.0002,12.9485,12.8887,12.8311,12.8418,12.7497,12.6238,12.5868,12.6388,12.7096,12.7187,12.6992,12.6392,12.5134,12.462,12.4025,12.2608,12.3425,12.4479,12.4479,12.5325,12.5816,12.5064,12.4978,12.4681,12.3514,12.3728,12.402,12.402,12.3579,12.3425,12.3865,12.3725,12.3294,12.2776,12.262,12.2116,12.1078,12.1399,12.1417,12.1131,12.0989,12.0809,12.0234,11.9417,11.881,11.8525,11.8899,11.9518,12.0211,12.0875,12.0881,12.0276,11.8623,11.689,0.0,10.8904,11.2688,11.3117,10.8631,10.338,10.1087,9.3932,0.0,8.5162,8.3555,8.2635,8.3484,8.569,8.8293,9.0857,9.4145,9.8511,10.4563,11.1221,0.0,0.0,13.6813,0.0,0.0,0.0,0.0,0.0,0.0,0.0,0.0,0.0,14.0572,14.0632,14.0478,14.0478,14.0478,14.0292,13.9786,13.8971,13.8971,13.8237,13.6776,13.6702,0.0,0.0,0.0,0.0,0.0,13.0896,13.0609,13.0529,13.0529,13.0684,13.0795,12.9811,12.9666,13.0095,13.0101,12.9662,12.923,12.9414,12.7867,12.5879,12.5079,12.5772,12.6771,12.6999,12.6615,12.5877,12.4986,12.4168,12.3425,12.2533,12.3425,12.4466,12.4411,12.5627,12.6415,12.581,12.5625,12.5404,12.4831,12.4672,12.482,12.4763,12.4831,12.4815,12.4884,12.4382,12.4076,12.4076,12.2981,12.2166,12.2172,12.1786,12.161,12.1633,12.1633,12.1292,12.0724,11.9995,11.9426,11.8734,11.8802,11.9277,12.0035,12.0403,12.0623,12.0517,11.8734,11.6809,8.8763,0.0,10.0691,9.9743,9.8025,9.5908,0.0,8.9578,8.5973,8.4229,8.3559,0.0,0.0,0.0,0.0,0.0,0.0,9.9635,10.5575,0.0,0.0,13.9684,0.0,0.0,0.0,0.0,0.0,0.0,0.0,0.0,0.0,0.0,14.0484,14.0337,13.9662,13.9368,13.9368,13.9894,13.9786,13.8971,13.8971,13.8818,13.8384,13.781,0.0,0.0,0.0,0.0,13.2584,13.1703,13.1123,13.0529,13.0529,13.0488,13.0619,13.0328,13.0313,13.0275,12.9686,12.8995,12.8188,12.7005,12.6433,12.6108,12.5995,12.6132,12.6176,12.6312,12.662,12.662,12.5214,12.4614,12.4094,12.2602,12.3425,12.4321,12.3807,12.4435,12.4963,12.4867,12.4278,12.3835,12.3802,12.4167,12.4631,12.4815,12.4607,12.4923,12.6172,12.5299,12.4615,12.4615,12.4191,12.3708,12.3114,12.1828,12.1094,12.1299,12.1311,12.0973,12.049,12.0934,12.0814,11.9988,12.1127,12.2125,12.2784,12.2297,12.178,12.132,11.9432,11.7678,8.3691,8.8196,9.2597,9.2511,9.2132,9.1364,8.9905,8.7154,8.4557,8.3251,8.333,0.0,0.0,0.0,0.0,0.0,9.6918,0.0,0.0,0.0,13.3901,14.112,0.0,0.0,0.0,0.0,0.0,0.0,0.0,0.0,0.0,0.0,14.0312,14.0233,13.9412,13.8971,13.8971,13.9132,13.8912,13.8384,13.8384,13.8384,13.8391,13.8031,0.0,0.0,0.0,0.0,13.2872,13.2431,13.1637,13.0522,13.0896,13.0823,13.0529,13.0088,12.9929,12.9881,12.9201,12.8525,12.7673,12.6422,12.5936,12.5626,12.5393,12.548,12.5818,12.641,12.662,12.6392,12.5586,12.5065,12.4512,12.351,12.4091,12.4792,12.4322,12.4782,12.5332,12.5401,12.5023,12.4718,12.4769,12.5134,12.5532,12.6029,12.6011,12.6367,12.7613,12.6978,12.6379,12.5998,12.5404,12.4735,12.3916,12.2668,12.1926,12.1629,12.1273,12.1018,12.0837,12.1205,12.1325,12.1002,12.1806,12.2701,12.3825,12.2619,12.2007,12.2022,11.9777,11.7975,8.3248,8.5654,8.8246,8.9088,8.9187,8.888,8.8405,8.5944,8.3561,8.2712,8.3328,8.4328,0.0,8.8271,0.0,0.0,0.0,0.0,12.117,12.8376,13.4477,14.0296,0.0,0.0,0.0,0.0,0.0,0.0,0.0,0.0,0.0,0.0,0.0,14.0226,13.9412,13.8891,13.8825,13.8324,13.8031,13.8031,13.8104,13.8184,13.8184,13.8024,0.0,0.0,0.0,0.0,13.3092,13.3092,13.1991,13.0382,13.1196,13.0982,13.0095,12.9421,12.9121,12.9006,12.8518,12.8018,12.7389,12.6583,12.5931,12.5376,12.4563,12.4808,12.5597,12.6765,12.6582,12.5988,12.5914,12.54,12.483,12.4393,12.4898,12.5291,12.4968,12.5602,12.6172,12.6332,12.6314,12.6421,12.6611,12.6734,12.6932,12.7633,12.7898,12.8317,12.8902,12.8828,12.8372,12.7704,12.6708,12.569,12.4876,12.4062,12.3334,12.2533,12.1719,12.1307,12.13,12.1165,12.1264,12.1467,12.1467,12.2119,12.3375,12.2034,12.1706,12.2238,11.9832,11.8108,8.3234,8.7006,8.9637,8.7966,8.8145,8.8328,8.6848,8.5553,8.4476,8.3559,8.4634,8.6247,8.779,9.1054,9.5006,0.0,0.0,0.0,0.0,0.0,0.0,0.0,0.0,0.0,0.0,0.0,0.0,0.0,0.0,0.0,0.0,0.0,0.0,14.0226,13.9412,13.8685,13.8031,13.8531,13.8825,13.8818,13.9492,13.9786,13.9793,13.9118,13.8671,0.0,0.0,13.5528,13.3906,13.3906,13.2217,12.9568,13.0382,12.9801,12.8486,12.8326,12.8333,12.8192,12.7416,12.7093,12.691,12.6114,12.633,12.6796,12.5997,12.6007,12.6271,12.6495,12.6433,12.6217,12.5478,12.5176,12.5023,12.4237,12.4573,12.5016,12.4273,12.4793,12.5468,12.6228,12.6306,12.6414,12.7301,12.7821,12.7975,12.7671,12.8613,12.9429,12.9583,12.9271,12.9105,12.9038,12.8205,12.7378,12.6565,12.5763,12.5035,12.4221,12.3408,12.2612,12.2006,12.1271,12.0996,12.1025,12.1025,12.1106,12.1421,12.1105,12.0779,12.0393,11.9066,11.8476,8.3706,8.7048,9.0091,9.1322,9.1906,9.1561,8.9325,8.7863,8.6865,8.6408,8.7711,8.9556,9.1717,0.0,10.193,0.0,0.0,0.0,0.0,0.0,0.0,0.0,0.0,0.0,0.0,0.0,0.0,0.0,0.0,0.0,0.0,0.0,0.0,0.0,13.9412,13.8971,13.9132,13.8971,13.8825,13.8398,13.9199,13.9566,13.9485,13.9192,13.8831,13.8324,0.0,13.5221,13.3986,13.2731,13.1336,12.9935,12.9428,12.8987,12.8614,12.7819,12.7232,12.6804,12.643,12.6283,12.621,12.5769,12.5997,12.6391,12.6029,12.5888,12.598,12.598,12.6186,12.6321,12.5872,12.5798,12.5689,12.5183,12.5427,12.551,12.4996,12.5511,12.6206,12.6563,12.6887,12.7292,12.779,12.8518,12.8989,12.9102,12.9676,13.0402,13.1291,13.06,12.9929,12.9929,12.9201,12.8394,12.7592,12.7232,12.613,12.3995,12.3475,12.2888,12.2098,12.1725,12.1279,12.0912,12.0912,12.1106,12.1485,12.1106,12.1035,12.1131,11.9681,11.9068,8.4481,8.7266,9.0391,9.4159,0.0,9.4561,9.4018,0.0,0.0,0.0,0.0,0.0,0.0,10.2579,0.0,0.0,0.0,0.0,0.0,0.0,0.0,0.0,0.0,0.0,0.0,0.0,0.0,0.0,0.0,0.0,0.0,0.0,0.0,0.0,13.9632,13.9492,13.9933,13.9492,13.8978,13.8405,13.8978,13.9192,13.8971,13.8604,13.8024,13.7069,13.5514,13.4266,13.3399,13.1483,13.0609,13.0088,12.8706,12.818,12.832,12.7085,12.6204,12.5702,12.5702,12.5769,12.591,12.5776,12.5769,12.599,12.599,12.599,12.599,12.621,12.6428,12.6511,12.629,12.6216,12.6168,12.5974,12.6005,12.6023,12.6033,12.6497,12.6999,12.7366,12.8106,12.87,12.892,12.9575,13.0382,13.0969,13.119,13.1697,13.2798,13.177,13.0969,13.0823,13.0088,12.9281,12.84,12.8186,12.7011,12.4283,12.3995,12.3487,12.2686,12.2692,12.2166,12.1211,12.1211,12.1371,12.1811,12.1218,12.1235,12.18,12.0322,11.967,8.5476,8.8428,9.0941,9.3286,9.3848,0.0,10.0635,9.925,0.0,10.0799,0.0,0.0,0.0,11.1134,0.0,0.0,0.0,0.0,0.0,0.0,0.0,0.0,0.0,0.0,0.0,0.0,0.0,0.0,0.0,0.0,0.0,0.0,0.0,0.0,0.0,13.9786,13.9118,13.9786,14.008,14.0006,14.008,13.9706,13.8891,13.751,13.6322,13.5521,13.3826,13.2584,13.1863,13.1717,13.0676,12.9274,12.84,12.7232,12.591,12.5769,12.5696,12.5702,12.5702,12.621,12.6711,12.591,12.6204,12.6785,12.6785,12.6785,12.7005,12.7666,12.7404,12.6694,12.5893,12.5838,12.5672,12.5727,12.5727,12.5862,12.6718,12.6932,12.7286,12.8821,12.9795,13.0609,13.127,13.2071,13.2725,13.2718,13.3392,13.3612,13.3018,13.2798,13.2431,13.1717,13.0902,13.0088,12.9274,12.8473,12.7672,12.6705,12.591,12.5188,12.4368,12.4289,12.3561,12.2019,12.2025,12.1694,12.1025,12.0874,12.0874,12.1025,11.9993,12.0031,8.4739,8.834,9.2105,9.524,9.8098,0.0,0.0,10.4336,10.5337,10.8065,0.0,0.0,0.0,0.0,0.0,0.0,0.0,0.0,0.0,0.0,0.0,0.0,0.0,0.0,0.0,0.0,0.0,0.0,0.0,0.0,0.0,0.0,0.0,0.0,0.0,14.0086,13.9706,13.9999,14.0226,14.0226,13.9712,13.8971,13.8171,13.6622,13.5374,13.4493,13.2885,13.2004,13.1563,13.0602,13.0082,12.9935,12.862,12.7091,12.5702,12.5702,12.5702,12.5702,12.5702,12.5916,12.613,12.5769,12.6197,12.6925,12.6925,12.7219,12.7592,12.7372,12.7072,12.6779,12.6491,12.6137,12.5702,12.5702,12.6137,12.6491,12.6779,12.8106,12.9207,12.9274,13.0816,13.1777,13.1123,13.2518,13.3319,13.2291,13.2798,13.3239,13.2865,13.1991,13.1483,13.1717,13.0976,13.0382,13.0088,12.9274,12.8687,12.8387,12.7225,12.591,12.4595,12.4515,12.4001,12.29,12.2392,12.2031,12.1572,12.1132,12.0912,12.0912,12.0624,12.0624,8.4216,8.7365,9.1287,9.5284,0.0,0.0,10.7807,11.0109,11.247,11.6006,0.0,0.0,0.0,0.0,0.0,0.0,0.0,0.0,0.0,0.0,0.0,0.0,0.0,0.0,0.0,0.0,0.0,0.0,0.0,0.0,0.0,0.0,0.0,0.0,0.0,0.0,14.0226,14.0226,14.0226,14.0233,13.8905,13.8024,13.7377,13.5521,13.4119,13.3325,13.193,13.127,13.1196,12.9575,12.8907,12.892,12.8119,12.6865,12.5702,12.5702,12.5702,12.5702,12.5702,12.5702,12.5702,12.5702,12.6197,12.6919,12.7225,12.7806,12.8406,12.7806,12.7519,12.7299,12.7299,12.6718,12.6137,12.6137,12.6718,12.7292,12.7586,12.8987,13.0009,12.9708,13.1183,13.2217,13.1123,13.2664,13.3686,13.2591,13.3178,13.3606,13.3312,13.2071,13.1263,13.127,13.0823,13.0529,13.0529,12.9795,12.9201,12.8901,12.758,12.6418,12.5317,12.5029,12.4515,12.3701,12.3114,12.2612,12.2098,12.1499,12.1285,12.1291,12.0985,12.0979,8.4278,8.5677,8.8115,9.2668,0.0,0.0,11.4197,11.7033,11.918,12.4902,0.0,0.0,0.0,0.0,0.0,0.0,0.0,0.0,0.0,0.0,0.0,0.0,0.0,0.0,0.0,0.0,0.0,0.0,0.0,0.0,0.0,0.0,0.0,0.0,0.0,0.0,14.0226,14.0226,14.0233,14.008,13.7723,13.6629,13.6482,13.3973,13.2431,13.1637,13.0816,13.0529,13.0389,12.8773,12.7164,12.5769,12.6565,12.6418,12.5702,12.5702,12.5702,12.5702,12.5702,12.5702,12.5702,12.5702,12.6283,12.7085,12.7899,12.8694,12.9268,12.9268,12.8687,12.8113,12.8113,12.7519,12.6925,12.6925,12.7519,12.8326,12.9121,12.9268,12.9568,13.0302,13.1203,13.1717,13.1717,13.3025,13.4126,13.4133,13.478,13.5081,13.4206,13.3392,13.2284,13.0682,13.0529,13.0529,13.0529,12.9795,12.8987,12.8192,12.7378,12.6925,12.6925,12.613,12.5323,12.4509,12.4515,12.3708,12.2098,12.2098,12.2098,12.2098,12.1285,12.1279,8.5152,8.7755,0.0,9.689,0.0,0.0,0.0,11.9821,0.0,0.0,0.0,0.0,0.0,0.0,0.0,0.0,0.0,0.0,0.0,0.0,0.0,0.0,0.0,0.0,0.0,0.0,0.0,0.0,0.0,0.0,0.0,0.0,0.0,0.0,0.0,0.0,13.9419,13.9419,13.9125,13.8471,13.6622,13.6115,13.6482,13.3392,13.163,13.0823,13.0602,12.9875,12.8773,12.8333,12.7819,12.7391,12.7005,12.6418,12.5702,12.5702,12.5702,12.5702,12.5702,12.5702,12.5769,12.6424,12.7085,12.7892,12.8687,12.9121,12.9201,12.862,12.8333,12.7966,12.7372,12.788,12.8387,12.7892,12.8406,12.8981,12.9188,13.0229,13.0902,13.0609,13.1624,13.2217,13.1123,13.2664,13.3686,13.2598,13.3619,13.3986,13.2598,13.2224,13.171,13.0602,13.0529,13.0529,13.0529,12.9795,12.9415,12.9801,12.8033,12.6632,12.6137,12.5769,12.5629,12.5323,12.4809,12.4301,12.3787,12.3188,12.2888,12.2888,12.2668,12.2668,8.6578,8.9821,0.0,9.9933,10.7106,11.4767,12.2681,0.0,0.0,0.0,0.0,0.0,0.0,0.0,0.0,0.0,0.0,0.0,0.0,0.0,0.0,0.0,0.0,0.0,0.0,0.0,0.0,0.0,0.0,0.0,0.0,0.0,0.0,0.0,0.0,0.0,13.8531,13.8531,13.8324,13.7817,13.5521,13.4713,13.5087,13.2731,13.1123,13.0009,12.9721,12.8994,12.8119,12.7819,12.7592,12.7519,12.6711,12.613,12.5702,12.5702,12.5702,12.5702,12.5702,12.5702,12.5776,12.6283,12.7232,12.8186,12.8694,12.9281,12.9488,12.8406,12.8326,12.84,12.7592,12.8314,12.9201,12.8694,12.9207,12.9788,12.9788,13.0522,13.1123,13.0602,13.1336,13.1617,13.0682,13.2004,13.2885,13.2297,13.3025,13.3319,13.2291,13.163,13.0969,13.0609,13.0529,13.0529,13.0529,12.9795,12.9488,13.0009,12.8106,12.6711,12.6204,12.5923,12.5702,12.5702,12.5182,12.4809,12.4515,12.3995,12.3775,12.3775,12.3396,12.3475,8.8532,9.1867,9.5972,10.2872,10.9996,0.0,12.8113,13.4121,0.0,0.0,0.0,0.0,0.0,0.0,0.0,0.0,0.0,0.0,0.0,0.0,0.0,0.0,0.0,0.0,0.0,0.0,0.0,0.0,0.0,0.0,0.0,0.0,0.0,0.0,0.0,0.0,13.759,13.767,13.7517,0.0,13.4273,13.2798,13.2498,13.1703,13.0609,12.9121,12.8333,12.7972,12.8033,12.7232,12.6779,12.6779,12.599,12.5702,12.5702,12.5702,12.5702,12.5702,12.5702,12.5702,12.5696,12.5769,12.6797,12.7966,12.8119,12.9061,13.0021,12.848,12.8694,12.9121,12.8406,12.8761,12.9415,12.9415,13.0015,13.0529,13.0529,13.0529,13.0529,13.0529,13.0529,13.0529,13.0529,13.1203,13.2004,13.2878,13.2938,13.2872,13.2872,13.163,13.0602,13.0529,13.0529,13.0529,13.0529,12.9795,12.9268,12.9415,12.788,12.6999,12.7072,12.6204,12.5702,12.5702,12.5702,12.5323,12.4589,12.4589,12.4589,12.4589,12.3922,12.3922,9.1218,9.5257,10.0672,11.0901,12.1415,13.0467,13.5371,13.8931,14.0918,0.0,0.0,0.0,0.0,0.0,0.0,0.0,0.0,0.0,0.0,0.0,0.0,0.0,0.0,0.0,0.0,0.0,0.0,0.0,0.0,0.0,0.0,0.0,0.0,0.0,0.0,13.6696,13.5888,13.6475,13.5608,0.0,13.2872,13.1911,12.9996,12.9207,12.87,12.8333,12.6791,12.6865,12.7966,12.6577,12.6271,12.6779,12.599,12.5702,12.5702,12.5702,12.5702,12.5702,12.5702,12.5702,12.5769,12.6418,12.6932,12.7299,12.7892,12.8326,12.8473,12.8186,12.8694,12.9274,12.9128,12.9568,13.0229,13.0229,13.0382,13.0529,13.0529,13.0529,13.0529,13.0529,13.0529,13.0529,13.0529,13.1203,13.2224,13.3612,13.3312,13.2872,13.2872,13.1991,13.1196,13.0609,13.0529,13.0529,13.0529,12.9795,12.9568,13.0229,12.8694,12.8106,12.8834,12.6791,12.5702,12.5702,12.5702,12.5623,12.5402,12.5402,12.5402,12.5402,12.5335,12.5329,9.3595,9.8845,10.5616,11.8719,12.8386,13.5505,13.8332,14.091,14.2595,14.2129,0.0,0.0,0.0,0.0,0.0,0.0,0.0,0.0,0.0,0.0,0.0,0.0,0.0,0.0,0.0,0.0,0.0,0.0,0.0,0.0,0.0,13.8825,13.8171,13.7877,13.6989,13.5961,13.4787,13.4787,13.3766,13.1717,13.0976,12.9495,12.7599,12.7519,12.7519,12.7525,12.6204,12.643,12.7372,12.621,12.621,12.6779,12.599,12.5702,12.5702,12.5702,12.5702,12.5702,12.5702,12.5702,12.5763,12.6632,12.6925,12.7072,12.832,12.8694,12.8694,12.8694,12.9281,12.9788,12.9415,12.9935,13.0529,13.0529,13.0529,13.0529,13.0529,13.0529,13.0529,13.0529,13.0529,13.0529,13.0529,13.1483,13.2591,13.3392,13.3172,13.2872,13.2872,13.1924,13.0976,13.0522,13.0823,13.0896,13.0522,13.0529,13.0529,13.0529,12.9434,12.8914,12.9274,12.7666,12.6724,12.6283,12.6283,12.6137,12.5702,12.6137,12.6137,12.5696,12.6504,12.6424,9.512,10.2807,11.1911,12.5492,13.2734,13.6936,13.9305,14.1602,14.3398,14.4107,14.5226,0.0,0.0,0.0,0.0,0.0,0.0,0.0,0.0,0.0,0.0,0.0,0.0,0.0,0.0,0.0,0.0,0.0,0.0,0.0,13.8597,13.8531,13.7723,13.6188,13.6035,13.5234,13.3465,13.3025,13.2071,13.0823,12.87,12.7018,12.5696,12.6424,12.6711,12.6718,12.599,12.6137,12.6632,12.5996,12.6137,12.6632,12.5996,12.5702,12.5702,12.5702,12.5702,12.5702,12.5702,12.5769,12.599,12.6491,12.6932,12.7299,12.84,12.8907,12.9128,12.9128,12.9715,13.0235,12.9635,13.0009,13.0529,13.0529,13.0529,13.0529,13.0529,13.0529,13.0529,13.0529,13.0602,13.0676,13.0676,13.1917,13.2938,13.3092,13.2878,13.2798,13.3092,13.1703,13.0829,13.0896,13.149,13.1563,13.0829,13.127,13.1423,13.0609,12.9862,12.9488,12.9488,12.892,12.8113,12.7072,12.7078,12.6711,12.5916,12.6711,12.6718,12.591,12.7378,12.7305,9.4573,10.7893,12.1678,12.9604,13.4877,13.8469,14.0311,14.161,14.2419,0.0,14.479,0.0,0.0,0.0,0.0,0.0,0.0,0.0,0.0,0.0,0.0,0.0,0.0,0.0,0.0,0.0,0.0,0.0,0.0,0.0,13.6996,13.6329,13.5367,13.45,13.3832,13.2578,13.0969,13.1563,13.0389,12.7513,12.6504,12.5916,12.5702,12.5769,12.5923,12.5923,12.5696,12.5776,12.5923,12.5696,12.5776,12.5763,12.5696,12.5702,12.5702,12.5702,12.5702,12.5702,12.5702,12.621,12.6632,12.6063,12.6797,12.7672,12.6497,12.7164,12.8333,12.8333,12.8834,12.9568,13.0229,13.0382,13.0529,13.0529,13.0529,13.0529,13.0529,13.0529,13.0529,13.0529,13.1123,13.149,13.149,13.2291,13.3085,13.3826,13.2818,13.2371,13.3766,13.2511,13.1783,13.2504,13.2725,13.2431,13.1563,13.1637,13.1423,13.0609,13.0382,13.0302,13.0302,13.0229,12.9508,12.7966,12.7886,12.7519,12.6705,12.7519,12.7519,12.6791,12.7672,12.7599,9.9988,11.1433,12.189,13.0601,13.4877,13.7371,13.9111,14.0863,14.2012,14.139,14.3179,0.0,0.0,0.0,0.0,0.0,0.0,0.0,0.0,0.0,0.0,0.0,0.0,0.0,0.0,0.0,0.0,0.0,0.0,13.809,13.6028,13.5594,13.478,13.3465,13.2578,13.171,13.0529,13.0028,12.848,12.6204,12.5923,12.5702,12.5702,12.5702,12.5702,12.5702,12.5702,12.5702,12.5702,12.5702,12.5702,12.5702,12.5702,12.5702,12.5702,12.5702,12.5702,12.5702,12.5702,12.591,12.6197,12.6271,12.6497,12.6797,12.7018,12.7232,12.7519,12.7966,12.8694,12.9415,12.9708,13.0235,13.0529,13.0529,13.0529,13.0529,13.0529,13.0902,13.1263,13.1777,13.2064,13.2364,13.2364,13.3018,13.3686,13.3979,13.3472,13.3325,13.3979,13.3098,13.2504,13.2878,13.3312,13.3105,13.179,13.2077,13.177,13.0602,13.0529,13.0529,13.0529,13.0088,12.9495,12.8761,12.8767,12.818,12.6925,12.818,12.8406,12.7592,12.892,12.8773,10.2401,11.0914,11.8385,12.8283,13.289,13.5498,13.778,13.9998,14.1533,0.0,14.1763,0.0,0.0,0.0,0.0,0.0,0.0,0.0,0.0,0.0,0.0,0.0,0.0,0.0,0.0,0.0,0.0,0.0,0.0,13.6769,13.4567,13.4273,13.3606,13.2278,13.1263,13.0462,12.9868,12.8333,12.6871,12.5702,12.5702,12.5702,12.5702,12.5702,12.5702,12.5702,12.5702,12.5702,12.5702,12.5702,12.5702,12.5702,12.5702,12.5702,12.5702,12.5702,12.5702,12.5702,12.5702,12.5763,12.6063,12.6497,12.6504,12.651,12.7318,12.7225,12.6999,12.7592,12.8173,12.8828,12.9195,12.9708,13.0222,13.0535,13.0529,13.0529,13.0529,13.1116,13.1937,13.2511,13.2872,13.3165,13.3165,13.3906,13.4413,13.4413,13.42,13.4206,13.442,13.3679,13.3312,13.3532,13.4126,13.3766,13.2071,13.2584,13.2211,13.0602,13.0529,13.0529,13.0529,12.9929,12.9488,12.9268,12.9488,12.8901,12.7513,12.8901,12.9201,12.84,12.9788,12.9715,9.7148,10.4471,11.2391,12.1474,12.8076,13.3414,13.7512,13.9128,14.0214,14.179,14.1503,0.0,0.0,0.0,0.0,0.0,0.0,0.0,0.0,0.0,0.0,0.0,0.0,0.0,0.0,0.0,0.0,0.0,0.0,13.3612,13.201,13.1196,13.0676,13.0596,12.9061,12.8266,12.8186,12.6571,12.5776,12.5702,12.5702,12.5702,12.5702,12.5702,12.5702,12.5702,12.5702,12.5702,12.5702,12.5702,12.5702,12.5702,12.5702,12.5702,12.5702,12.5702,12.5702,12.5702,12.5702,12.6204,12.6711,12.599,12.6804,12.7672,12.629,12.6271,12.6925,12.7005,12.7005,12.7366,12.8901,12.9268,12.9575,13.0302,13.0529,13.0529,13.0529,13.1116,13.171,13.1797,13.3032,13.3979,13.3979,13.4794,13.5294,13.5294,13.4567,13.442,13.5221,13.4567,13.4426,13.5221,13.5294,13.4713,13.3018,13.2872,13.2211,13.0602,13.0529,13.0529,13.0529,13.0529,13.0088,12.9268,13.0002,13.0009,12.9201,13.0009,13.0009,12.9274,13.0082,13.0002,9.4373,10.0277,10.7236,11.6427,12.2963,12.8185,13.1765,13.5772,13.8668,13.8125,13.9028,13.9738,0.0,0.0,0.0,0.0,0.0,0.0,0.0,0.0,0.0,0.0,0.0,0.0,0.0,0.0,0.0,0.0,0.0,0.0,13.0309,12.9935,12.9501,12.8994,12.7886,12.7085,12.6583,12.5996,12.5702,12.5702,12.5702,12.5702,12.5702,12.5702,12.5702,12.5702,12.5702,12.5702,12.5702,12.5702,12.5702,12.5702,12.5702,12.5702,12.5702,12.5702,12.5702,12.5702,12.5702,12.5916,12.6137,12.5769,12.6063,12.651,12.5923,12.5916,12.613,12.613,12.6497,12.7225,12.8173,12.8907,12.9488,13.0302,13.0529,13.0529,13.0529,13.1116,13.1863,13.2364,13.3399,13.4126,13.4126,13.478,13.5367,13.5367,13.5074,13.5,13.5374,13.5074,13.5081,13.5374,13.4927,13.4119,13.3018,13.2431,13.171,13.0609,13.0529,13.0529,13.0529,13.0009,12.9782,13.0088,12.9782,12.9568,12.9268,13.0082,13.0088,12.9268,13.0082,13.0088,9.1422,9.645,10.2721,11.129,11.7068,12.1986,12.7003,13.1711,13.5001,13.4891,13.6628,13.8019,13.7633,0.0,0.0,0.0,0.0,0.0,0.0,0.0,0.0,0.0,0.0,0.0,0.0,0.0,0.0,0.0,0.0,0.0,12.8987,12.8607,12.81,12.7305,12.7005,12.6418,12.5329,12.5629,12.5629,12.5329,12.5329,12.5329,12.5329,12.5329,12.5329,12.5329,12.5629,12.5702,12.5702,12.5702,12.5702,12.5702,12.5702,12.5702,12.5702,12.5702,12.5702,12.5702,12.5702,12.5702,12.5702,12.5702,12.5702,12.5702,12.5702,12.5702,12.5702,12.5702,12.6137,12.6711,12.7819,12.8914,12.9782,13.0382,13.0529,13.0529,13.0529,13.1116,13.1937,13.2364,13.3399,13.4126,13.4126,13.478,13.5367,13.5367,13.5367,13.5367,13.5367,13.5367,13.5367,13.5367,13.4934,13.4126,13.3018,13.2431,13.1624,13.0609,13.0529,13.0602,13.0902,13.0082,13.0088,13.0902,13.0082,12.9715,12.9715,13.0229,13.0229,12.9708,13.0309,13.0229,0.0,0.0,0.0,10.5991,11.0477,11.5231,12.348,12.6682,12.8921,13.2386,13.4195,13.5566,13.6487,13.6634,13.6783,0.0,0.0,0.0,0.0,0.0,0.0,0.0,0.0,0.0,0.0,0.0,0.0,0.0,0.0,12.8119,12.7966,12.7299,12.6491,12.5696,12.6418,12.6124,12.4509,12.5329,12.5335,12.4515,12.4515,12.4515,12.4515,12.4515,12.4515,12.4515,12.5329,12.5623,12.5702,12.5702,12.5702,12.5702,12.5702,12.5702,12.5702,12.5702,12.5702,12.5702,12.5702,12.5702,12.5702,12.5702,12.5702,12.5702,12.5702,12.5702,12.5702,12.5702,12.5696,12.6063,12.7672,12.9281,13.0529,13.0529,13.0529,13.0529,13.0529,13.1123,13.1717,13.1717,13.2878,13.3979,13.4133,13.4787,13.5374,13.5367,13.5367,13.5367,13.5367,13.5367,13.5367,13.5367,13.5374,13.4707,13.3012,13.2872,13.2211,13.0596,13.0529,13.0902,13.1717,13.0896,13.0902,13.1637,13.0902,13.0529,13.0529,13.0529,13.0529,13.0529,13.0529,13.0529,8.6781,0.0,0.0,0.0,0.0,0.0,11.4097,11.7379,12.1014,12.6571,12.7692,12.9168,13.3913,13.4331,13.4413,13.5808,13.6636,0.0,0.0,0.0,0.0,0.0,0.0,0.0,0.0,0.0,0.0,0.0,12.7813,12.7011,12.643,12.6216,12.591,12.5702,12.5402,12.5029,12.4515,12.4735,12.4436,12.3622,12.4215,12.4215,12.3622,12.3622,12.3622,12.3622,12.3922,12.4295,12.4888,12.5482,12.5702,12.5702,12.5702,12.5702,12.5702,12.5702,12.5702,12.5702,12.5702,12.5702,12.5702,12.5702,12.5702,12.5702,12.5702,12.5702,12.5702,12.5702,12.613,12.6925,12.862,12.9715,13.0529,13.0529,13.0529,13.0529,13.0529,13.0682,13.0823,13.0823,13.1717,13.2511,13.3092,13.3899,13.4713,13.5294,13.5367,13.5367,13.5367,13.5367,13.5367,13.5367,13.478,13.3973,13.3018,13.2364,13.1777,13.1416,13.0823,13.0902,13.1717,13.0896,13.0602,13.0823,13.0602,13.0529,13.0529,13.0529,13.0229,12.9635,12.9635,12.9929,0.0,0.0,0.0,0.0,0.0,0.0,10.89,11.1527,11.4866,0.0,12.3564,12.5419,12.9792,13.1036,13.1764,13.3092,13.3679,13.442,0.0,0.0,0.0,0.0,0.0,0.0,0.0,12.8981,12.81,12.7592,12.6865,12.6204,12.5696,12.5702,12.547,12.5182,12.4729,12.4221,12.3487,12.3775,12.3628,12.282,12.3267,12.3273,12.282,12.282,12.282,12.2814,12.3475,12.3922,12.4068,12.5182,12.5702,12.5702,12.5702,12.5702,12.5702,12.5702,12.5702,12.5702,12.5702,12.5702,12.5702,12.5702,12.5702,12.5702,12.5702,12.591,12.613,12.5769,12.6497,12.7666,12.8981,13.0082,13.0896,13.0602,13.0829,13.0896,13.0609,13.0529,13.0529,13.0529,13.1116,13.1783,13.2291,13.3098,13.3906,13.4707,13.486,13.5007,13.5374,13.5367,13.5367,13.5367,13.4927,13.4273,13.3465,13.3032,13.2371,13.171,13.1276,13.1416,13.2224,13.1116,13.0816,13.1483,13.0816,13.0529,13.0529,13.0529,13.0309,12.9788,12.9495,12.9708,0.0,0.0,0.0,0.0,0.0,0.0,10.5906,10.7534,10.9693,11.6875,12.0067,12.2302,12.4626,12.6791,12.8461,12.9421,12.9721,13.0829,13.3472,0.0,0.0,0.0,0.0,0.0,12.8033,12.7219,12.6791,12.6791,12.5983,12.5623,12.5702,12.5476,12.5102,12.4509,12.4289,12.3487,12.2025,12.2827,12.2674,12.1805,12.2025,12.2105,12.2025,12.2025,12.2025,12.2105,12.3567,12.3775,12.3328,12.4888,12.5476,12.5482,12.5623,12.5623,12.5629,12.5702,12.5702,12.5702,12.5702,12.5702,12.5702,12.5702,12.5702,12.5702,12.5702,12.6283,12.6785,12.629,12.7018,12.8186,12.9201,13.0376,13.127,13.0596,13.0969,13.1423,13.0682,13.0529,13.0529,13.0529,13.1123,13.1563,13.1717,13.2291,13.3098,13.3986,13.4126,13.442,13.5294,13.5367,13.5367,13.5367,13.5367,13.5,13.4206,13.4126,13.3472,13.2084,13.179,13.2077,13.3018,13.1403,13.1183,13.2718,13.1336,13.0529,13.0382,13.0529,13.0529,13.0529,12.9788,12.9788,0.0,0.0,0.0,0.0,0.0,0.0,10.0436,10.073,10.2923,11.0214,11.1073,11.2729,11.9491,12.1217,12.2019,12.3493,12.4809,12.7232,13.157,13.0823,12.9708,0.0,0.0,0.0,12.7072,12.6424,12.591,12.591,12.5182,12.5029,12.5702,12.4515,12.3995,12.4515,12.3194,12.2092,12.1132,12.1866,12.1585,12.0116,12.1517,12.1805,12.1132,12.1132,12.1132,12.1211,12.2172,12.2466,12.2466,12.4081,12.4368,12.3922,12.5182,12.5329,12.4809,12.5482,12.5702,12.5702,12.5702,12.5702,12.5702,12.5702,12.5702,12.5702,12.5702,12.6283,12.7072,12.832,12.7886,12.7592,12.9715,13.0009,12.9935,13.0382,13.0602,13.0682,13.0522,13.0529,13.0529,13.0529,13.0602,13.0896,13.157,13.1783,13.2364,13.3913,13.4126,13.442,13.5294,13.5367,13.5367,13.5367,13.5367,13.5,13.4206,13.4126,13.3986,13.3699,13.2371,13.2377,13.3832,13.1703,13.0976,13.193,13.0969,13.0235,12.9488,13.0235,13.0529,13.0529,13.0302,13.0302,0.0,0.0,0.0,9.8107,0.0,0.0,0.0,9.8895,9.9612,10.6072,10.6468,10.7488,11.3215,11.453,11.5632,11.8128,12.0104,12.2674,12.643,12.7886,12.862,12.818,0.0,0.0,12.6271,12.591,12.5476,12.5102,12.4729,12.4515,12.4515,12.3695,12.3334,12.3267,12.2533,12.1725,12.0912,12.1285,12.1065,12.0336,12.1065,12.1285,12.0912,12.0912,12.0912,12.0912,12.1811,12.1884,12.1731,12.3708,12.3781,12.29,12.4888,12.5482,12.5102,12.5629,12.5702,12.5702,12.5702,12.5702,12.5702,12.5702,12.5702,12.5702,12.5702,12.6283,12.7225,12.84,12.8106,12.7892,12.9501,12.9935,13.0009,13.0382,13.0823,13.0976,13.0602,13.0529,13.0529,13.0529,13.0529,13.0602,13.0969,13.1123,13.1624,13.3319,13.3539,13.3979,13.5221,13.5367,13.5367,13.5367,13.5367,13.5221,13.4787,13.4707,13.4567,13.4126,13.3319,13.3105,13.3465,13.2004,13.1123,13.1123,13.0676,13.0309,12.9935,13.0309,13.0309,12.9935,13.0302,13.0529,0.0,0.0,0.0,0.0,0.0,9.9011,0.0,0.0,0.0,10.2468,10.3068,10.3591,10.6376,10.7629,0.0,11.1808,0.0,0.0,0.0,12.312,0.0,12.5677,0.0,0.0,0.0,12.4821,12.4601,12.4075,12.3634,12.3267,12.3114,12.282,12.2374,12.2098,12.1872,12.1511,12.0697,12.0765,12.0765,12.0697,12.0991,12.0979,12.0912,12.1065,12.0979,12.0912,12.1811,12.1725,12.1285,12.3561,12.3708,12.2833,12.4895,12.5623,12.5476,12.5623,12.5702,12.5702,12.5702,12.5702,12.5702,12.5702,12.5702,12.5696,12.5916,12.6283,12.6865,12.7813,12.7966,12.8113,12.9128,12.9788,13.0302,13.0529,13.0969,13.127,13.0596,13.0529,13.0529,13.0529,13.0529,13.0529,13.0529,13.0602,13.119,13.2725,13.3012,13.3679,13.5221,13.5367,13.5367,13.5367,13.5367,13.5367,13.5367,13.5367,13.5081,13.442,13.3973,13.3606,13.3172,13.2217,13.127,13.0522,13.0529,13.0382,13.0309,13.0382,13.0235,12.9488,13.0229,13.0529,0.0,0.0,0.0,0.0,10.3495,0.0,0.0,0.0,9.752,9.7618,0.0,0.0,0.0,0.0,0.0,0.0,0.0,0.0,11.1227,11.4231,11.7602,12.1211,12.0918,0.0,0.0,12.1426,12.1725,12.2313,12.0324,12.0031,12.2092,12.0771,12.0703,12.2105,12.1432,12.0618,11.9822,12.0471,12.0471,11.9822,12.1297,12.1585,12.0912,12.1572,12.1585,12.0912,12.1811,12.2019,12.2098,12.3781,12.4368,12.4295,12.5329,12.5335,12.4735,12.5402,12.5702,12.5702,12.5702,12.5702,12.5702,12.5702,12.5702,12.5763,12.6491,12.6271,12.6216,12.7678,12.7599,12.7366,12.8901,12.9421,12.9635,13.0302,13.0609,13.0602,13.0522,13.0529,13.0529,13.0529,13.0529,13.0529,13.0529,13.1123,13.193,13.2805,13.3539,13.4273,13.5301,13.5367,13.5367,13.5367,13.5367,13.5367,13.5367,13.5367,13.5374,13.5301,13.3906,13.3312,13.3899,13.2518,13.127,13.0522,13.0529,13.0082,12.9408,13.0162,13.0535,13.0382,13.0529,13.0529,0.0,0.0,0.0,0.0,0.0,0.0,0.0,0.0,9.6275,0.0,0.0,0.0,0.0,0.0,0.0,0.0,10.3293,0.0,0.0,0.0,11.1814,0.0,0.0,0.0,0.0,0.0,0.0,0.0,11.7908,11.7908,11.9811,11.967,12.019,12.1364,12.1065,12.0691,12.041,12.0691,12.0691,12.041,12.1065,12.1205,12.0912,12.1205,12.1511,12.1578,12.2031,12.2392,12.29,12.3995,12.4515,12.4589,12.5402,12.5476,12.5176,12.5629,12.5702,12.5702,12.5702,12.5702,12.5702,12.5702,12.5702,12.5923,12.6718,12.6718,12.6565,12.7825,12.7899,12.7892,12.8981,12.9268,12.9488,13.0302,13.0529,13.0602,13.1123,13.0823,13.0596,13.1123,13.0823,13.0596,13.1116,13.1496,13.201,13.2798,13.3612,13.442,13.5294,13.5367,13.5367,13.5367,13.5367,13.5367,13.5367,13.5367,13.5367,13.5367,13.3826,13.2798,13.2664,13.163,13.0823,13.0529,13.0529,13.0302,13.0009,13.0302,13.0529,13.0529,13.0529,13.0529,11.107,0.0,0.0,0.0,0.0,0.0,0.0,0.0,0.0,0.0,0.0,0.0,0.0,0.0,0.0,0.0,0.0,10.1531,0.0,10.3009,0.0,0.0,0.0,0.0,0.0,0.0,0.0,0.0,0.0,11.4965,11.7314,11.8201,11.9229,12.0471,12.0771,12.0912,12.0912,12.0697,12.0697,12.0912,12.0912,12.0985,12.1205,12.1505,12.1872,12.2386,12.2386,12.29,12.3701,12.4295,12.4589,12.4888,12.5482,12.5702,12.5702,12.5702,12.5702,12.5702,12.5702,12.5702,12.5702,12.5702,12.5702,12.5769,12.6424,12.6571,12.6711,12.7519,12.7892,12.8333,12.9128,12.9495,12.9788,13.0389,13.0529,13.0676,13.149,13.119,13.1123,13.193,13.1637,13.133,13.1924,13.1997,13.2297,13.3092,13.3899,13.4713,13.5294,13.5367,13.5367,13.5367,13.5367,13.5367,13.5367,13.5367,13.5294,13.5081,13.3539,13.2291,13.171,13.0896,13.0529,13.0529,13.0676,13.0823,13.0823,13.1123,13.1036,13.0823,13.0602,13.0602,0.0,0.0,0.0,0.0,0.0,0.0,0.0,0.0,9.8344,0.0,0.0,0.0,0.0,0.0,0.0,0.0,0.0,0.0,0.0,0.0,0.0,0.0,0.0,0.0,0.0,0.0,0.0,0.0,0.0,0.0,11.4666,11.5705,11.7179,11.9602,12.0483,12.0912,12.0912,12.0116,12.0116,12.0912,12.0912,12.1285,12.2098,12.29,12.3175,12.3334,12.3334,12.3695,12.4515,12.4515,12.4962,12.5702,12.5702,12.5702,12.5702,12.5702,12.5702,12.5702,12.5702,12.5702,12.5702,12.5702,12.5702,12.5702,12.5696,12.5696,12.5916,12.6711,12.7519,12.8333,12.9128,12.9862,13.0529,13.0529,13.0529,13.0676,13.149,13.1717,13.193,13.2725,13.2792,13.2792,13.2878,13.2878,13.3085,13.3899,13.4787,13.5374,13.5367,13.5367,13.5367,13.5367,13.5367,13.5367,13.5367,13.5367,13.5,13.42,13.2591,13.171,13.1717,13.0896,13.0529,13.0529,13.1276,13.1717,13.1717,13.2431,13.2431,13.1637,13.0902,13.0896,0.0,0.0,12.0125,11.3683,0.0,0.0,0.0,0.0,0.0,0.0,0.0,0.0,0.0,0.0,0.0,0.0,0.0,0.0,0.0,0.0,0.0,0.0,0.0,0.0,0.0,0.0,0.0,0.0,10.7398,0.0,0.0,11.4231,11.5773,11.7179,11.8483,11.9217,11.9217,11.9009,11.9223,12.0031,12.0031,12.0777,12.2098,12.2392,12.312,12.4068,12.4068,12.4595,12.5329,12.5329,12.5482,12.5702,12.5702,12.5702,12.5702,12.5702,12.5702,12.5702,12.5702,12.5702,12.5702,12.5702,12.5702,12.5769,12.6271,12.6497,12.6791,12.81,12.8687,12.9128,12.9862,13.0309,13.0529,13.0529,13.0529,13.0902,13.2211,13.2077,13.2077,13.3385,13.3319,13.3092,13.3612,13.3686,13.3832,13.4133,13.478,13.5367,13.5367,13.5367,13.5367,13.5367,13.5367,13.5367,13.5367,13.5367,13.478,13.3385,13.2805,13.1997,13.0896,13.1203,13.127,13.127,13.2077,13.2511,13.2511,13.2805,13.2805,13.2511,13.2211,13.1917,12.0178,12.1792,0.0,0.0,11.5035,0.0,0.0,0.0,0.0,0.0,0.0,0.0,0.0,0.0,0.0,0.0,0.0,0.0,0.0,8.9771,0.0,0.0,0.0,0.0,0.0,0.0,10.3004,10.4923,10.3723,0.0,0.0,0.0,11.3717,11.5123,11.732,11.8416,11.8416,11.8116,11.8483,11.9602,11.9602,12.0624,12.2527,12.2827,12.3714,12.4882,12.4882,12.5182,12.5702,12.5702,12.5702,12.5702,12.5702,12.5476,12.5329,12.5629,12.5702,12.5702,12.5702,12.5702,12.5702,12.5702,12.5702,12.5769,12.6271,12.6497,12.7011,12.9501,12.9495,12.9274,13.1263,13.111,13.0529,13.0529,13.0529,13.0902,13.2217,13.2291,13.2511,13.3826,13.3899,13.3979,13.4493,13.4567,13.4567,13.4567,13.5,13.5367,13.5367,13.5367,13.5367,13.5367,13.5367,13.5367,13.5367,13.5074,13.4707,13.4193,13.3385,13.2725,13.2291,13.2224,13.2511,13.3399,13.3399,13.3832,13.4567,13.4126,13.3599,13.3305,13.3599,13.3312]},{"header":{"parameterUnit":"m.s-1","parameterCategory":1,"la1":30.6,"la2":29.2853,"lo1":-89.7004,"lo2":-87.6739,"dy":0.0162,"dx":0.0183,"nx":112,"ny":82,"refTime":"2023-03-17T18:00:00:Z","depth":0,"parameterNumber":3,"parameterNumberName":"V-component_of_WINDS"},"data":[0.0,0.0,0.0,0.0,0.0,0.0,0.0,0.0,0.0,0.0,0.0,0.0,0.0,0.0,0.0,0.0,0.0,0.0,0.0,0.0,0.0,0.0,0.0,0.0,0.0,0.0,0.0,0.0,0.0,0.0,0.0,0.0,0.0,0.0,0.0,0.0,0.0,0.0,0.0,0.0,0.0,0.0,0.0,0.0,0.0,0.0,0.0,0.0,0.0,0.0,0.0,0.0,0.0,0.0,0.0,0.0,0.0,0.0,0.0,0.0,0.0,0.0,0.0,0.0,0.0,0.0,0.0,0.0,0.0,0.0,0.0,0.0,0.0,0.0,0.0,0.0,0.0,0.0,0.0,0.0,0.0,0.0,0.0,0.0,0.0,0.0,0.0,0.0,0.0,0.0,0.0,1.3187,1.6575,1.8654,1.8247,1.7772,1.6472,1.4063,0.0,0.0,0.0,0.0,0.0,0.0,0.0,0.0,0.0,0.0,0.0,0.0,0.0,0.0,0.0,0.0,0.0,0.0,0.0,0.0,0.0,0.0,0.0,0.0,0.0,0.0,0.0,0.0,0.0,0.0,0.0,0.0,0.0,0.0,0.0,0.0,0.0,0.0,0.0,0.0,0.0,0.0,0.0,0.0,0.0,0.0,0.0,0.0,0.0,0.0,0.0,0.0,0.0,0.0,0.0,0.0,0.0,0.0,0.0,0.0,0.0,0.0,0.0,0.0,0.0,0.0,0.0,0.0,0.0,0.0,0.0,0.0,0.0,0.0,0.0,0.0,0.0,0.0,0.0,0.0,0.0,0.0,0.0,0.0,0.0,0.0,0.0,0.0,0.0,0.0,0.0,0.0,0.0,0.0,0.0,0.0,0.0,0.0,0.0,0.0,0.0,0.0,0.0,0.0,1.2953,1.6446,1.8105,1.89,1.871,1.7718,1.632,1.4518,0.0,0.0,0.0,0.0,0.0,0.0,0.0,0.0,0.0,0.0,0.0,0.0,0.0,0.0,0.0,0.0,0.0,0.0,0.0,0.0,0.0,0.0,0.0,0.0,0.0,0.0,0.0,0.0,0.0,0.0,0.0,0.0,0.0,0.0,0.0,0.0,0.0,0.0,0.0,0.0,0.0,0.0,0.0,0.0,0.0,0.0,0.0,0.0,0.0,0.0,0.0,0.0,0.0,0.0,0.0,0.0,0.0,0.0,0.0,0.0,0.0,0.0,0.0,0.0,0.0,0.0,0.0,0.0,0.0,0.0,0.0,0.0,0.0,0.0,0.0,0.0,0.0,0.0,0.0,0.0,0.0,0.0,0.0,0.0,0.0,0.0,0.0,0.0,0.0,0.0,0.0,0.0,0.0,0.0,0.0,0.0,0.0,0.0,0.0,0.0,0.0,0.0,0.0,1.2858,1.4668,1.7892,1.883,1.9128,1.8927,1.7948,1.6524,1.4627,1.3604,0.0,0.0,0.0,0.0,0.0,0.0,0.0,0.0,0.0,0.0,0.0,0.0,0.0,0.0,0.0,0.0,0.0,0.0,0.0,0.0,0.0,0.0,0.0,0.0,0.0,0.0,0.0,0.0,0.0,0.0,0.0,0.0,0.0,0.0,0.0,0.0,0.0,0.0,0.0,0.0,0.0,0.0,0.0,0.0,0.0,0.0,0.0,0.0,0.0,0.0,0.0,0.0,0.0,0.0,0.0,0.0,0.0,0.0,0.0,0.0,0.0,0.0,0.0,0.0,0.0,0.0,0.0,0.0,0.0,0.0,0.0,0.0,0.0,0.0,0.0,0.0,0.0,0.0,0.0,0.0,0.0,0.0,0.0,0.0,0.0,0.0,0.0,0.0,0.0,0.0,0.0,0.0,0.0,0.0,0.0,0.0,0.0,0.0,0.0,0.0,0.0,0.0,1.425,1.6508,1.8654,1.9196,1.9288,1.9075,1.8002,1.6553,1.4722,1.3414,0.0,0.0,0.0,0.0,0.0,0.0,0.0,0.0,0.0,0.0,0.0,0.0,0.0,0.0,0.0,0.0,0.0,0.0,0.0,0.0,0.0,0.0,0.0,0.0,0.0,0.0,0.0,0.0,0.0,0.0,0.0,0.0,0.0,0.0,0.0,0.0,0.0,0.0,0.0,0.0,0.0,0.0,0.0,0.0,0.0,0.0,0.0,0.0,0.0,0.0,0.0,0.0,0.0,0.0,0.0,0.0,0.0,0.0,0.0,0.0,0.0,0.0,0.0,0.0,0.0,0.0,0.0,0.0,0.0,0.0,0.0,0.0,0.0,0.0,0.0,0.0,0.0,0.0,0.0,0.0,0.0,0.0,0.0,0.0,0.0,0.0,0.0,0.0,0.0,0.0,0.0,0.0,0.0,0.0,0.0,0.0,0.0,0.0,0.0,0.0,0.0,0.0,1.4408,1.7595,1.902,1.9303,1.9344,1.9196,1.7582,1.613,1.5027,1.3037,0.0,0.0,0.0,0.0,0.0,0.0,0.0,0.0,0.0,0.0,0.0,0.0,0.0,0.0,0.0,0.0,0.0,0.0,0.0,0.0,0.0,0.0,0.0,0.0,0.0,0.0,0.0,0.0,0.0,0.0,0.0,0.0,0.0,0.0,0.0,0.0,0.0,0.0,0.0,0.0,0.0,0.0,0.0,0.0,0.0,0.0,0.0,0.0,0.0,0.0,0.0,0.0,0.0,0.0,0.0,0.0,0.0,0.0,0.0,0.0,0.0,0.0,0.0,0.0,0.0,0.0,0.0,0.0,0.0,0.0,0.0,0.0,0.0,0.0,0.0,0.0,0.0,0.0,0.0,0.0,0.0,0.0,0.0,0.0,0.0,0.0,0.0,0.0,0.0,0.0,0.0,0.0,0.0,0.0,0.0,0.0,0.0,0.0,0.0,0.0,0.0,0.0,1.4881,1.7623,0.0,1.9427,1.9442,1.9101,1.7907,1.6512,1.49,0.0,0.0,0.0,0.0,0.0,0.0,0.0,0.0,0.0,0.0,0.0,0.0,0.0,0.0,0.0,0.0,0.0,0.0,0.0,0.0,0.0,0.0,0.0,0.0,0.0,0.0,0.0,0.0,0.0,0.0,0.0,0.0,0.0,0.0,0.0,0.0,0.0,0.0,0.0,0.0,0.0,0.0,0.0,0.0,0.0,0.0,0.0,0.0,0.0,0.0,0.0,0.0,0.0,0.0,0.0,0.0,0.0,0.0,0.0,0.0,0.0,0.0,0.0,0.0,0.0,0.0,0.0,0.0,0.0,0.0,0.0,0.0,0.0,0.0,0.0,0.0,0.0,0.0,0.0,0.0,0.0,0.0,0.0,0.0,0.0,0.0,0.0,0.0,0.0,0.0,0.0,0.0,0.0,0.0,0.0,0.0,0.0,0.0,0.0,0.0,0.0,0.0,1.2734,1.5436,1.7867,0.0,1.955,1.9538,1.9101,1.7948,1.6579,1.4954,0.0,0.0,0.0,0.0,0.0,0.0,0.0,0.0,0.0,0.0,0.0,0.0,0.0,0.0,0.0,0.0,0.0,0.0,0.0,0.0,0.0,0.0,0.0,0.0,0.0,0.0,0.0,0.0,0.0,0.0,0.0,0.0,0.0,0.0,0.0,0.0,0.0,0.0,0.0,0.0,0.0,0.0,0.0,0.0,0.0,0.0,0.0,0.0,0.0,0.0,0.0,0.0,0.0,0.0,0.0,0.0,0.0,0.0,0.0,0.0,0.0,0.0,0.0,0.0,0.0,0.0,0.0,0.0,0.0,0.0,0.0,0.0,0.0,0.0,0.0,0.0,0.0,0.0,0.0,0.0,0.0,0.0,0.0,0.0,0.0,0.0,0.0,0.0,0.0,0.0,0.0,0.0,0.0,0.0,0.0,0.0,0.0,0.0,0.0,0.0,0.0,0.0,1.3063,1.6001,1.8505,1.9581,1.9703,1.955,1.9223,1.7541,1.6131,0.0,0.0,0.0,0.0,0.0,0.0,0.0,0.0,0.0,0.0,0.0,0.0,0.0,0.0,0.0,0.0,0.0,0.0,0.0,0.0,0.0,0.0,0.0,0.0,0.0,0.0,0.0,0.0,0.0,0.0,0.0,0.0,0.0,0.0,0.0,0.0,0.0,0.0,0.0,0.0,0.0,0.0,0.0,0.0,0.0,0.0,0.0,0.0,0.0,0.0,0.0,0.0,0.0,0.0,0.0,0.0,0.0,0.0,0.0,0.0,0.0,0.0,0.0,0.0,0.0,0.0,0.0,0.0,0.0,0.0,0.0,0.0,0.0,0.0,0.0,0.0,0.0,0.0,0.0,0.0,0.0,0.0,0.0,0.0,0.0,0.0,0.0,0.0,0.0,0.0,0.0,0.0,0.0,0.0,0.0,0.0,0.0,0.0,0.0,0.0,0.0,0.0,0.0,0.0,1.6709,1.8572,1.9398,1.962,1.9499,1.8953,1.7731,1.6429,1.5136,0.0,0.0,0.0,0.0,0.0,0.0,0.0,0.0,0.0,0.0,0.0,0.0,0.0,0.0,0.0,0.0,0.0,0.0,0.0,0.0,0.0,0.0,0.0,0.0,0.0,0.0,0.0,0.0,0.0,0.0,0.0,0.0,0.0,0.0,0.0,0.0,0.0,0.0,0.0,0.0,0.0,0.0,0.0,0.0,0.0,0.0,0.0,0.0,0.0,0.0,0.0,0.0,0.0,0.0,0.0,0.0,0.0,0.0,0.0,0.0,0.0,0.0,0.0,0.0,0.0,0.0,0.0,0.0,0.0,0.0,0.0,0.0,0.0,0.0,0.0,0.0,0.0,0.0,0.0,0.0,0.0,0.0,0.0,0.0,0.0,0.0,0.0,0.0,0.0,0.0,0.0,0.0,0.0,0.0,0.0,0.0,0.0,0.0,0.0,0.0,0.0,0.0,1.5153,1.7053,1.8611,1.9427,1.9549,1.9388,1.8912,1.7854,1.6564,1.5082,0.0,0.0,0.0,0.0,0.0,0.0,0.0,0.0,0.0,0.0,0.0,0.0,0.0,0.0,0.0,0.0,0.0,0.0,0.0,0.0,0.0,0.0,0.0,0.0,0.0,0.0,0.0,0.0,0.0,0.0,0.0,0.0,0.0,0.0,0.0,0.0,0.0,0.0,0.0,0.0,0.0,0.0,0.0,0.0,0.0,0.0,0.0,0.0,0.0,0.0,0.0,0.0,0.0,0.0,0.0,0.0,0.0,0.0,0.0,0.0,0.0,0.0,0.0,0.0,0.0,0.0,0.0,0.0,0.0,0.0,0.0,0.0,0.0,0.0,0.0,0.0,0.0,0.0,0.0,0.0,0.0,0.0,0.0,0.0,0.0,0.0,0.0,0.0,0.0,0.0,0.0,0.0,0.0,0.0,0.0,0.0,0.0,0.0,0.0,0.0,0.0,0.0,1.5304,1.7134,1.8667,1.9606,1.9522,1.929,1.9007,1.7894,1.6577,1.5109,0.0,0.0,0.0,0.0,0.0,0.0,0.0,0.0,0.0,0.0,0.0,0.0,0.0,0.0,0.0,0.0,0.0,0.0,0.0,0.0,0.0,0.0,0.0,0.0,0.0,0.0,0.0,0.0,0.0,0.0,0.0,0.0,0.0,0.0,0.0,0.0,0.0,0.0,0.0,0.0,0.0,0.0,0.0,0.0,0.0,0.0,0.0,0.0,0.0,0.0,0.0,0.0,0.0,0.0,0.0,0.0,0.0,0.0,0.0,0.0,1.1549,0.0,0.0,0.0,0.0,0.0,0.0,0.0,0.0,0.0,0.0,0.0,0.0,0.0,0.0,0.0,0.0,0.0,0.0,0.0,0.0,0.0,0.0,0.0,0.0,0.0,0.0,0.0,0.0,0.0,0.0,0.0,0.0,0.0,0.0,0.0,0.0,0.0,0.0,0.0,0.0,0.0,1.5665,1.7351,1.8775,1.9606,1.9522,1.925,1.8858,1.7826,1.6618,1.5233,0.0,0.0,0.0,0.0,0.0,0.0,0.0,0.0,0.0,0.0,0.0,0.0,0.0,0.0,0.0,0.0,0.0,0.0,0.0,0.0,0.0,0.0,0.0,0.0,0.0,0.0,0.0,0.0,0.0,0.0,0.0,0.0,0.0,0.0,0.0,0.0,0.0,0.0,0.0,0.0,0.0,0.0,0.0,0.0,0.0,0.0,0.0,0.0,0.0,0.0,0.0,0.0,0.0,0.0,0.0,0.0,0.0,0.0,0.0,0.0,0.0,1.217,0.0,0.0,0.0,0.0,0.0,0.0,0.0,0.0,0.0,0.0,0.0,0.0,0.0,0.0,0.0,0.0,0.0,0.0,0.0,0.0,0.0,0.0,0.0,0.0,0.0,0.0,0.0,0.0,0.0,0.0,0.0,0.0,0.0,0.0,0.0,0.0,0.0,0.0,0.0,0.0,1.5829,1.7405,1.8749,1.9606,1.9469,1.9169,1.8832,1.7826,1.6686,1.5467,1.4261,0.0,0.0,0.0,0.0,0.0,0.0,0.0,0.0,0.0,0.0,0.0,0.0,0.0,0.0,0.0,0.0,0.0,0.0,0.0,0.0,0.0,0.0,0.0,0.0,0.0,0.0,0.0,0.0,0.0,0.0,0.0,0.0,0.0,0.0,0.0,0.0,0.0,0.0,0.0,0.0,0.0,0.0,0.0,0.0,0.0,0.0,0.0,0.0,0.0,0.0,0.0,0.0,0.0,0.0,0.0,1.4484,1.4342,1.4534,1.4936,1.4117,1.3574,1.3231,0.0,0.0,0.0,0.0,0.0,0.0,0.0,0.0,0.0,0.0,0.0,0.0,0.0,0.0,0.0,0.0,0.0,0.0,0.0,0.0,0.0,0.0,0.0,0.0,0.0,1.3539,1.3383,0.0,0.0,0.0,0.0,0.0,0.0,0.0,0.0,0.0,0.0,0.0,0.0,1.5966,1.7419,1.8694,1.9606,1.9413,1.913,1.8859,1.7908,1.6863,1.5782,1.4645,1.3599,0.0,0.0,0.0,0.0,0.0,0.0,0.0,0.0,0.0,0.0,0.0,0.0,0.0,0.0,0.0,0.0,0.0,0.0,0.0,0.0,0.0,0.0,0.0,0.0,0.0,0.0,0.0,0.0,0.0,0.0,0.0,0.0,1.0638,1.077,0.0,0.0,0.0,0.0,0.0,0.0,0.0,0.0,0.0,0.0,0.0,0.0,0.0,0.0,1.3575,1.4548,1.5004,1.4934,1.5601,1.5942,1.6009,1.6092,1.6402,1.6836,1.6836,0.0,1.4258,1.3694,0.0,0.0,0.0,0.0,0.0,0.0,0.0,0.0,0.0,0.0,0.0,0.0,0.0,0.0,0.0,0.0,0.0,0.0,0.0,0.0,0.0,0.0,1.39,1.3978,1.4093,1.4122,0.0,1.3061,1.2305,1.1811,0.0,0.0,0.0,0.0,0.0,0.0,0.0,0.0,1.6131,1.7555,1.8803,1.9606,1.9508,1.9276,1.9007,1.8261,1.7337,1.628,1.5355,1.4364,1.3322,1.2797,0.0,0.0,0.0,0.0,0.0,0.0,0.0,0.0,0.0,0.0,0.0,0.0,0.0,0.0,0.0,0.0,0.0,0.0,0.0,0.0,0.0,0.0,0.0,0.0,0.0,0.0,0.0,0.0,0.0,1.0836,1.1274,1.1188,1.1306,1.1288,0.0,0.0,0.0,0.0,0.0,0.0,0.0,0.0,0.0,1.3805,1.4347,1.4819,1.5198,1.6078,1.6525,1.6552,1.708,1.7351,1.7433,1.7555,1.7799,1.8098,1.8152,1.765,1.666,1.5493,1.4613,1.3976,0.0,0.0,0.0,0.0,0.0,0.0,1.3678,0.0,0.0,0.0,0.0,0.0,0.0,0.0,0.0,0.0,0.0,0.0,0.0,0.0,0.0,1.515,1.5328,1.5369,1.5161,1.4538,1.3767,0.0,1.2593,1.2423,1.2083,0.0,0.0,0.0,0.0,0.0,1.6632,1.7799,1.8816,1.9606,1.9454,1.9183,1.8913,1.8179,1.7392,1.6579,1.564,1.4785,1.4055,1.3349,1.2729,0.0,0.0,0.0,0.0,0.0,0.0,0.0,0.0,0.0,0.0,0.0,0.0,0.0,0.0,0.0,0.0,0.0,0.0,0.0,0.0,0.0,0.0,0.0,0.0,0.0,0.0,0.0,0.0,1.1504,1.1997,1.1717,1.2092,1.2159,0.0,0.0,0.0,0.0,0.0,0.0,1.3625,1.3998,1.4835,1.622,1.6247,1.6761,1.7853,1.8643,1.9103,1.919,1.9533,1.9749,1.9892,1.9992,2.0136,2.0353,2.1004,2.0768,1.9748,1.7356,1.59,1.5091,1.4455,1.4128,0.0,1.4157,1.4367,1.4618,1.4938,1.5101,1.507,1.4559,0.0,1.3708,1.3024,0.0,0.0,0.0,0.0,1.374,1.4642,0.0,1.5559,1.6075,1.6294,1.6335,1.6088,1.572,1.5084,0.0,1.362,1.3417,1.2919,0.0,0.0,0.0,0.0,1.5761,1.708,1.8029,1.8871,1.962,1.9428,1.9141,1.8858,1.8165,1.75,1.6918,1.5996,1.5262,1.4791,1.3984,1.3292,0.0,0.0,0.0,0.0,0.0,0.0,0.0,0.0,0.0,0.0,0.0,0.0,0.0,0.0,0.0,0.0,0.0,0.0,0.0,0.0,0.0,0.0,0.0,0.0,0.0,0.0,0.0,0.0,0.0,0.0,1.2481,1.3356,0.0,0.0,0.0,0.0,1.3084,1.3488,1.406,1.4876,1.5473,1.7231,2.0396,1.8857,1.93,2.2068,2.302,2.3476,2.3477,2.3838,2.4052,2.4185,2.4201,2.4267,2.454,2.6951,2.6432,2.3474,1.8999,1.685,1.6336,1.5591,1.5235,1.515,1.5276,1.5532,1.5828,1.5979,1.5832,1.5618,1.5886,1.5289,1.4423,1.4258,1.3895,0.0,0.0,1.4228,1.4572,1.521,1.571,1.6129,1.6416,1.658,1.6648,1.6498,1.6252,1.5735,0.0,1.4242,1.3998,1.3765,0.0,0.0,1.4396,1.5369,1.6374,1.727,1.8206,1.9022,1.9635,1.9507,1.9275,1.9006,1.8423,1.7866,1.7392,1.666,1.6024,1.5565,1.4832,1.4141,1.3559,1.2827,0.0,0.0,0.0,0.0,0.0,0.0,0.0,0.0,0.0,0.0,0.0,0.0,0.0,0.0,0.0,0.0,0.0,0.0,0.0,0.0,0.0,0.0,0.0,0.0,0.0,0.0,0.0,0.0,1.4104,1.4794,0.0,0.0,1.4033,1.4198,1.4708,1.5169,1.659,1.93,1.98,2.16,2.507,2.4754,2.525,2.6712,2.7129,2.7424,2.7599,2.773,2.6813,2.5089,2.7069,2.6881,2.5172,2.7928,2.8364,2.6909,2.5096,2.1697,1.7582,1.6945,1.6605,1.6497,1.6633,1.6755,1.6876,1.7026,1.6999,1.6797,1.6266,1.5438,1.459,1.4464,1.4372,1.4399,1.4828,1.5221,1.5668,1.6266,1.6686,1.6985,1.7162,1.723,1.7243,1.7108,1.6944,1.6632,1.6025,1.5386,1.4855,1.4611,1.4704,1.4907,1.5171,1.6049,1.6985,1.7866,1.8612,1.9211,1.9649,1.9442,1.9763,2.0953,1.9149,1.8374,1.9331,1.7365,1.6008,1.5619,1.4886,1.4326,1.393,1.3278,1.2626,0.0,0.0,0.0,0.0,0.0,0.0,0.0,0.0,0.0,0.0,0.0,0.0,0.0,0.0,0.0,0.0,0.0,0.0,0.0,0.0,0.0,0.0,0.0,0.0,0.0,0.0,1.5113,1.534,1.6086,1.629,1.5585,1.5576,1.5809,1.6335,1.6849,1.8745,2.2405,2.2925,2.5079,2.9391,2.8978,2.935,3.0672,3.093,3.113,3.1319,3.1383,3.0406,2.8561,3.0626,3.0357,2.8467,3.1222,3.1665,3.0385,2.996,2.6102,2.0386,1.9643,1.8724,1.7826,1.7921,1.7934,1.7948,1.7988,1.792,1.769,1.6877,1.6091,1.5454,1.5293,1.5308,1.5457,1.5833,1.6225,1.6659,1.7174,1.75,1.7704,1.7758,1.7798,1.7785,1.7609,1.7446,1.7284,1.7121,1.647,1.5832,1.5491,1.564,1.5845,1.5957,1.6768,1.7609,1.8273,1.8896,1.9717,2.0859,2.066,2.1282,2.334,2.0767,1.9449,2.0441,1.7629,1.5779,1.5481,1.476,1.4242,1.3943,1.3292,1.2704,1.217,0.0,0.0,0.0,0.0,0.0,0.0,0.0,0.0,0.0,0.0,0.0,0.0,0.0,0.0,0.0,0.0,0.0,0.0,0.0,0.0,0.0,0.0,0.0,1.3627,1.5099,1.6169,1.617,1.7229,1.7609,1.6687,1.7121,1.7623,1.7949,1.8606,2.0518,2.3986,2.4704,2.7596,3.3292,3.1309,3.1391,3.3946,3.4418,3.4673,3.4673,3.4869,3.4928,3.4829,3.4928,3.4759,3.4559,3.713,3.6593,3.3875,3.3164,2.9752,2.4854,2.3675,2.152,1.902,1.902,1.9021,1.8993,1.8859,1.8586,1.8232,1.7785,1.7338,1.6984,1.6783,1.673,1.677,1.6958,1.7216,1.75,1.7826,1.8125,1.8287,1.8165,1.8219,1.8232,1.7976,1.7772,1.7677,1.7867,1.7432,1.6889,1.6429,1.6714,1.6958,1.6756,1.7528,0.0,1.8489,1.9046,2.046,2.3199,2.3133,2.3784,2.6015,2.3177,2.1107,2.0707,1.7471,1.5503,1.5343,1.454,1.3943,1.3613,1.2892,1.2454,1.2314,0.0,0.0,0.0,0.0,0.0,0.0,0.0,0.0,0.0,0.0,0.0,0.0,0.0,0.0,0.0,0.0,0.0,0.0,0.0,0.0,0.0,0.0,1.5136,1.5062,1.6282,1.7406,1.7989,1.8737,1.9105,1.8845,1.9062,1.9332,1.963,2.1869,2.4637,2.7894,3.0164,3.314,3.7016,3.6536,3.6718,3.7774,3.8119,3.8367,3.8565,3.8625,3.7536,3.5592,3.7504,3.7082,3.4975,3.7783,3.8238,3.6961,3.6766,3.444,3.0527,2.5733,2.2131,1.9661,1.9661,1.9508,1.9276,1.9143,1.8816,1.8421,1.8299,1.788,1.7419,1.7379,1.7352,1.7392,1.7609,1.784,1.8097,1.8287,1.8572,1.8803,1.8762,1.8709,1.8641,1.8574,1.8314,1.8097,1.8057,1.7989,1.7758,1.7202,1.7405,1.7582,1.7379,0.0,0.0,1.8844,1.9306,2.053,2.295,2.3024,2.4374,2.8032,2.3924,2.2087,0.0,1.8693,1.6257,1.8375,1.5653,1.3943,1.3613,1.3105,1.284,0.0,0.0,0.0,0.0,0.0,0.0,0.0,0.0,0.0,0.0,0.0,0.0,0.0,0.0,0.0,0.0,0.0,0.0,0.0,0.0,0.0,0.0,1.5615,1.7181,1.8803,1.864,1.8638,1.9413,1.9905,2.0191,2.0245,2.1483,2.1845,2.0768,2.4725,2.8092,3.0074,3.2997,3.6078,3.9293,3.9392,3.9528,3.9801,3.997,4.0097,4.0276,4.0276,3.9396,3.7822,3.9213,3.8803,0.0,3.8631,3.8965,3.8361,3.8257,3.6428,0.0,0.0,0.0,0.0,0.0,1.9861,1.9668,1.9535,1.9278,1.8979,1.8761,1.8462,1.8151,1.7961,1.7988,1.8124,1.8248,1.8424,1.8639,1.8829,1.9018,1.9169,1.9169,1.9115,1.9021,1.8913,1.8721,1.8572,1.8491,0.0,0.0,1.8124,1.8125,1.8097,1.792,1.8518,1.9009,0.0,1.9443,2.0967,2.4331,2.4525,2.6152,3.0416,2.659,0.0,0.0,0.0,1.7781,1.8222,0.0,0.0,0.0,0.0,1.3037,0.0,0.0,0.0,0.0,1.2242,1.2169,0.0,0.0,0.0,0.0,0.0,0.0,0.0,0.0,0.0,0.0,0.0,0.0,0.0,0.0,0.0,0.0,1.6959,1.929,2.3424,2.1782,2.0379,2.1,2.1268,2.1307,2.1128,2.3889,2.4635,2.2063,2.7563,3.1213,3.1606,0.0,0.0,0.0,0.0,4.058,4.058,4.058,4.0621,4.0628,4.058,4.058,4.0573,4.0307,4.0018,3.9728,3.9495,3.911,3.8651,3.8434,3.6667,3.3696,2.9798,2.6619,2.3897,2.1121,2.0292,0.0,0.0,0.0,0.0,1.9671,1.9298,1.8938,1.8531,1.8626,1.8874,1.8874,1.8967,1.9128,1.937,1.9439,1.9439,1.9439,1.9424,1.9329,1.9101,1.902,1.9021,1.9021,1.9021,1.9021,1.9021,1.8775,1.8529,1.8395,1.8871,0.0,1.9223,1.9752,2.1873,2.6402,0.0,0.0,3.2699,2.9912,2.6891,2.4407,2.2582,2.0043,1.6589,1.4998,1.3928,1.338,1.3493,1.3493,1.337,1.3356,1.3411,1.3512,1.2779,1.258,0.0,0.0,0.0,0.0,0.0,0.0,0.0,0.0,0.0,0.0,0.0,0.0,0.0,0.0,0.0,1.7027,1.8382,2.0691,2.4691,2.4951,2.4689,2.4627,2.4847,2.4138,2.1944,2.4559,2.6279,2.5973,3.153,3.5088,3.5502,3.8288,0.0,4.1127,4.1145,4.1145,4.1145,4.1145,4.1248,4.1483,0.0,0.0,4.1145,4.0862,4.0476,4.0018,3.9986,3.9648,3.9166,3.9093,3.7121,3.3556,2.7968,2.396,2.1212,2.0401,2.1473,2.3314,2.3298,2.3139,2.2915,2.2819,2.1138,1.9141,1.9046,1.9154,0.0,1.9275,1.9413,1.9581,1.9618,1.9634,1.9634,1.9634,1.9522,1.9383,1.9329,1.9236,1.9169,1.9169,1.9169,1.9169,1.9169,1.9115,1.902,1.8884,1.9154,1.9358,1.9358,2.1346,2.3828,2.6598,2.8693,3.0818,3.313,3.0252,2.8489,2.8866,2.6955,2.3436,1.811,2.0239,1.931,1.4501,1.6082,1.6116,1.4412,1.4301,1.4261,1.4274,1.364,1.3426,0.0,0.0,0.0,0.0,0.0,0.0,0.0,0.0,0.0,0.0,0.0,1.4179,0.0,0.0,1.7351,1.8463,1.9605,2.2184,2.7453,2.8421,2.8549,2.842,2.8513,2.8187,2.7162,2.9807,3.1109,2.9944,3.5331,3.8187,3.706,3.9744,4.1417,4.1682,4.1689,4.1689,4.1689,4.1689,4.1779,4.1893,4.1772,4.1689,4.1682,4.1417,4.1072,4.0686,4.0565,4.0114,3.9495,3.935,3.7382,3.4136,3.1027,2.7797,2.4882,2.4751,2.5499,2.6537,2.6448,2.5304,2.3883,2.3734,2.1827,1.9537,1.9469,1.959,1.9751,1.9751,1.9766,1.9797,1.9797,1.9742,1.9703,1.9703,1.9618,1.9522,1.9424,1.9427,1.9413,1.9332,1.9373,1.9442,1.9442,1.9442,1.9388,1.9237,1.9468,2.0087,2.1301,2.272,2.4986,2.8618,3.0015,3.1552,3.3614,2.9503,2.7723,2.9866,2.5847,2.2854,2.1596,2.2407,2.087,1.6579,1.756,1.6977,1.4699,1.4735,1.4758,1.4733,1.4516,1.4315,0.0,0.0,0.0,0.0,0.0,0.0,0.0,0.0,1.3413,1.4074,1.4805,1.5604,1.6552,1.7663,1.879,1.9822,2.1161,2.4138,3.0142,3.1725,3.2505,3.3167,3.27,3.2331,3.2351,3.5118,3.5996,3.3816,3.8551,4.063,3.8586,4.0619,4.1972,4.2255,4.2327,4.2333,4.2333,4.2333,4.2358,4.2424,4.2327,4.2261,4.2255,4.1972,4.1658,4.1289,4.0959,4.0404,3.9777,3.9495,3.7895,3.5642,3.5448,3.3614,3.097,2.9766,2.951,2.9759,2.958,2.7512,2.4886,2.4661,2.2481,1.9919,1.981,1.996,2.0132,2.0121,2.001,1.9944,1.9944,1.981,1.9703,1.9729,1.973,1.9661,1.948,1.9591,1.9661,1.952,1.963,1.9742,1.9768,1.9783,1.9713,1.9535,1.9727,2.0799,2.3298,2.4141,2.6252,3.0768,3.1465,3.2292,3.3979,2.9634,2.7781,3.013,2.5099,2.3059,2.5316,2.3886,2.1858,1.9356,1.9206,1.7999,1.5647,1.5741,1.5573,1.5175,1.5258,1.5045,1.3444,1.2929,1.2657,1.3119,1.3169,1.3482,0.0,0.0,1.5345,1.6263,1.7038,1.7691,1.8164,1.9047,1.9999,2.0892,2.3718,2.7174,3.1118,3.4154,3.7125,4.0156,3.8055,3.5425,3.304,3.5967,3.7853,3.7444,4.0493,4.2335,4.2294,4.2372,4.2526,4.281,4.3027,4.3172,4.3172,4.3172,4.3292,4.3522,4.3027,4.281,4.281,4.2526,4.1996,4.1265,4.0748,4.0372,4.0018,3.9777,3.9321,3.876,3.8522,3.8066,3.6888,3.1415,3.073,3.2565,3.2523,3.0464,2.7829,2.7807,2.429,2.0064,2.0066,2.0157,2.025,2.0132,2.0078,2.0078,2.0078,1.989,1.9729,1.9851,1.9798,1.9688,1.9674,1.9674,1.9729,1.9837,1.9849,1.9919,2.0037,2.0066,2.0012,1.9876,1.9892,2.0901,2.3681,2.6032,2.8567,3.1485,3.365,3.4577,3.3905,3.3005,3.2323,3.1961,3.0775,2.9338,2.7612,2.6562,2.5045,2.2964,2.2395,2.1107,1.9042,1.8716,1.7607,1.5799,1.563,1.5399,1.4484,1.3865,1.3746,0.0,1.4473,1.4998,1.582,1.624,1.6673,1.75,1.8356,1.9089,1.9573,2.0264,2.1014,0.0,2.4696,2.8192,3.181,3.5066,3.7628,3.913,3.8293,3.7887,3.8646,3.8398,3.9055,4.1163,4.2506,4.319,4.3142,4.3172,4.3117,4.2906,4.3311,4.3461,4.3292,4.3461,4.3582,4.3697,4.348,4.3274,4.3123,4.3009,4.2526,4.1755,4.12,4.0814,4.0531,4.0107,3.9873,3.9712,3.9302,3.9077,3.8679,3.5816,3.5108,3.5591,3.5753,3.2511,2.8321,2.8481,2.4768,2.0225,2.0225,2.032,2.0399,2.0345,2.0279,2.0225,2.0225,2.0078,1.996,1.9997,1.9971,1.9929,1.9929,1.9929,1.9942,2.0012,2.001,2.0012,1.9999,2.0051,2.0078,2.001,2.0078,2.1598,2.5682,2.7295,2.963,3.373,3.5059,3.5392,3.4779,3.3027,3.2144,3.2644,3.1243,3.0212,2.9731,2.9622,2.8326,2.565,2.4074,2.2117,1.9713,1.8252,1.709,1.6251,1.6159,1.6065,1.5092,1.4722,0.0,1.5132,1.583,1.6548,1.6917,1.7473,1.8124,1.876,1.9549,2.0243,2.067,2.1236,2.2095,2.3457,2.6607,3.0122,3.3618,3.6754,3.8435,3.7671,3.7494,3.8461,4.1174,3.9554,3.9838,4.3434,4.3697,4.3654,4.3528,4.3624,4.351,4.3123,4.3576,4.3703,4.351,4.3793,4.3938,4.3938,4.3847,4.3673,4.3407,4.319,4.2719,4.2068,4.161,4.1217,4.0862,4.0387,4.0179,4.0066,3.9591,3.9367,3.9254,3.8925,3.8305,3.7636,3.7765,3.3739,2.8567,2.8766,2.5034,2.0442,2.0442,2.051,2.0562,2.0521,2.0424,2.0361,2.0361,2.0773,2.1023,2.0315,2.0694,2.0992,2.0261,2.0105,2.0103,2.0159,2.0157,2.0132,2.008,2.0159,2.02,2.0157,2.0966,2.3113,2.7399,2.9453,3.1909,3.5522,3.5832,3.5697,3.5416,3.3262,3.2315,3.328,3.1699,3.0941,3.1415,3.1078,3.0078,2.8308,2.5965,2.3505,2.0948,1.9291,1.7827,1.6633,1.6579,1.6579,0.0,0.0,1.57,1.6295,1.7147,1.799,1.8588,1.928,1.9944,2.0345,2.0822,2.1201,2.1361,2.1862,2.3342,2.662,3.0406,3.4034,3.7206,4.0132,4.0883,3.7958,3.6582,3.638,0.0,3.8391,4.0148,4.3453,4.3697,4.3799,4.4046,4.3842,4.3678,4.3691,4.3944,4.4065,4.4065,4.433,4.4469,4.4451,4.4209,4.3944,4.3673,4.29,4.2358,4.2075,4.1803,4.1393,4.0879,4.058,4.0339,4.0083,3.9801,3.9535,3.9302,3.927,3.8804,3.8144,3.7886,3.3999,2.916,2.9176,2.5365,2.0788,2.0788,2.0788,2.0759,2.0548,2.0492,2.0492,2.0492,2.2237,2.3361,2.0877,2.2181,2.3268,2.0665,2.0105,2.0132,2.0264,2.0304,2.0331,2.0465,2.0494,2.0437,2.0318,2.2853,2.5673,2.8246,3.3126,3.6293,3.6189,3.5962,3.5697,3.5416,3.4841,3.4383,3.4189,3.3611,3.3077,3.2581,3.0013,2.9442,3.1242,2.8586,2.6104,2.3871,2.3533,2.1181,1.6971,1.6783,1.6796,0.0,0.0,1.7573,2.026,2.1625,2.238,2.2758,2.3269,2.3188,2.1457,2.1144,2.1242,2.1374,2.1743,2.2517,2.3952,2.9255,3.3577,3.479,3.9545,4.1442,3.7532,3.7031,0.0,0.0,0.0,0.0,4.3362,4.3697,4.3823,4.4094,4.418,4.4077,4.3697,4.4325,4.4451,4.4113,4.4542,4.4687,4.4499,4.4234,4.3962,4.3678,4.3238,4.2792,4.234,4.2068,4.1772,4.1386,4.0748,4.0452,4.0307,3.9873,3.9632,3.9535,3.9367,3.9149,3.8876,3.8466,3.4331,2.9236,2.9519,2.5663,2.0946,2.1041,2.1001,2.0919,2.0849,2.0822,2.0808,2.0716,2.1306,2.1668,2.0661,2.108,2.1447,2.0563,2.0372,2.0388,2.0426,2.0424,2.0426,2.0372,2.044,2.1761,2.5525,2.668,2.8208,3.113,3.4481,3.6573,3.6476,3.6074,3.5769,3.5688,3.5165,3.4687,3.4223,3.4199,3.3817,3.2895,3.1968,3.1545,3.1661,2.76,2.5057,2.4124,2.1006,1.8722,1.7256,1.7202,1.7202,0.0,1.8342,1.9391,2.4193,2.5137,2.5207,2.6471,2.6266,2.527,2.3373,2.2023,2.1201,2.119,2.1296,2.2301,2.5106,2.9612,3.367,3.6213,3.915,4.0044,3.7278,3.6786,3.6492,0.0,0.0,0.0,4.2985,4.3365,4.3606,4.4065,4.4336,4.433,4.3987,4.459,4.4716,4.4402,4.4716,4.4783,4.4499,4.4234,4.3962,4.3678,4.3413,4.3021,4.2502,4.2316,4.2044,4.1645,4.0934,4.058,4.0452,3.9905,3.9704,3.9697,3.9511,3.9367,3.9246,3.8836,3.4715,2.9673,2.9935,2.6664,2.2473,2.1554,2.2644,2.3781,2.1599,2.2549,2.3929,2.2684,2.3828,2.4773,2.2683,2.2908,2.3084,2.1171,2.0697,2.0684,2.0738,2.0697,2.0657,2.0564,2.1448,2.3784,2.8512,2.9732,3.1153,3.406,3.5717,3.6597,3.6597,3.621,3.5929,3.5929,3.5446,3.4948,3.4504,3.4562,3.4175,3.3171,3.315,3.2812,3.2109,2.816,2.5619,2.4546,2.0748,1.8453,1.7582,1.75,1.7514,2.2146,2.1276,2.1311,2.7944,2.7849,2.6872,2.9708,2.8328,2.6321,2.5878,2.3295,2.1041,0.0,0.0,2.2676,2.9324,3.1352,3.4345,4.0789,3.9052,3.7208,0.0,0.0,0.0,0.0,0.0,0.0,4.2358,0.0,4.325,4.4065,4.4354,4.4518,4.4523,4.4783,4.4909,4.4909,4.4904,4.4783,4.4499,4.4234,4.3968,4.3697,4.3431,4.3027,4.2544,4.252,4.2189,4.1693,4.1145,4.0748,4.0452,3.9921,3.9704,3.9704,3.9704,3.9535,3.9285,3.9037,3.529,3.0629,3.0629,2.8463,2.5368,2.2689,2.5713,2.8839,2.3099,2.5616,2.9342,2.6259,2.9331,3.1928,2.6687,2.7264,2.7605,2.252,2.121,2.1039,2.1174,2.1109,2.1049,2.1179,2.3547,2.6417,2.9382,3.1983,3.4458,3.673,3.6775,3.6612,3.6597,3.6364,3.6195,3.6195,3.5721,3.531,3.505,3.4779,3.43,3.3475,3.344,3.3175,3.2664,3.007,2.7557,2.5211,2.2672,2.0211,1.7922,1.7717,1.7744,2.3126,2.3834,2.5542,3.1899,3.3258,3.3231,3.3914,3.1747,2.8867,2.6205,2.2556,1.9805,0.0,0.0,0.0,2.3441,2.9089,0.0,3.6131,3.7613,0.0,4.1191,0.0,3.8051,3.9771,4.0873,0.0,0.0,4.2551,4.3123,4.433,4.4451,4.4595,4.4789,4.5073,4.5194,4.5194,4.5,4.4783,4.4499,4.4427,4.4258,4.3987,4.3703,4.3407,4.3075,4.2665,4.2327,4.1965,4.1417,4.0917,4.0459,4.0114,3.989,3.9704,3.9704,3.9656,3.9591,3.9519,3.6935,3.3684,3.3785,3.1801,2.9202,2.858,2.9358,3.0141,2.8594,2.9258,3.0238,2.9315,3.011,3.0717,2.8968,2.7507,2.6117,2.4656,2.258,2.1068,2.1307,2.1242,2.1778,2.3772,2.6549,2.946,3.2297,3.4974,3.6815,3.7237,3.7049,3.6823,3.663,3.6364,3.6195,3.6195,3.589,3.5591,3.531,3.5238,3.4924,3.4325,3.3909,3.3547,3.3199,2.8693,2.606,2.5411,2.1214,1.8825,1.8192,1.8151,1.8151,2.8243,2.8466,2.965,3.5965,3.6606,3.5905,3.6734,3.35,2.9541,2.6768,2.2276,0.0,1.8543,1.9045,0.0,0.0,0.0,0.0,3.786,3.8737,4.0105,0.0,4.0558,0.0,4.1779,4.2261,4.2617,0.0,4.2912,4.3317,4.4445,4.4716,4.4909,4.5073,4.5358,4.5435,4.529,4.5025,4.4783,4.4499,4.4499,4.4354,4.4094,4.3944,4.3673,4.3286,0.0,4.2568,4.2068,4.1658,4.1103,4.0459,4.0204,3.9938,3.9704,3.9704,3.9704,3.9704,3.9704,3.8474,3.6743,3.5566,3.3981,3.2317,3.1147,3.248,3.3876,3.1313,3.2433,3.4099,3.2693,3.3228,3.3756,3.2273,3.0766,2.8953,2.6423,2.4525,2.2945,2.1749,2.1475,2.2261,2.4916,2.7777,3.0652,3.3466,3.6213,3.7878,3.7612,3.7234,3.6984,3.6944,3.6597,3.6412,3.6542,3.6195,3.5905,3.5769,3.5528,3.5214,3.4779,3.4383,3.4016,3.3755,2.8669,2.5955,2.5812,2.0902,1.845,1.83,1.83,1.83,3.4494,3.363,3.3576,3.9503,3.8682,3.6819,3.8487,3.4006,2.8981,2.7183,0.0,1.7799,1.75,1.8001,2.0854,2.8261,0.0,3.4671,4.1893,4.0711,4.039,4.3899,4.1227,4.0181,4.29,4.3123,4.3317,4.3823,4.3691,4.3866,4.459,4.5044,4.5314,4.5363,4.5628,4.5628,4.5363,4.5102,4.4861,4.4547,4.4595,4.4445,4.4143,4.4143,4.3866,4.3365,0.0,0.0,4.2068,4.1851,4.1289,4.0531,4.03,4.0018,3.9777,3.9801,3.9777,3.9704,3.9728,3.9728,3.928,3.6775,3.5804,3.5179,3.2717,3.5446,3.8286,3.3228,3.5465,3.8749,3.6133,3.7231,3.83,3.5494,3.4548,3.2838,2.7596,2.606,2.489,2.224,2.1723,2.2691,2.568,2.8191,3.0877,3.4078,3.6652,3.8168,3.7886,3.7419,3.7161,3.7395,3.6968,3.6775,3.6968,3.6566,3.6283,3.6195,3.5769,3.5359,3.5074,3.4794,3.4513,3.4272,2.9623,2.6879,2.6267,2.163,1.9027,1.8408,1.8408,1.8408,3.5444,3.5954,3.693,4.0639,4.0447,3.9232,3.8746,3.3373,0.0,0.0,2.0975,1.6768,1.6701,1.75,2.0009,2.5684,2.9889,3.4398,4.0099,4.0178,4.1085,0.0,4.2023,4.0941,0.0,0.0,0.0,0.0,0.0,0.0,4.5151,4.5261,4.5387,4.5633,4.5899,4.5899,4.5633,4.558,4.5314,4.4832,4.5073,4.4904,4.4427,4.4427,4.4137,4.3606,0.0,0.0,4.2092,4.2062,4.1562,4.0838,4.0766,4.0469,4.0066,4.0283,4.0073,3.9728,3.9953,3.9897,3.9637,3.913,3.8922,3.8775,3.8308,3.8865,3.9408,3.8411,3.8835,3.9515,3.9001,3.9194,3.8773,3.5702,3.3185,3.0541,2.7089,2.4565,2.2767,2.2011,2.1859,2.3422,2.8391,2.9542,3.1546,3.6694,3.8072,3.8434,3.8168,3.7862,3.7596,3.7411,3.7322,3.7194,3.7016,3.692,3.6663,3.6219,3.6113,3.5832,3.5349,3.5074,3.4794,3.4528,3.1449,2.8777,2.6611,2.3691,2.115,1.9047,1.9047,1.9047,3.8682,3.9441,4.0276,4.1918,4.12,3.9413,3.672,0.0,0.0,0.0,1.8938,1.5872,1.601,1.7026,1.98,2.5865,2.9191,3.3446,4.0335,4.1234,4.2308,4.5341,4.4145,4.3657,0.0,0.0,0.0,0.0,0.0,0.0,4.5513,4.5633,4.5773,4.5899,4.5899,4.5826,4.5706,4.5561,4.5363,4.5116,4.5237,4.5097,4.473,4.5123,4.4962,4.4338,0.0,0.0,4.2931,4.2931,4.2213,4.1121,4.1121,4.0766,4.0307,4.0452,4.0339,4.0146,4.0259,4.0211,4.0114,4.0114,3.9921,3.9728,3.9873,3.9914,3.9914,3.9914,3.9914,3.9914,3.9914,3.9914,3.9562,3.819,3.4403,3.0268,2.717,2.4291,2.2241,2.2045,2.2004,2.3749,2.9252,3.015,3.2051,3.7712,3.8675,3.8716,3.8587,3.8442,3.8233,3.7862,3.7572,3.7346,3.7218,3.7065,3.6832,3.6437,3.6283,3.6083,3.5817,3.5557,3.5364,3.5243,3.2461,2.9724,2.7112,2.4464,2.1791,1.9196,1.9196,1.9196,4.1706,4.2351,4.2761,4.29,4.141,3.8797,3.4519,2.9705,0.0,2.0413,1.7137,1.5181,1.5455,1.6842,1.9887,2.5817,2.8209,3.2098,4.0098,4.1539,4.2764,4.5388,4.5899,0.0,4.5802,0.0,0.0,0.0,0.0,0.0,4.5802,4.5995,4.6111,4.6111,4.5899,4.5874,4.6028,4.5828,4.5707,4.5634,4.5634,4.5389,4.4923,4.5544,4.5451,4.4748,0.0,0.0,0.0,4.3447,4.2595,4.1314,4.1369,4.1055,4.058,4.0652,4.058,4.0524,4.0628,4.058,4.05,4.0573,4.0211,3.9825,4.0035,4.0066,4.001,4.001,4.0066,4.0107,4.0107,4.0131,3.9907,3.881,3.4361,2.9548,2.6428,2.3937,2.2268,2.2164,2.2623,2.4616,2.9586,3.0947,3.3047,3.8139,3.8956,3.8964,3.8916,3.8948,3.8836,3.8418,3.7926,3.7669,3.7669,3.7379,3.7065,3.6863,3.6557,3.6349,3.6292,3.6026,3.5601,3.4958,3.2715,2.9977,2.6719,2.4507,2.2037,1.94,1.94,1.9373,4.2502,4.319,4.348,4.3021,4.1127,3.8202,3.3731,0.0,2.3846,1.966,1.6623,1.4846,1.5179,1.7331,2.0088,2.3273,2.6196,3.0483,3.7412,3.8964,4.0963,4.5197,4.573,0.0,4.6039,4.5845,0.0,0.0,0.0,0.0,0.0,4.6092,4.6111,4.6111,4.6063,4.6416,4.7144,4.7138,4.699,4.6737,4.6737,4.6085,4.4904,4.4979,4.4702,4.4151,0.0,0.0,0.0,4.2609,4.209,4.132,4.1579,4.1338,4.0893,4.1145,4.0917,4.0573,4.1055,4.091,4.0548,4.0797,4.0483,4.0083,4.009,3.9921,3.9728,3.9728,3.9914,4.0107,4.0107,4.0283,3.9071,3.3558,2.9615,2.6325,2.3362,2.2482,2.2309,2.2282,2.4356,2.7055,3.0055,3.2713,3.5417,3.845,3.9125,3.9174,3.894,3.9125,3.9141,3.8868,3.8635,3.8482,3.8482,3.8007,3.7725,3.7693,3.721,3.6823,3.6573,3.6307,3.4906,3.2212,3.1903,2.9283,2.4236,2.3974,2.2527,2.001,2.001,1.9942,4.2665,4.3528,4.3847,4.348,4.132,3.7765,3.1845,0.0,2.2976,1.7676,1.5461,1.4597,1.4989,1.6159,1.8476,2.2864,2.4962,2.8531,3.5671,3.72,3.9175,4.3496,4.4161,0.0,0.0,0.0,0.0,0.0,0.0,0.0,0.0,4.6551,4.7058,4.7598,4.7097,4.6981,4.7309,4.6807,4.6526,4.6424,4.6905,4.6686,4.5884,4.6684,4.6661,4.5977,0.0,0.0,0.0,4.4543,4.3735,4.2445,4.2561,4.2182,4.161,4.1562,4.141,4.1224,4.1289,4.1152,4.1007,4.1121,4.0879,4.0573,4.0573,4.05,4.0404,4.0404,4.0483,4.0573,4.0573,4.0652,3.9606,3.5112,3.1743,2.8689,2.562,2.3555,2.2827,2.4608,2.5965,2.826,3.273,3.4551,3.6312,3.8977,3.9463,3.9511,3.9415,3.9463,3.9511,3.9398,3.9029,3.8675,3.837,3.8305,3.8144,3.7814,3.7596,3.7379,3.708,3.6823,3.5306,3.2335,3.2135,2.9413,2.4139,2.398,2.2588,2.0105,2.0105,2.0064,4.1349,4.2919,4.4131,4.3678,4.1296,3.7296,3.0622,2.6448,2.2308,1.6415,1.4717,1.4432,1.4839,1.5727,1.7504,2.0896,2.264,2.5896,3.2663,3.4201,3.6579,4.1807,0.0,4.4038,0.0,0.0,0.0,0.0,0.0,0.0,0.0,4.7226,4.7747,4.7868,4.7496,4.7406,4.7676,4.7367,4.7188,4.7188,4.7672,4.755,4.6878,4.7762,4.777,0.0,0.0,0.0,0.0,4.5666,4.478,4.3539,4.3539,4.3116,4.2439,4.2392,4.2085,4.1728,4.183,4.1626,4.132,4.1489,4.1296,4.1014,4.1014,4.091,4.0766,4.0766,4.0838,4.091,4.091,4.0838,3.9951,3.6604,3.3485,3.0437,2.7354,2.4384,2.3176,2.6122,2.754,2.9786,3.4576,3.6257,3.7594,3.9411,3.9704,3.9704,3.9704,3.988,4.0038,4.0038,3.9879,3.948,3.8716,3.8659,3.8547,3.8257,3.8104,3.7918,3.7636,3.7306,3.5726,3.2776,3.2526,2.9812,2.4446,2.435,2.291,2.0311,2.0311,2.0677,3.8133,4.1162,4.4306,4.3504,4.0879,3.6874,3.053,2.6156,2.1863,1.6336,1.4717,1.4383,1.4658,1.6661,1.7809,1.6401,1.8692,2.2468,2.7751,2.9396,3.2864,4.0431,4.2255,4.3317,4.4421,0.0,0.0,0.0,0.0,0.0,0.0,4.8094,4.7824,4.6169,4.6879,4.7708,4.8575,4.9381,4.9765,4.9765,4.9497,4.8793,4.7678,4.7417,4.715,0.0,0.0,0.0,0.0,4.5063,4.4656,4.4384,4.4384,4.3952,4.3338,4.3817,4.2993,4.1853,4.2842,4.2368,4.1393,4.1917,4.1724,4.1296,4.1296,4.0934,4.0483,4.0483,4.0717,4.091,4.091,4.0717,3.9697,3.6555,3.3333,3.0202,2.732,2.4384,2.3176,2.6122,2.9011,3.1918,3.4892,3.7775,3.9671,3.9704,3.9704,3.9704,3.9704,4.0337,4.0795,4.0795,4.1443,4.1269,3.9813,3.9205,3.9012,3.927,3.8836,3.8474,3.8192,3.7685,3.5998,3.3051,3.2988,3.0294,2.4788,2.5062,2.3666,2.0786,2.0786,2.2041,3.6026,3.8559,4.1055,4.0452,3.7327,3.318,2.8507,2.4032,1.9795,1.5977,1.4787,1.4464,1.4559,1.5524,1.6773,1.8127,1.9815,2.2923,2.8629,3.107,3.4508,4.058,4.435,4.6363,0.0,0.0,0.0,0.0,0.0,0.0,0.0,4.8239,4.8613,4.8632,4.8882,4.9151,4.942,4.9132,4.8978,4.8978,4.9275,4.9097,4.8528,4.8614,0.0,0.0,0.0,0.0,0.0,4.6454,4.5996,4.5415,4.5415,4.5084,4.458,4.455,4.4229,4.3841,4.3977,4.3648,4.3172,4.3337,4.312,4.2802,4.2802,4.197,4.1048,4.1048,4.1121,4.1103,4.0724,4.0556,4.0142,3.8773,3.4652,3.0747,2.9828,2.7355,2.6156,2.9079,3.2151,3.5134,3.7865,3.9239,3.9986,3.9986,3.9808,3.9777,3.9938,4.0624,4.101,4.082,4.1636,4.1843,4.101,4.0943,4.0687,4.0086,3.9897,3.9496,3.8716,3.837,3.6809,3.3818,3.1825,2.9049,2.5469,2.3539,2.2073,2.1068,2.0897,2.3148,3.1875,3.5367,3.8392,3.7236,3.4335,3.0639,2.6222,2.2234,1.8661,1.5725,1.4787,1.4518,1.4561,1.5033,1.5992,1.7859,1.8947,2.1318,2.644,2.9893,3.4427,4.1243,0.0,0.0,0.0,0.0,0.0,0.0,0.0,0.0,0.0,0.0,4.9266,4.9784,4.9803,4.9803,4.9803,4.9618,4.9464,4.9379,4.97,4.9638,4.9225,4.9378,0.0,0.0,0.0,0.0,0.0,4.7286,4.6958,4.6489,4.6489,4.6158,4.5655,4.5656,4.5305,4.4783,4.4605,4.4183,4.3693,4.3377,4.2931,4.2507,4.2382,4.2059,4.166,4.1383,4.1224,4.1048,4.0621,4.0435,4.0242,3.9801,3.5246,3.1,3.1,2.8808,2.7695,3.0585,3.3743,3.6803,3.9537,4.0146,4.0259,4.0259,4.0097,4.0066,4.0228,4.1154,4.1703,4.1528,4.2465,4.2963,4.2616,4.2172,4.1641,4.1026,4.096,4.0514,3.952,3.9252,3.8085,3.5848,3.4024,3.178,2.9051,2.5022,2.2984,2.2818,2.145,2.423,0.0,3.1469,3.5683,3.3758,3.1567,2.8609,2.3701,2.0636,0.0,1.5508,1.4733,1.4548,1.4685,1.5218,1.5755,1.6059,1.6759,1.8508,2.2106,2.7007,0.0,0.0,4.4371,0.0,0.0,0.0,0.0,0.0,0.0,0.0,0.0,0.0,4.9822,4.9887,4.9854,4.9854,4.9854,5.0607,5.0856,5.0581,5.0581,5.0314,4.9761,4.9734,0.0,0.0,0.0,0.0,0.0,4.7642,4.7518,4.7509,4.7509,4.7081,4.6538,4.6967,4.6216,4.4994,4.4976,4.433,4.3416,4.2616,4.1817,4.1109,4.0791,4.1435,4.2148,4.1456,4.1121,4.0862,4.0573,4.0307,4.0066,3.9777,3.5246,3.1051,3.1272,2.9238,2.8243,3.1149,3.4341,3.7388,4.0034,4.0527,4.0575,4.05,4.0541,4.0592,4.0634,4.1901,4.2798,4.2798,4.3795,4.4446,4.4429,4.2959,4.2041,4.1974,4.1974,4.1524,4.0522,4.0241,3.9724,3.883,3.8619,3.7126,3.4313,2.8923,2.6207,2.596,2.2979,2.5729,2.2466,0.0,2.8072,2.8837,2.5965,2.2514,0.0,1.8187,1.5849,1.4958,1.471,0.0,0.0,0.0,0.0,0.0,0.0,2.0483,2.2606,0.0,0.0,4.1169,0.0,0.0,0.0,0.0,0.0,0.0,0.0,0.0,0.0,0.0,5.0071,5.0711,5.051,5.0403,5.0403,5.0788,5.0856,5.0581,5.0581,5.0547,5.0368,5.0116,0.0,0.0,0.0,0.0,4.8257,4.7936,4.7705,4.7509,4.7509,4.7393,4.7259,4.7375,4.7189,4.6834,4.6622,4.6235,4.5709,4.5072,4.4346,4.3615,4.2981,4.2088,4.1206,4.1041,4.1103,4.1103,4.0628,4.0452,4.0283,3.9817,3.5246,3.1628,3.3881,3.2127,3.0994,3.4152,3.7607,4.0068,4.017,4.0813,4.1154,4.0592,4.0976,4.1515,4.1968,4.3086,4.3861,4.3861,4.4589,4.5007,4.481,4.4003,4.3272,4.2694,4.2661,4.2209,4.1213,4.1364,4.1231,4.0749,3.8791,3.6356,3.3475,3.1966,3.084,3.0108,2.9605,3.1102,2.0854,2.3104,2.5096,2.5113,2.2518,1.9576,1.8151,1.6337,1.4898,1.4656,1.4658,0.0,0.0,0.0,0.0,0.0,1.8099,0.0,0.0,0.0,3.7823,4.264,0.0,0.0,0.0,0.0,0.0,0.0,0.0,0.0,0.0,0.0,5.055,5.0997,5.0742,5.0581,5.0581,5.0597,5.0517,5.0368,5.0368,5.0368,5.0349,5.0196,0.0,0.0,0.0,0.0,4.8382,4.8221,4.7891,4.7526,4.7642,4.7616,4.7509,4.7348,4.733,4.7233,4.6587,4.5928,4.529,4.4846,4.4345,4.3813,4.3291,4.2556,4.1793,4.1245,4.1103,4.1048,4.0748,4.058,4.0513,4.056,3.7144,3.4425,3.6365,3.5615,3.5107,3.6848,3.9945,4.2127,4.1728,4.2116,4.2402,4.215,4.2449,4.2858,4.3319,4.4207,4.4734,4.4638,4.514,4.5381,4.5121,4.4666,4.4189,4.3632,4.3467,4.3022,4.2124,4.2253,4.2146,4.1646,4.0239,3.7422,3.3215,3.4366,3.3943,3.209,3.2024,3.3846,2.0034,2.2326,2.3826,2.2457,2.0373,1.8095,1.6011,1.513,1.4699,1.4561,1.467,1.4846,0.0,1.5875,0.0,0.0,0.0,0.0,3.0703,3.3424,3.7215,4.4509,0.0,0.0,0.0,0.0,0.0,0.0,0.0,0.0,0.0,0.0,0.0,5.1017,5.0742,5.0574,5.0528,5.0303,5.0196,5.0196,5.0223,5.0231,5.0231,5.0215,0.0,0.0,0.0,0.0,4.8462,4.8462,4.8061,4.7455,4.7731,4.7633,4.7331,4.7125,4.7036,4.6895,4.5945,4.5019,4.4214,4.3914,4.365,4.3342,4.3062,4.307,4.294,4.1916,4.1473,4.1278,4.1254,4.1066,4.1049,4.1621,3.9567,3.7764,3.8822,3.8888,3.8895,3.9435,4.1786,4.3665,4.3596,4.3716,4.3861,4.3986,4.4175,4.4398,4.462,4.5304,4.5656,4.5438,4.5669,4.5728,4.5451,4.5174,4.489,4.4579,4.4302,4.3834,4.316,4.3074,4.2793,4.2214,4.2214,3.9789,3.485,3.72,3.6937,3.4277,3.3884,3.6145,1.7989,1.9028,2.0154,2.1462,1.8937,1.5997,1.5399,1.5097,1.4907,1.471,1.4911,1.5208,1.5455,1.757,1.8938,0.0,0.0,0.0,0.0,0.0,0.0,0.0,0.0,0.0,0.0,0.0,0.0,0.0,0.0,0.0,0.0,0.0,0.0,5.1017,5.0742,5.0456,5.0196,5.0421,5.0528,5.0547,5.0749,5.0856,5.0837,5.0635,5.0493,0.0,0.0,4.9307,4.8738,4.8738,4.8123,4.7179,4.7455,4.7224,4.6725,4.6707,4.669,4.6619,4.6238,4.5984,4.58,4.5474,4.5104,4.4726,4.4405,4.3907,4.3382,4.3209,4.3149,4.3056,4.2804,4.272,4.2687,4.257,4.0326,3.8931,4.1487,4.0153,3.9316,4.2293,4.376,4.4397,4.3989,4.4637,4.4906,4.4116,4.4973,4.5714,4.5749,4.6393,4.6851,4.6807,4.6584,4.6342,4.6066,4.5755,4.5471,4.5194,4.4917,4.4589,4.4199,4.3933,4.3777,4.3695,4.3695,4.3239,4.2346,4.2774,4.2289,4.1014,4.127,4.1537,1.9109,1.9199,1.9175,2.0494,1.8503,1.6119,1.575,1.5493,1.5304,1.52,1.5454,1.5791,1.6133,0.0,2.0564,0.0,0.0,0.0,0.0,0.0,0.0,0.0,0.0,0.0,0.0,0.0,0.0,0.0,0.0,0.0,0.0,0.0,0.0,0.0,5.0742,5.0581,5.0597,5.0581,5.0528,5.033,5.0643,5.0776,5.0768,5.0662,5.0509,5.0303,0.0,4.9237,4.8746,4.831,4.7803,4.7313,4.7108,4.6948,4.6831,4.6503,4.6289,4.6094,4.5978,4.5924,4.5898,4.5738,4.5568,4.5398,4.5249,4.4947,4.4689,4.4689,4.4105,4.3477,4.3341,4.3316,4.3393,4.3658,4.271,4.2223,4.3957,4.3428,4.3091,4.4682,4.5401,4.5663,4.5429,4.5945,4.6252,4.5936,4.6419,4.694,4.7239,4.7313,4.733,4.733,4.7045,4.6751,4.644,4.6289,4.5888,4.5131,4.496,4.4746,4.4403,4.4286,4.4142,4.4008,4.4008,4.3239,4.1683,4.3239,4.2972,4.1026,4.2583,4.3135,1.9917,1.9659,1.8891,1.9184,0.0,1.6647,1.6578,0.0,0.0,0.0,0.0,0.0,0.0,1.8853,0.0,0.0,0.0,0.0,0.0,0.0,0.0,0.0,0.0,0.0,0.0,0.0,0.0,0.0,0.0,0.0,0.0,0.0,0.0,0.0,5.0822,5.0749,5.091,5.0749,5.0563,5.0311,5.0563,5.0662,5.0581,5.0448,5.0215,4.9868,4.9344,4.889,4.8533,4.7856,4.7518,4.7348,4.6806,4.6654,4.6725,4.6235,4.5915,4.5694,4.5694,4.5738,4.5808,4.572,4.5738,4.5818,4.5818,4.5818,4.5818,4.5898,4.5062,4.4122,4.4044,4.4019,4.4156,4.4706,4.4853,4.5034,4.5697,4.6022,4.6243,4.6377,4.6627,4.6823,4.6903,4.7161,4.7455,4.7669,4.7749,4.7954,4.8355,4.7981,4.7669,4.7616,4.7348,4.7054,4.6734,4.6636,4.6209,4.5254,4.5131,4.4927,4.4616,4.4599,4.4446,4.4099,4.4099,4.2961,4.0721,4.2925,4.2876,4.0754,4.2645,4.3538,1.8339,1.8733,1.8541,1.7119,1.664,0.0,1.7745,1.75,0.0,1.8597,0.0,0.0,0.0,2.0707,0.0,0.0,0.0,0.0,0.0,0.0,0.0,0.0,0.0,0.0,0.0,0.0,0.0,0.0,0.0,0.0,0.0,0.0,0.0,0.0,0.0,5.0856,5.0635,5.0856,5.0963,5.0936,5.0963,5.0849,5.0574,5.0028,4.9638,4.9326,4.8729,4.8257,4.7954,4.79,4.7562,4.7072,4.6734,4.6289,4.5808,4.5738,4.5711,4.5694,4.5694,4.5898,4.6119,4.5808,4.5915,4.6146,4.6146,4.6146,4.6226,4.6467,4.6273,4.5937,4.5627,4.5549,4.5547,4.5625,4.5625,4.5713,4.6102,4.6199,4.6368,4.6947,4.7241,4.7518,4.7758,4.807,4.8328,4.8346,4.8551,4.8631,4.8435,4.8355,4.8221,4.79,4.7624,4.7348,4.7072,4.676,4.6449,4.6136,4.5808,4.5507,4.5247,4.5237,4.4953,4.4392,4.4376,4.4143,4.3695,4.3883,4.3883,4.3695,4.3563,4.3688,1.9844,1.9509,1.87,1.7289,1.7284,0.0,0.0,1.8794,1.9404,2.012,0.0,0.0,0.0,0.0,0.0,0.0,0.0,0.0,0.0,0.0,0.0,0.0,0.0,0.0,0.0,0.0,0.0,0.0,0.0,0.0,0.0,0.0,0.0,0.0,0.0,5.0944,5.0849,5.0956,5.1017,5.1017,5.083,5.0581,5.0269,4.9726,4.9272,4.8952,4.8346,4.8025,4.7865,4.7535,4.7366,4.7313,4.6814,4.6218,4.5694,4.5694,4.5694,4.5694,4.5694,4.5791,4.5888,4.5738,4.5932,4.6217,4.6217,4.6324,4.644,4.636,4.627,4.6163,4.6039,4.5871,4.5694,4.5694,4.5871,4.6039,4.6163,4.6627,4.7028,4.7072,4.7633,4.7963,4.7705,4.8212,4.8524,4.815,4.8355,4.8515,4.84,4.8061,4.7856,4.79,4.7651,4.7455,4.7348,4.7072,4.6858,4.6769,4.6306,4.5808,4.531,4.5301,4.5114,4.4713,4.4509,4.4359,4.4249,4.4088,4.4008,4.4008,4.3885,4.3885,2.1327,2.0622,1.956,1.7485,0.0,0.0,1.9358,2.0237,2.121,2.227,0.0,0.0,0.0,0.0,0.0,0.0,0.0,0.0,0.0,0.0,0.0,0.0,0.0,0.0,0.0,0.0,0.0,0.0,0.0,0.0,0.0,0.0,0.0,0.0,0.0,0.0,5.1017,5.1017,5.1017,5.0997,5.0536,5.0215,4.9937,4.9326,4.8836,4.8506,4.7998,4.7758,4.7731,4.7161,4.6938,4.6903,4.6592,4.6155,4.5694,4.5694,4.5694,4.5694,4.5694,4.5694,4.5694,4.5694,4.5932,4.6234,4.6306,4.6537,4.6716,4.6537,4.6413,4.6333,4.6333,4.6102,4.5871,4.5871,4.6102,4.635,4.6457,4.6948,4.7339,4.725,4.7767,4.8123,4.7705,4.8265,4.8658,4.8239,4.8452,4.8649,4.8542,4.807,4.7776,4.7758,4.7616,4.7509,4.7509,4.7241,4.7045,4.6956,4.6475,4.6012,4.5611,4.5488,4.5301,4.5024,4.481,4.4589,4.4403,4.4222,4.4125,4.4109,4.4035,4.4051,2.2336,2.1921,2.118,1.745,0.0,0.0,2.1326,2.1889,2.2728,2.5216,0.0,0.0,0.0,0.0,0.0,0.0,0.0,0.0,0.0,0.0,0.0,0.0,0.0,0.0,0.0,0.0,0.0,0.0,0.0,0.0,0.0,0.0,0.0,0.0,0.0,0.0,5.1017,5.1017,5.0997,5.0963,5.0127,4.9708,4.9654,4.8783,4.8221,4.7891,4.7633,4.7509,4.7437,4.685,4.6245,4.5738,4.6066,4.6012,4.5694,4.5694,4.5694,4.5694,4.5694,4.5694,4.5694,4.5694,4.5924,4.6235,4.6512,4.6841,4.709,4.709,4.6858,4.6609,4.6609,4.6413,4.6217,4.6217,4.6413,4.6707,4.7036,4.709,4.7179,4.7446,4.7713,4.79,4.79,4.8417,4.8818,4.88,4.9077,4.9165,4.8826,4.8551,4.8168,4.7544,4.7509,4.7509,4.7509,4.7241,4.6948,4.6619,4.6342,4.6217,4.6217,4.5888,4.5594,4.5318,4.5301,4.5007,4.4403,4.4403,4.4403,4.4403,4.4125,4.4142,2.2084,2.1005,0.0,1.7821,0.0,0.0,0.0,2.3528,0.0,0.0,0.0,0.0,0.0,0.0,0.0,0.0,0.0,0.0,0.0,0.0,0.0,0.0,0.0,0.0,0.0,0.0,0.0,0.0,0.0,0.0,0.0,0.0,0.0,0.0,0.0,0.0,5.0723,5.0723,5.0616,5.0357,4.9726,4.9521,4.9654,4.8551,4.7909,4.7616,4.7535,4.725,4.685,4.669,4.6503,4.6308,4.6226,4.6012,4.5694,4.5694,4.5694,4.5694,4.5694,4.5694,4.5738,4.5995,4.6235,4.6529,4.6858,4.7036,4.7045,4.6814,4.669,4.6556,4.636,4.6564,4.6769,4.6529,4.6716,4.6965,4.7081,4.7419,4.7624,4.7518,4.7927,4.8123,4.7705,4.8265,4.8658,4.8221,4.8613,4.8746,4.8221,4.8105,4.7918,4.7535,4.7509,4.7509,4.7509,4.7241,4.7143,4.7224,4.66,4.611,4.5871,4.5738,4.5667,4.5594,4.5407,4.5204,4.5017,4.4837,4.4746,4.4746,4.4666,4.4666,2.2807,2.1435,0.0,1.8973,2.0562,2.291,2.4768,0.0,0.0,0.0,0.0,0.0,0.0,0.0,0.0,0.0,0.0,0.0,0.0,0.0,0.0,0.0,0.0,0.0,0.0,0.0,0.0,0.0,0.0,0.0,0.0,0.0,0.0,0.0,0.0,0.0,5.0421,5.0421,5.0303,5.0098,4.9326,4.9032,4.9147,4.831,4.7705,4.7339,4.7215,4.693,4.6592,4.6503,4.644,4.6413,4.6119,4.5888,4.5694,4.5694,4.5694,4.5694,4.5694,4.5694,4.572,4.5924,4.6289,4.6636,4.6841,4.7054,4.717,4.6716,4.6707,4.6734,4.644,4.6742,4.7045,4.6841,4.7028,4.7259,4.7259,4.7526,4.7705,4.7535,4.7803,4.7945,4.7544,4.8025,4.8346,4.8132,4.8417,4.8524,4.815,4.7909,4.7669,4.7518,4.7509,4.7509,4.7509,4.7241,4.717,4.7339,4.6627,4.6119,4.5915,4.5774,4.5694,4.5694,4.5524,4.5407,4.5301,4.5131,4.505,4.505,4.495,4.496,2.3968,2.2613,2.118,2.0638,2.2067,0.0,2.7049,2.847,0.0,0.0,0.0,0.0,0.0,0.0,0.0,0.0,0.0,0.0,0.0,0.0,0.0,0.0,0.0,0.0,0.0,0.0,0.0,0.0,0.0,0.0,0.0,0.0,0.0,0.0,0.0,0.0,5.0036,5.0044,5.001,0.0,4.8871,4.8355,4.8266,4.7936,4.7518,4.7036,4.669,4.6539,4.66,4.6289,4.6163,4.6163,4.5818,4.5694,4.5694,4.5694,4.5694,4.5694,4.5694,4.5694,4.5711,4.5738,4.6111,4.6556,4.6592,4.6974,4.7304,4.6743,4.6841,4.7036,4.6716,4.6885,4.7143,4.7143,4.7322,4.7509,4.7509,4.7509,4.7509,4.7509,4.7509,4.7509,4.7509,4.7713,4.8025,4.8364,4.8427,4.8382,4.8382,4.7909,4.7535,4.7509,4.7509,4.7509,4.7509,4.7241,4.709,4.7143,4.6564,4.6243,4.627,4.5915,4.5694,4.5694,4.5694,4.5594,4.5327,4.5327,4.5327,4.5327,4.5104,4.5104,2.3272,2.2211,2.0868,2.1918,2.4323,2.6859,2.86,2.9511,2.9933,0.0,0.0,0.0,0.0,0.0,0.0,0.0,0.0,0.0,0.0,0.0,0.0,0.0,0.0,0.0,0.0,0.0,0.0,0.0,0.0,0.0,0.0,0.0,0.0,0.0,0.0,4.9753,4.9459,4.9673,4.9315,0.0,4.8382,4.8052,4.7375,4.7028,4.6823,4.669,4.6129,4.6155,4.6556,4.6031,4.5959,4.6163,4.5818,4.5694,4.5694,4.5694,4.5694,4.5694,4.5694,4.5694,4.5738,4.6012,4.6199,4.6333,4.6529,4.6707,4.676,4.6636,4.6841,4.7072,4.7019,4.7179,4.7419,4.7419,4.7455,4.7509,4.7509,4.7509,4.7509,4.7509,4.7509,4.7509,4.7509,4.7713,4.8105,4.8631,4.8542,4.8382,4.8382,4.8061,4.7731,4.7518,4.7509,4.7509,4.7509,4.7241,4.7179,4.7419,4.6841,4.6627,4.6912,4.6129,4.5694,4.5694,4.5694,4.5684,4.5604,4.5604,4.5604,4.5604,4.556,4.5577,2.2781,2.2295,2.1653,2.4255,2.6504,2.8339,2.9324,2.9971,3.031,3.0251,0.0,0.0,0.0,0.0,0.0,0.0,0.0,0.0,0.0,0.0,0.0,0.0,0.0,0.0,0.0,0.0,0.0,0.0,0.0,0.0,0.0,5.0528,5.0269,5.0162,4.986,4.9486,4.9058,4.9058,4.8666,4.79,4.7651,4.7152,4.6422,4.6413,4.6413,4.6396,4.5915,4.5978,4.636,4.5898,4.5898,4.6163,4.5818,4.5694,4.5694,4.5694,4.5694,4.5694,4.5694,4.5694,4.5755,4.611,4.6217,4.627,4.6725,4.6841,4.6841,4.6841,4.7054,4.7259,4.7143,4.7313,4.7509,4.7509,4.7509,4.7509,4.7509,4.7509,4.7509,4.7509,4.7509,4.7509,4.7509,4.7856,4.8239,4.8551,4.8471,4.8382,4.8382,4.8016,4.7651,4.7526,4.7616,4.7642,4.7526,4.7509,4.7509,4.7509,4.709,4.6921,4.7072,4.6467,4.6085,4.5924,4.5924,4.5871,4.5694,4.5871,4.5871,4.5711,4.6005,4.5995,2.2453,2.2836,2.323,2.6603,2.8232,2.9126,2.963,3.0098,3.0664,3.1453,3.1822,0.0,0.0,0.0,0.0,0.0,0.0,0.0,0.0,0.0,0.0,0.0,0.0,0.0,0.0,0.0,0.0,0.0,0.0,0.0,5.0467,5.0421,5.0127,4.9548,4.9513,4.92,4.8577,4.8417,4.807,4.7616,4.6823,4.6191,4.5711,4.5995,4.6119,4.6102,4.5818,4.5871,4.611,4.58,4.5871,4.611,4.58,4.5694,4.5694,4.5694,4.5694,4.5694,4.5694,4.5738,4.5818,4.6039,4.6199,4.6333,4.6734,4.6938,4.7019,4.7019,4.7232,4.7402,4.7223,4.7339,4.7509,4.7509,4.7509,4.7509,4.7509,4.7509,4.7509,4.7509,4.7535,4.7562,4.7562,4.8034,4.8427,4.8462,4.8364,4.8355,4.8462,4.7936,4.7598,4.7642,4.7838,4.7865,4.7598,4.7758,4.7793,4.7518,4.7286,4.717,4.717,4.6903,4.6609,4.627,4.6253,4.6119,4.5791,4.6119,4.6102,4.5808,4.6342,4.6316,2.2391,2.4074,2.5759,2.7548,2.8669,2.9432,2.9784,3.006,3.1126,0.0,3.543,0.0,0.0,0.0,0.0,0.0,0.0,0.0,0.0,0.0,0.0,0.0,0.0,0.0,0.0,0.0,0.0,0.0,0.0,0.0,4.9841,4.962,4.9291,4.8933,4.8711,4.8275,4.7669,4.7865,4.7437,4.643,4.6005,4.5791,4.5694,4.5738,4.5774,4.5774,4.5711,4.572,4.5774,4.5711,4.572,4.5755,4.5711,4.5694,4.5694,4.5694,4.5694,4.5694,4.5694,4.5898,4.611,4.5844,4.6111,4.6449,4.6022,4.6245,4.669,4.669,4.6912,4.7179,4.7419,4.7455,4.7509,4.7509,4.7509,4.7509,4.7509,4.7509,4.7509,4.7509,4.7705,4.7838,4.7838,4.815,4.848,4.8729,4.8301,4.8159,4.8666,4.823,4.7945,4.8248,4.8328,4.8221,4.7865,4.7891,4.7793,4.7518,4.7455,4.7446,4.7446,4.7419,4.7117,4.6556,4.6547,4.6413,4.6136,4.6413,4.6413,4.6129,4.6449,4.6422,2.3933,2.5071,2.5891,2.7742,2.8669,2.9708,3.1956,3.1289,3.1158,3.4537,3.7341,0.0,0.0,0.0,0.0,0.0,0.0,0.0,0.0,0.0,0.0,0.0,0.0,0.0,0.0,0.0,0.0,0.0,0.0,5.0261,4.9531,4.9352,4.9077,4.8577,4.8275,4.7918,4.7509,4.7286,4.6743,4.5915,4.5774,4.5694,4.5694,4.5694,4.5694,4.5694,4.5694,4.5694,4.5694,4.5694,4.5694,4.5694,4.5694,4.5694,4.5694,4.5694,4.5694,4.5694,4.5694,4.5808,4.5932,4.5959,4.6022,4.6111,4.6191,4.6289,4.6413,4.6556,4.6841,4.7143,4.725,4.7402,4.7509,4.7509,4.7509,4.7509,4.7509,4.7624,4.7776,4.7963,4.8088,4.8177,4.8177,4.8435,4.8658,4.8764,4.8559,4.8506,4.8764,4.8444,4.8248,4.8364,4.8542,4.8426,4.7927,4.8052,4.7981,4.7535,4.7509,4.7509,4.7509,4.7348,4.7152,4.6885,4.6867,4.6654,4.6217,4.6654,4.6716,4.644,4.6903,4.685,2.4924,2.5591,2.5839,2.7377,2.8247,2.9497,3.2502,3.1578,3.079,0.0,3.6889,0.0,0.0,0.0,0.0,0.0,0.0,0.0,0.0,0.0,0.0,0.0,0.0,0.0,0.0,0.0,0.0,0.0,0.0,4.978,4.8978,4.8871,4.8649,4.8186,4.7776,4.7464,4.7268,4.669,4.6138,4.5694,4.5694,4.5694,4.5694,4.5694,4.5694,4.5694,4.5694,4.5694,4.5694,4.5694,4.5694,4.5694,4.5694,4.5694,4.5694,4.5694,4.5694,4.5694,4.5694,4.5755,4.5844,4.6022,4.6005,4.5987,4.6281,4.6306,4.6243,4.644,4.6671,4.6929,4.7063,4.725,4.7437,4.7491,4.7509,4.7509,4.7509,4.7722,4.798,4.823,4.8382,4.8489,4.8489,4.8738,4.8943,4.8943,4.8845,4.8826,4.8925,4.8676,4.8542,4.8622,4.8818,4.8666,4.807,4.8257,4.8141,4.7535,4.7509,4.7509,4.7509,4.733,4.717,4.709,4.717,4.6956,4.643,4.6956,4.7045,4.6734,4.7259,4.7232,2.4362,2.5338,2.6481,2.634,2.7223,2.8415,2.9425,2.9711,2.9863,3.034,3.3055,0.0,0.0,0.0,0.0,0.0,0.0,0.0,0.0,0.0,0.0,0.0,0.0,0.0,0.0,0.0,0.0,0.0,0.0,4.8631,4.8007,4.7731,4.7562,4.7553,4.6974,4.6645,4.6636,4.6048,4.572,4.5694,4.5694,4.5694,4.5694,4.5694,4.5694,4.5694,4.5694,4.5694,4.5694,4.5694,4.5694,4.5694,4.5694,4.5694,4.5694,4.5694,4.5694,4.5694,4.5694,4.5915,4.6119,4.5818,4.6094,4.6449,4.5907,4.5959,4.6217,4.6226,4.6226,4.6377,4.6956,4.709,4.7161,4.7446,4.7509,4.7509,4.7509,4.7722,4.7918,4.7909,4.8399,4.8764,4.8764,4.904,4.9264,4.9264,4.8978,4.8925,4.9237,4.8978,4.8906,4.9237,4.9264,4.9032,4.8435,4.8382,4.8141,4.7535,4.7509,4.7509,4.7509,4.7509,4.7348,4.709,4.7357,4.7339,4.7045,4.7339,4.7339,4.7072,4.7366,4.7357,2.7158,2.662,2.5869,2.7063,2.7208,2.7832,3.078,3.043,3.0722,3.5039,3.7151,3.9287,0.0,0.0,0.0,0.0,0.0,0.0,0.0,0.0,0.0,0.0,0.0,0.0,0.0,0.0,0.0,0.0,0.0,0.0,4.7428,4.7313,4.7135,4.693,4.6547,4.6235,4.6014,4.58,4.5694,4.5694,4.5694,4.5694,4.5694,4.5694,4.5694,4.5694,4.5694,4.5694,4.5694,4.5694,4.5694,4.5694,4.5694,4.5694,4.5694,4.5694,4.5694,4.5694,4.5694,4.5791,4.5871,4.5738,4.5844,4.5987,4.5774,4.5791,4.5888,4.5888,4.6022,4.6306,4.6671,4.6938,4.717,4.7446,4.7509,4.7509,4.7509,4.7722,4.7954,4.8177,4.8533,4.8818,4.8818,4.9077,4.9291,4.9291,4.9184,4.9157,4.9272,4.9184,4.9165,4.9272,4.913,4.8836,4.8435,4.8221,4.7918,4.7518,4.7509,4.7509,4.7509,4.7339,4.7277,4.7348,4.7277,4.7179,4.709,4.7366,4.7348,4.709,4.7366,4.7348,2.7501,2.6408,2.4928,2.6045,2.6004,2.6556,2.9869,2.9615,3.0296,3.5986,3.8513,4.074,4.4119,0.0,0.0,0.0,0.0,0.0,0.0,0.0,0.0,0.0,0.0,0.0,0.0,0.0,0.0,0.0,0.0,0.0,4.6948,4.6849,4.6644,4.6316,4.6226,4.6012,4.5577,4.5667,4.5667,4.5577,4.5577,4.5577,4.5577,4.5577,4.5577,4.5577,4.5667,4.5694,4.5694,4.5694,4.5694,4.5694,4.5694,4.5694,4.5694,4.5694,4.5694,4.5694,4.5694,4.5694,4.5694,4.5694,4.5694,4.5694,4.5694,4.5694,4.5694,4.5694,4.5871,4.6119,4.6503,4.6921,4.7277,4.7455,4.7509,4.7509,4.7509,4.7722,4.798,4.8177,4.8533,4.8818,4.8818,4.9077,4.9291,4.9291,4.9291,4.9291,4.9291,4.9291,4.9291,4.9291,4.9112,4.8818,4.8435,4.8221,4.7927,4.7518,4.7509,4.7535,4.7624,4.7366,4.7348,4.7624,4.7366,4.7232,4.7232,4.7419,4.7419,4.725,4.7428,4.7419,0.0,0.0,0.0,2.327,2.3593,2.4526,2.6299,2.7017,2.8489,3.2548,3.6468,4.0217,4.3854,4.736,4.9743,0.0,0.0,0.0,0.0,0.0,0.0,0.0,0.0,0.0,0.0,0.0,0.0,0.0,0.0,4.6592,4.6556,4.6333,4.6039,4.5711,4.6012,4.5905,4.5318,4.5577,4.556,4.5301,4.5301,4.5301,4.5301,4.5301,4.5301,4.5301,4.5577,4.5684,4.5694,4.5694,4.5694,4.5694,4.5694,4.5694,4.5694,4.5694,4.5694,4.5694,4.5694,4.5694,4.5694,4.5694,4.5694,4.5694,4.5694,4.5694,4.5694,4.5694,4.5711,4.5844,4.6449,4.7054,4.7509,4.7509,4.7509,4.7509,4.7509,4.7705,4.79,4.79,4.8364,4.8764,4.88,4.9058,4.9272,4.9291,4.9291,4.9291,4.9291,4.9291,4.9291,4.9291,4.9272,4.905,4.8453,4.8382,4.8141,4.7553,4.7509,4.7624,4.79,4.7642,4.7624,4.7891,4.7624,4.7509,4.7509,4.7509,4.7509,4.7509,4.7509,4.7509,2.4437,0.0,0.0,0.0,0.0,0.0,2.639,2.7453,2.9385,3.473,3.7919,4.1347,4.6621,4.8251,4.8943,4.9451,4.9689,0.0,0.0,0.0,0.0,0.0,0.0,0.0,0.0,0.0,0.0,0.0,4.652,4.6209,4.5978,4.5881,4.5808,4.5694,4.5604,4.5488,4.5301,4.5381,4.5291,4.5014,4.5211,4.5211,4.5014,4.5014,4.5014,4.5014,4.5104,4.522,4.5417,4.5614,4.5694,4.5694,4.5694,4.5694,4.5694,4.5694,4.5694,4.5694,4.5694,4.5694,4.5694,4.5694,4.5694,4.5694,4.5694,4.5694,4.5694,4.5694,4.5888,4.6217,4.6814,4.7232,4.7509,4.7509,4.7509,4.7509,4.7509,4.7544,4.7616,4.7616,4.79,4.823,4.8462,4.8756,4.9032,4.9264,4.9291,4.9291,4.9291,4.9291,4.9291,4.9291,4.9077,4.8783,4.8435,4.8177,4.7963,4.7811,4.7616,4.7624,4.79,4.7642,4.7535,4.7616,4.7535,4.7509,4.7509,4.7509,4.7419,4.7223,4.7223,4.733,0.0,0.0,0.0,0.0,0.0,0.0,2.6302,2.8049,3.0426,0.0,3.8072,4.1509,4.656,4.7714,4.7999,4.8462,4.8676,4.8925,0.0,0.0,0.0,0.0,0.0,0.0,0.0,4.6965,4.6644,4.644,4.6155,4.5915,4.5711,4.5694,4.5648,4.5524,4.5398,4.5194,4.4927,4.505,4.4997,4.4703,4.4847,4.483,4.4703,4.4703,4.4703,4.472,4.496,4.5104,4.5157,4.5524,4.5694,4.5694,4.5694,4.5694,4.5694,4.5694,4.5694,4.5694,4.5694,4.5694,4.5694,4.5694,4.5694,4.5694,4.5694,4.5808,4.5888,4.5738,4.6022,4.6467,4.6965,4.7366,4.7642,4.7535,4.7598,4.7642,4.7518,4.7509,4.7509,4.7509,4.7722,4.7945,4.815,4.8444,4.8738,4.905,4.9085,4.9139,4.9272,4.9291,4.9291,4.9291,4.913,4.8871,4.8577,4.8399,4.8159,4.7918,4.774,4.7811,4.8105,4.7722,4.7633,4.7856,4.7633,4.7509,4.7509,4.7509,4.7428,4.7259,4.7152,4.725,0.0,0.0,0.0,0.0,0.0,0.0,2.6375,2.8814,3.1551,3.4274,3.7479,4.0977,4.4764,4.6129,4.6795,4.7125,4.7215,4.7598,4.8559,0.0,0.0,0.0,0.0,0.0,4.66,4.6324,4.6129,4.6129,4.5835,4.5684,4.5694,4.5631,4.5514,4.5318,4.5237,4.4927,4.4376,4.4686,4.465,4.4296,4.4376,4.4386,4.4376,4.4376,4.4376,4.4386,4.4937,4.505,4.4907,4.5417,4.5631,4.5614,4.5684,4.5684,4.5667,4.5694,4.5694,4.5694,4.5694,4.5694,4.5694,4.5694,4.5694,4.5694,4.5694,4.5924,4.6146,4.5907,4.6191,4.6636,4.7045,4.7473,4.7758,4.7553,4.7669,4.7793,4.7544,4.7509,4.7509,4.7509,4.7705,4.7865,4.79,4.815,4.8444,4.8746,4.8818,4.8925,4.9264,4.9291,4.9291,4.9291,4.9291,4.9157,4.8826,4.8818,4.8559,4.8034,4.7927,4.8052,4.8435,4.7847,4.7767,4.8346,4.7803,4.7509,4.7455,4.7509,4.7509,4.7509,4.7259,4.7259,0.0,0.0,0.0,0.0,0.0,0.0,2.7824,2.9912,3.2621,3.5214,3.7603,4.0214,4.3344,4.4082,4.4392,4.491,4.5407,4.6289,4.7847,4.7616,4.725,0.0,0.0,0.0,4.627,4.5995,4.5808,4.5808,4.5524,4.5488,4.5694,4.5301,4.5131,4.5301,4.482,4.4419,4.4088,4.4356,4.4216,4.3682,4.4172,4.4296,4.4088,4.4088,4.4088,4.4099,4.4429,4.4536,4.4536,4.5123,4.5247,4.5104,4.5524,4.5577,4.5407,4.5614,4.5694,4.5694,4.5694,4.5694,4.5694,4.5694,4.5694,4.5694,4.5694,4.5924,4.627,4.6725,4.6547,4.644,4.7232,4.7339,4.7313,4.7455,4.7535,4.7544,4.7526,4.7509,4.7509,4.7509,4.7535,4.7642,4.7847,4.7945,4.8177,4.8719,4.8818,4.8925,4.9264,4.9291,4.9291,4.9291,4.9291,4.9157,4.8826,4.8818,4.8746,4.8621,4.8159,4.8141,4.8711,4.7936,4.7651,4.7998,4.7669,4.7402,4.717,4.7402,4.7509,4.7509,4.7446,4.7446,0.0,0.0,0.0,2.4063,0.0,0.0,0.0,3.1107,3.3935,3.4817,3.6822,3.9089,4.1172,4.1668,4.2069,4.2977,4.3714,4.465,4.5978,4.6547,4.6814,4.6654,0.0,0.0,4.5959,4.5808,4.5631,4.5514,4.5398,4.5301,4.5301,4.5041,4.489,4.4847,4.4579,4.4286,4.4008,4.4125,4.4045,4.3762,4.4045,4.4125,4.4008,4.4008,4.4008,4.4008,4.4279,4.4306,4.4269,4.5007,4.5033,4.4713,4.5417,4.5614,4.5514,4.5667,4.5694,4.5694,4.5694,4.5694,4.5694,4.5694,4.5694,4.5694,4.5694,4.5924,4.6306,4.6734,4.6627,4.6529,4.7135,4.7313,4.7339,4.7455,4.7616,4.7651,4.7535,4.7509,4.7509,4.7509,4.7509,4.7535,4.7669,4.7705,4.7927,4.8524,4.8604,4.8764,4.9237,4.9291,4.9291,4.9291,4.9291,4.9237,4.9058,4.905,4.8978,4.8818,4.8524,4.8426,4.8577,4.8025,4.7705,4.7705,4.7562,4.7428,4.7313,4.7428,4.7428,4.7313,4.7446,4.7509,0.0,0.0,0.0,0.0,0.0,2.8274,0.0,0.0,0.0,3.427,3.5898,3.7688,3.8718,3.9157,0.0,4.0695,0.0,0.0,0.0,4.4793,0.0,4.5762,0.0,0.0,0.0,4.5373,4.5293,4.514,4.498,4.4847,4.481,4.4703,4.4559,4.4403,4.4339,4.4189,4.3912,4.3955,4.3955,4.3912,4.4018,4.4051,4.4008,4.4045,4.4051,4.4008,4.4279,4.4286,4.4125,4.4953,4.5007,4.467,4.54,4.5684,4.5631,4.5684,4.5694,4.5694,4.5694,4.5694,4.5694,4.5694,4.5694,4.5711,4.5791,4.5924,4.6155,4.652,4.6556,4.6609,4.7019,4.7259,4.7446,4.7509,4.7669,4.7758,4.7553,4.7509,4.7509,4.7509,4.7509,4.7509,4.7509,4.7535,4.7749,4.8328,4.8453,4.8676,4.9237,4.9291,4.9291,4.9291,4.9291,4.9291,4.9291,4.9291,4.9165,4.8925,4.8783,4.8649,4.8471,4.8123,4.7758,4.7526,4.7509,4.7455,4.7428,4.7455,4.7402,4.717,4.7419,4.7509,0.0,0.0,0.0,0.0,2.6029,0.0,0.0,0.0,3.2807,3.4673,0.0,0.0,0.0,0.0,0.0,0.0,0.0,0.0,4.0466,4.1577,4.2822,4.4099,4.3992,0.0,0.0,4.4195,4.4286,4.4499,4.3795,4.3688,4.4419,4.3938,4.3895,4.4386,4.4179,4.3901,4.3575,4.3848,4.3848,4.3575,4.4092,4.4216,4.4008,4.4249,4.4216,4.4008,4.4279,4.4392,4.4403,4.5033,4.5247,4.522,4.5577,4.556,4.5381,4.5604,4.5694,4.5694,4.5694,4.5694,4.5694,4.5694,4.5694,4.5755,4.6039,4.5959,4.5881,4.6432,4.6422,4.6377,4.6956,4.7125,4.7223,4.7446,4.7518,4.7535,4.7526,4.7509,4.7509,4.7509,4.7509,4.7509,4.7509,4.7705,4.7998,4.8337,4.8604,4.8871,4.9245,4.9291,4.9291,4.9291,4.9291,4.9291,4.9291,4.9291,4.9272,4.9245,4.8738,4.8542,4.8756,4.8212,4.7758,4.7526,4.7509,4.7366,4.7161,4.7375,4.7491,4.7455,4.7509,4.7509,0.0,0.0,0.0,0.0,0.0,0.0,0.0,0.0,3.2096,0.0,0.0,0.0,0.0,0.0,0.0,0.0,3.7595,0.0,0.0,0.0,4.068,0.0,0.0,0.0,0.0,0.0,0.0,0.0,4.2897,4.2897,4.3607,4.3538,4.3708,4.4136,4.4045,4.3928,4.3788,4.3928,4.3928,4.3788,4.4045,4.4115,4.4008,4.4115,4.4189,4.4232,4.4359,4.4509,4.4713,4.5131,4.5301,4.5327,4.5604,4.5631,4.5541,4.5667,4.5694,4.5694,4.5694,4.5694,4.5694,4.5694,4.5694,4.5774,4.6102,4.6102,4.6066,4.6485,4.6512,4.6529,4.6965,4.709,4.717,4.7446,4.7509,4.7535,4.7705,4.7616,4.7553,4.7705,4.7616,4.7553,4.7722,4.782,4.8007,4.8355,4.8631,4.8925,4.9264,4.9291,4.9291,4.9291,4.9291,4.9291,4.9291,4.9291,4.9291,4.9291,4.8729,4.8355,4.8265,4.7909,4.7616,4.7509,4.7509,4.7446,4.7339,4.7446,4.7509,4.7509,4.7509,4.7509,3.6374,0.0,0.0,0.0,0.0,0.0,0.0,0.0,0.0,0.0,0.0,0.0,0.0,0.0,0.0,0.0,0.0,3.6954,0.0,3.746,0.0,0.0,0.0,0.0,0.0,0.0,0.0,0.0,0.0,4.1844,4.2699,4.3004,4.3377,4.3848,4.3938,4.4008,4.4008,4.3912,4.3912,4.4008,4.4008,4.4035,4.4115,4.4205,4.4339,4.4526,4.4526,4.4713,4.5024,4.522,4.5327,4.5417,4.5614,4.5694,4.5694,4.5694,4.5694,4.5694,4.5694,4.5694,4.5694,4.5694,4.5694,4.5738,4.5995,4.6048,4.6119,4.6413,4.6529,4.669,4.7019,4.7152,4.7259,4.7437,4.7509,4.7562,4.7838,4.7749,4.7705,4.7998,4.7891,4.782,4.8016,4.8043,4.8132,4.8462,4.8756,4.9032,4.9264,4.9291,4.9291,4.9291,4.9291,4.9291,4.9291,4.9291,4.9264,4.9165,4.8604,4.815,4.7918,4.7642,4.7509,4.7509,4.7562,4.7616,4.7616,4.7705,4.7714,4.7616,4.7535,4.7535,0.0,0.0,0.0,0.0,0.0,0.0,0.0,0.0,2.9979,0.0,0.0,0.0,0.0,0.0,0.0,0.0,0.0,0.0,0.0,0.0,0.0,0.0,0.0,0.0,0.0,0.0,0.0,0.0,0.0,0.0,4.1753,4.2095,4.2614,4.3495,4.3815,4.4008,4.4008,4.3682,4.3682,4.4008,4.4008,4.4125,4.4403,4.4713,4.487,4.489,4.489,4.5041,4.5301,4.5301,4.5444,4.5694,4.5694,4.5694,4.5694,4.5694,4.5694,4.5694,4.5694,4.5694,4.5694,4.5694,4.5694,4.5694,4.5711,4.5711,4.5791,4.6119,4.6413,4.669,4.7019,4.7286,4.7509,4.7509,4.7509,4.7562,4.7838,4.79,4.7998,4.8328,4.8373,4.8373,4.8364,4.8364,4.848,4.8756,4.9058,4.9272,4.9291,4.9291,4.9291,4.9291,4.9291,4.9291,4.9291,4.9291,4.9157,4.8845,4.8239,4.7918,4.79,4.7642,4.7509,4.7509,4.774,4.79,4.79,4.8221,4.8221,4.7891,4.7624,4.7642,0.0,0.0,3.6225,3.4587,0.0,0.0,0.0,0.0,0.0,0.0,0.0,0.0,0.0,0.0,0.0,0.0,0.0,0.0,0.0,0.0,0.0,0.0,0.0,0.0,0.0,0.0,0.0,0.0,3.9106,0.0,0.0,4.1577,4.2138,4.2614,4.3143,4.341,4.341,4.3297,4.3394,4.3688,4.3688,4.3922,4.4403,4.4509,4.4793,4.5157,4.5157,4.531,4.5577,4.5577,4.5614,4.5694,4.5694,4.5694,4.5694,4.5694,4.5694,4.5694,4.5694,4.5694,4.5694,4.5694,4.5694,4.5738,4.5959,4.6022,4.6129,4.6644,4.6858,4.7019,4.7286,4.7428,4.7509,4.7509,4.7509,4.7624,4.8141,4.8052,4.8052,4.8569,4.8524,4.8462,4.8631,4.8658,4.8711,4.88,4.9077,4.9291,4.9291,4.9291,4.9291,4.9291,4.9291,4.9291,4.9291,4.9291,4.9077,4.8569,4.8337,4.8043,4.7642,4.7713,4.7758,4.7758,4.8052,4.823,4.823,4.8337,4.8337,4.823,4.8141,4.8034,4.3741,4.1992,0.0,0.0,3.4433,0.0,0.0,0.0,0.0,0.0,0.0,0.0,0.0,0.0,0.0,0.0,0.0,0.0,0.0,3.2716,0.0,0.0,0.0,0.0,0.0,0.0,3.7474,3.814,3.7784,0.0,0.0,0.0,4.139,4.1866,4.2683,4.31,4.31,4.3009,4.3143,4.3495,4.3495,4.3885,4.4596,4.4686,4.499,4.5434,4.5434,4.5524,4.5694,4.5694,4.5694,4.5694,4.5694,4.5631,4.5577,4.5667,4.5694,4.5694,4.5694,4.5694,4.5694,4.5694,4.5694,4.5738,4.5959,4.6022,4.6209,4.7135,4.7152,4.7072,4.7776,4.774,4.7509,4.7509,4.7509,4.7624,4.8123,4.815,4.823,4.8729,4.8756,4.8764,4.8952,4.8978,4.8978,4.8978,4.9157,4.9291,4.9291,4.9291,4.9291,4.9291,4.9291,4.9291,4.9291,4.9184,4.905,4.8863,4.8569,4.8328,4.815,4.8105,4.823,4.8533,4.8533,4.8711,4.8978,4.8818,4.8667,4.856,4.8667,4.8542]}]]